<?xml version='1.0' encoding='UTF-8'?><gpx version="1.1" creator="JPX - https://github.com/jenetics/jpx" xmlns="http://www.topografix.com/GPX/1/1"><trk><trkseg><trkpt lat="45.3575817" lon="9.7832917"><ele>74.0</ele><time>2026-03-23T13:46:09.351Z</time></trkpt><trkpt lat="45.3575183" lon="9.7832667"><ele>74.0</ele><time>2026-03-23T13:46:32.351Z</time></trkpt><trkpt lat="45.3575017" lon="9.78316"><ele>74.0</ele><time>2026-03-23T13:46:37.352Z</time></trkpt><trkpt lat="45.3575017" lon="9.783065"><ele>74.0</ele><time>2026-03-23T13:46:42.351Z</time></trkpt><trkpt lat="45.3574467" lon="9.7834617"><ele>74.0</ele><time>2026-03-23T13:46:44.259Z</time></trkpt><trkpt lat="45.35749" lon="9.78311"><ele>74.0</ele><time>2026-03-23T13:46:47.351Z</time></trkpt><trkpt lat="45.357485" lon="9.7830133"><ele>74.0</ele><time>2026-03-23T13:51:45.853Z</time></trkpt><trkpt lat="45.3574417" lon="9.78293"><ele>74.0</ele><time>2026-03-23T13:52:25.353Z</time></trkpt><trkpt lat="45.3573683" lon="9.782935"><ele>74.0</ele><time>2026-03-23T13:52:29.352Z</time></trkpt><trkpt lat="45.357295" lon="9.7829583"><ele>74.0</ele><time>2026-03-23T13:52:33.352Z</time></trkpt><trkpt lat="45.3572167" lon="9.7829767"><ele>74.0</ele><time>2026-03-23T13:52:37.352Z</time></trkpt><trkpt lat="45.35715" lon="9.7829817"><ele>74.0</ele><time>2026-03-23T13:52:41.352Z</time></trkpt><trkpt lat="45.3570783" lon="9.7829967"><ele>74.0</ele><time>2026-03-23T13:52:44.353Z</time></trkpt><trkpt lat="45.3569883" lon="9.7829983"><ele>74.0</ele><time>2026-03-23T13:52:47.352Z</time></trkpt><trkpt lat="45.3568967" lon="9.78302"><ele>73.85714285714286</ele><time>2026-03-23T13:52:50.353Z</time></trkpt><trkpt lat="45.35683" lon="9.7830333"><ele>73.71428571428571</ele><time>2026-03-23T13:52:52.353Z</time></trkpt><trkpt lat="45.3567633" lon="9.78304"><ele>73.57142857142857</ele><time>2026-03-23T13:52:54.352Z</time></trkpt><trkpt lat="45.3566983" lon="9.7830433"><ele>73.42857142857143</ele><time>2026-03-23T13:52:56.352Z</time></trkpt><trkpt lat="45.3566317" lon="9.7830583"><ele>73.28571428571429</ele><time>2026-03-23T13:52:58.352Z</time></trkpt><trkpt lat="45.35654" lon="9.7830833"><ele>73.14285714285714</ele><time>2026-03-23T13:53:01.352Z</time></trkpt><trkpt lat="45.3564717" lon="9.7830883"><ele>73.0</ele><time>2026-03-23T13:53:03.353Z</time></trkpt><trkpt lat="45.3564017" lon="9.7830883"><ele>73.0</ele><time>2026-03-23T13:53:05.352Z</time></trkpt><trkpt lat="45.35633" lon="9.7830933"><ele>73.0</ele><time>2026-03-23T13:53:07.352Z</time></trkpt><trkpt lat="45.3562583" lon="9.783105"><ele>73.0</ele><time>2026-03-23T13:53:09.353Z</time></trkpt><trkpt lat="45.356185" lon="9.7831133"><ele>73.0</ele><time>2026-03-23T13:53:11.352Z</time></trkpt><trkpt lat="45.356115" lon="9.78313"><ele>73.0</ele><time>2026-03-23T13:53:13.352Z</time></trkpt><trkpt lat="45.3560483" lon="9.78313"><ele>73.0</ele><time>2026-03-23T13:53:15.352Z</time></trkpt><trkpt lat="45.35601" lon="9.7830067"><ele>73.0</ele><time>2026-03-23T13:53:18.352Z</time></trkpt><trkpt lat="45.3560017" lon="9.7828933"><ele>73.0</ele><time>2026-03-23T13:53:20.353Z</time></trkpt><trkpt lat="45.355985" lon="9.7827867"><ele>73.0</ele><time>2026-03-23T13:53:22.352Z</time></trkpt><trkpt lat="45.35597" lon="9.7826717"><ele>73.0</ele><time>2026-03-23T13:53:24.352Z</time></trkpt><trkpt lat="45.3559533" lon="9.7825517"><ele>73.0</ele><time>2026-03-23T13:53:26.352Z</time></trkpt><trkpt lat="45.3559383" lon="9.7824383"><ele>73.0</ele><time>2026-03-23T13:53:28.35Z</time></trkpt><trkpt lat="45.3559233" lon="9.78233"><ele>73.0</ele><time>2026-03-23T13:53:30.352Z</time></trkpt><trkpt lat="45.3559117" lon="9.7822233"><ele>73.0</ele><time>2026-03-23T13:53:32.353Z</time></trkpt><trkpt lat="45.3558933" lon="9.782115"><ele>73.0</ele><time>2026-03-23T13:53:34.352Z</time></trkpt><trkpt lat="45.3558767" lon="9.7820117"><ele>73.0</ele><time>2026-03-23T13:53:36.353Z</time></trkpt><trkpt lat="45.355865" lon="9.781905"><ele>73.0</ele><time>2026-03-23T13:53:38.352Z</time></trkpt><trkpt lat="45.3558517" lon="9.781795"><ele>73.0</ele><time>2026-03-23T13:53:40.352Z</time></trkpt><trkpt lat="45.3558367" lon="9.78168"><ele>73.0</ele><time>2026-03-23T13:53:42.352Z</time></trkpt><trkpt lat="45.35582" lon="9.781565"><ele>73.0</ele><time>2026-03-23T13:53:44.352Z</time></trkpt><trkpt lat="45.3558117" lon="9.7814483"><ele>73.0</ele><time>2026-03-23T13:53:46.352Z</time></trkpt><trkpt lat="45.3557983" lon="9.781335"><ele>73.0</ele><time>2026-03-23T13:53:48.352Z</time></trkpt><trkpt lat="45.3557783" lon="9.7812317"><ele>73.0</ele><time>2026-03-23T13:53:50.352Z</time></trkpt><trkpt lat="45.355765" lon="9.7811133"><ele>73.0</ele><time>2026-03-23T13:53:52.353Z</time></trkpt><trkpt lat="45.355745" lon="9.7809917"><ele>73.0</ele><time>2026-03-23T13:53:54.352Z</time></trkpt><trkpt lat="45.3557183" lon="9.7808867"><ele>73.0</ele><time>2026-03-23T13:53:56.353Z</time></trkpt><trkpt lat="45.3557083" lon="9.7807767"><ele>73.0</ele><time>2026-03-23T13:53:58.352Z</time></trkpt><trkpt lat="45.355685" lon="9.7806617"><ele>73.0</ele><time>2026-03-23T13:54:00.352Z</time></trkpt><trkpt lat="45.355665" lon="9.7805533"><ele>73.0</ele><time>2026-03-23T13:54:02.352Z</time></trkpt><trkpt lat="45.355645" lon="9.7804483"><ele>73.0</ele><time>2026-03-23T13:54:04.352Z</time></trkpt><trkpt lat="45.3556283" lon="9.78035"><ele>73.0</ele><time>2026-03-23T13:54:07.352Z</time></trkpt><trkpt lat="45.3556217" lon="9.7802333"><ele>73.0</ele><time>2026-03-23T13:54:11.352Z</time></trkpt><trkpt lat="45.3556033" lon="9.7801183"><ele>73.0</ele><time>2026-03-23T13:54:13.352Z</time></trkpt><trkpt lat="45.35558" lon="9.7799983"><ele>73.0</ele><time>2026-03-23T13:54:15.352Z</time></trkpt><trkpt lat="45.3555717" lon="9.7798733"><ele>73.0</ele><time>2026-03-23T13:54:17.352Z</time></trkpt><trkpt lat="45.355555" lon="9.77976"><ele>73.0</ele><time>2026-03-23T13:54:19.352Z</time></trkpt><trkpt lat="45.3555317" lon="9.7796533"><ele>73.0</ele><time>2026-03-23T13:54:21.352Z</time></trkpt><trkpt lat="45.3555017" lon="9.779535"><ele>73.0</ele><time>2026-03-23T13:54:23.352Z</time></trkpt><trkpt lat="45.3554783" lon="9.77942"><ele>73.0</ele><time>2026-03-23T13:54:25.352Z</time></trkpt><trkpt lat="45.3554567" lon="9.7793117"><ele>73.0</ele><time>2026-03-23T13:54:27.352Z</time></trkpt><trkpt lat="45.3554417" lon="9.7792033"><ele>73.0</ele><time>2026-03-23T13:54:29.352Z</time></trkpt><trkpt lat="45.3554333" lon="9.77909"><ele>73.0</ele><time>2026-03-23T13:54:31.352Z</time></trkpt><trkpt lat="45.3554217" lon="9.7789667"><ele>73.0</ele><time>2026-03-23T13:54:33.352Z</time></trkpt><trkpt lat="45.355415" lon="9.7788417"><ele>73.0</ele><time>2026-03-23T13:54:35.352Z</time></trkpt><trkpt lat="45.3554117" lon="9.7787183"><ele>73.0</ele><time>2026-03-23T13:54:37.352Z</time></trkpt><trkpt lat="45.3554233" lon="9.7785983"><ele>73.0</ele><time>2026-03-23T13:54:39.352Z</time></trkpt><trkpt lat="45.355445" lon="9.77848"><ele>73.0</ele><time>2026-03-23T13:54:41.352Z</time></trkpt><trkpt lat="45.3554767" lon="9.7783717"><ele>73.0</ele><time>2026-03-23T13:54:43.352Z</time></trkpt><trkpt lat="45.3555033" lon="9.7782767"><ele>73.0</ele><time>2026-03-23T13:54:45.352Z</time></trkpt><trkpt lat="45.355535" lon="9.7781867"><ele>73.0</ele><time>2026-03-23T13:54:47.352Z</time></trkpt><trkpt lat="45.355585" lon="9.77811"><ele>73.0</ele><time>2026-03-23T13:54:49.353Z</time></trkpt><trkpt lat="45.3556383" lon="9.77802"><ele>73.0</ele><time>2026-03-23T13:54:51.352Z</time></trkpt><trkpt lat="45.355675" lon="9.7779083"><ele>73.0</ele><time>2026-03-23T13:54:53.353Z</time></trkpt><trkpt lat="45.3556867" lon="9.7777833"><ele>73.0</ele><time>2026-03-23T13:54:55.353Z</time></trkpt><trkpt lat="45.3556983" lon="9.77766"><ele>73.0</ele><time>2026-03-23T13:54:57.352Z</time></trkpt><trkpt lat="45.355735" lon="9.7775433"><ele>73.0</ele><time>2026-03-23T13:54:59.352Z</time></trkpt><trkpt lat="45.3557817" lon="9.7774333"><ele>73.0</ele><time>2026-03-23T13:55:01.353Z</time></trkpt><trkpt lat="45.3558283" lon="9.7773133"><ele>73.0</ele><time>2026-03-23T13:55:03.352Z</time></trkpt><trkpt lat="45.3558833" lon="9.7772"><ele>73.0</ele><time>2026-03-23T13:55:05.352Z</time></trkpt><trkpt lat="45.3559367" lon="9.7770867"><ele>73.0</ele><time>2026-03-23T13:55:07.353Z</time></trkpt><trkpt lat="45.3559933" lon="9.7769783"><ele>73.0</ele><time>2026-03-23T13:55:09.353Z</time></trkpt><trkpt lat="45.356045" lon="9.77687"><ele>73.0</ele><time>2026-03-23T13:55:11.352Z</time></trkpt><trkpt lat="45.3560933" lon="9.77676"><ele>73.0</ele><time>2026-03-23T13:55:13.353Z</time></trkpt><trkpt lat="45.3561383" lon="9.77665"><ele>73.0</ele><time>2026-03-23T13:55:15.352Z</time></trkpt><trkpt lat="45.3561917" lon="9.77654"><ele>73.0</ele><time>2026-03-23T13:55:17.352Z</time></trkpt><trkpt lat="45.35625" lon="9.77643"><ele>73.0</ele><time>2026-03-23T13:55:19.353Z</time></trkpt><trkpt lat="45.3563067" lon="9.7763233"><ele>73.0</ele><time>2026-03-23T13:55:21.352Z</time></trkpt><trkpt lat="45.3563583" lon="9.77622"><ele>73.0</ele><time>2026-03-23T13:55:23.352Z</time></trkpt><trkpt lat="45.356405" lon="9.7761083"><ele>73.0</ele><time>2026-03-23T13:55:25.353Z</time></trkpt><trkpt lat="45.3564483" lon="9.776"><ele>73.0</ele><time>2026-03-23T13:55:27.352Z</time></trkpt><trkpt lat="45.3564933" lon="9.7758917"><ele>73.0</ele><time>2026-03-23T13:55:29.353Z</time></trkpt><trkpt lat="45.3565333" lon="9.775775"><ele>73.0</ele><time>2026-03-23T13:55:31.352Z</time></trkpt><trkpt lat="45.35657" lon="9.7756567"><ele>73.0</ele><time>2026-03-23T13:55:33.352Z</time></trkpt><trkpt lat="45.356605" lon="9.7755367"><ele>73.0</ele><time>2026-03-23T13:55:35.353Z</time></trkpt><trkpt lat="45.356635" lon="9.7754117"><ele>73.0</ele><time>2026-03-23T13:55:37.353Z</time></trkpt><trkpt lat="45.356665" lon="9.7752817"><ele>73.0</ele><time>2026-03-23T13:55:39.352Z</time></trkpt><trkpt lat="45.3567033" lon="9.7751567"><ele>73.0</ele><time>2026-03-23T13:55:41.352Z</time></trkpt><trkpt lat="45.3567267" lon="9.7750267"><ele>73.0</ele><time>2026-03-23T13:55:43.352Z</time></trkpt><trkpt lat="45.35675" lon="9.774895"><ele>73.0</ele><time>2026-03-23T13:55:45.352Z</time></trkpt><trkpt lat="45.3567617" lon="9.774765"><ele>73.16666666666666</ele><time>2026-03-23T13:55:47.352Z</time></trkpt><trkpt lat="45.3568133" lon="9.7746717"><ele>73.33333333333333</ele><time>2026-03-23T13:55:49.352Z</time></trkpt><trkpt lat="45.356895" lon="9.774645"><ele>73.5</ele><time>2026-03-23T13:55:51.353Z</time></trkpt><trkpt lat="45.3569867" lon="9.7746583"><ele>73.66666666666667</ele><time>2026-03-23T13:55:53.352Z</time></trkpt><trkpt lat="45.3570767" lon="9.7746733"><ele>73.83333333333334</ele><time>2026-03-23T13:55:55.352Z</time></trkpt><trkpt lat="45.3571683" lon="9.77468"><ele>74.0</ele><time>2026-03-23T13:55:57.352Z</time></trkpt><trkpt lat="45.357265" lon="9.77469"><ele>74.0</ele><time>2026-03-23T13:55:59.352Z</time></trkpt><trkpt lat="45.3573633" lon="9.7746967"><ele>74.0</ele><time>2026-03-23T13:56:01.353Z</time></trkpt><trkpt lat="45.35746" lon="9.7747083"><ele>74.0</ele><time>2026-03-23T13:56:03.352Z</time></trkpt><trkpt lat="45.35756" lon="9.774725"><ele>74.0</ele><time>2026-03-23T13:56:05.352Z</time></trkpt><trkpt lat="45.357655" lon="9.77473"><ele>74.0</ele><time>2026-03-23T13:56:07.353Z</time></trkpt><trkpt lat="45.3577567" lon="9.7747417"><ele>74.0</ele><time>2026-03-23T13:56:09.352Z</time></trkpt><trkpt lat="45.3578533" lon="9.7747467"><ele>74.0</ele><time>2026-03-23T13:56:11.353Z</time></trkpt><trkpt lat="45.3579533" lon="9.77475"><ele>74.0</ele><time>2026-03-23T13:56:13.352Z</time></trkpt><trkpt lat="45.3580533" lon="9.7747583"><ele>74.0</ele><time>2026-03-23T13:56:15.352Z</time></trkpt><trkpt lat="45.3581433" lon="9.77476"><ele>74.0</ele><time>2026-03-23T13:56:17.352Z</time></trkpt><trkpt lat="45.358225" lon="9.774765"><ele>74.0</ele><time>2026-03-23T13:56:19.352Z</time></trkpt><trkpt lat="45.3583083" lon="9.7747683"><ele>74.0</ele><time>2026-03-23T13:56:21.352Z</time></trkpt><trkpt lat="45.3583683" lon="9.7747033"><ele>74.0</ele><time>2026-03-23T13:56:23.352Z</time></trkpt><trkpt lat="45.3583667" lon="9.7745817"><ele>74.0</ele><time>2026-03-23T13:56:25.352Z</time></trkpt><trkpt lat="45.3583583" lon="9.774455"><ele>74.0</ele><time>2026-03-23T13:56:27.352Z</time></trkpt><trkpt lat="45.3583567" lon="9.77432"><ele>74.0</ele><time>2026-03-23T13:56:29.352Z</time></trkpt><trkpt lat="45.3583567" lon="9.7741783"><ele>74.0</ele><time>2026-03-23T13:56:31.353Z</time></trkpt><trkpt lat="45.35836" lon="9.7740367"><ele>74.0</ele><time>2026-03-23T13:56:33.352Z</time></trkpt><trkpt lat="45.358365" lon="9.7738983"><ele>74.0</ele><time>2026-03-23T13:56:35.352Z</time></trkpt><trkpt lat="45.35837" lon="9.7737567"><ele>74.0</ele><time>2026-03-23T13:56:37.352Z</time></trkpt><trkpt lat="45.3583733" lon="9.7736133"><ele>74.0</ele><time>2026-03-23T13:56:39.352Z</time></trkpt><trkpt lat="45.358375" lon="9.77347"><ele>74.0</ele><time>2026-03-23T13:56:41.353Z</time></trkpt><trkpt lat="45.35838" lon="9.7733217"><ele>74.0</ele><time>2026-03-23T13:56:43.352Z</time></trkpt><trkpt lat="45.358385" lon="9.7731717"><ele>74.0</ele><time>2026-03-23T13:56:45.352Z</time></trkpt><trkpt lat="45.3583933" lon="9.7730267"><ele>74.0</ele><time>2026-03-23T13:56:47.352Z</time></trkpt><trkpt lat="45.3583967" lon="9.772885"><ele>74.0</ele><time>2026-03-23T13:56:49.353Z</time></trkpt><trkpt lat="45.3584017" lon="9.77274"><ele>73.8</ele><time>2026-03-23T13:56:51.352Z</time></trkpt><trkpt lat="45.35841" lon="9.772595"><ele>73.60000000000001</ele><time>2026-03-23T13:56:53.353Z</time></trkpt><trkpt lat="45.3584183" lon="9.7724517"><ele>73.4</ele><time>2026-03-23T13:56:55.352Z</time></trkpt><trkpt lat="45.35842" lon="9.7723067"><ele>73.2</ele><time>2026-03-23T13:56:57.352Z</time></trkpt><trkpt lat="45.3584217" lon="9.7721633"><ele>73.0</ele><time>2026-03-23T13:56:59.352Z</time></trkpt><trkpt lat="45.358425" lon="9.7720233"><ele>73.0</ele><time>2026-03-23T13:57:01.353Z</time></trkpt><trkpt lat="45.3584267" lon="9.77188"><ele>73.0</ele><time>2026-03-23T13:57:03.353Z</time></trkpt><trkpt lat="45.35843" lon="9.7717417"><ele>73.0</ele><time>2026-03-23T13:57:05.352Z</time></trkpt><trkpt lat="45.358435" lon="9.771605"><ele>73.0</ele><time>2026-03-23T13:57:07.352Z</time></trkpt><trkpt lat="45.358435" lon="9.77146"><ele>73.0</ele><time>2026-03-23T13:57:09.352Z</time></trkpt><trkpt lat="45.3584367" lon="9.7713183"><ele>72.8</ele><time>2026-03-23T13:57:11.352Z</time></trkpt><trkpt lat="45.3584383" lon="9.771175"><ele>72.6</ele><time>2026-03-23T13:57:13.352Z</time></trkpt><trkpt lat="45.3584417" lon="9.771025"><ele>72.4</ele><time>2026-03-23T13:57:15.352Z</time></trkpt><trkpt lat="45.3584483" lon="9.77089"><ele>72.2</ele><time>2026-03-23T13:57:17.352Z</time></trkpt><trkpt lat="45.3584567" lon="9.7707517"><ele>72.0</ele><time>2026-03-23T13:57:19.352Z</time></trkpt><trkpt lat="45.35846" lon="9.7706033"><ele>72.0</ele><time>2026-03-23T13:57:21.352Z</time></trkpt><trkpt lat="45.3584617" lon="9.7704533"><ele>72.0</ele><time>2026-03-23T13:57:23.352Z</time></trkpt><trkpt lat="45.358465" lon="9.7703083"><ele>72.0</ele><time>2026-03-23T13:57:25.352Z</time></trkpt><trkpt lat="45.3584683" lon="9.7701633"><ele>72.0</ele><time>2026-03-23T13:57:27.352Z</time></trkpt><trkpt lat="45.3584733" lon="9.770015"><ele>72.0</ele><time>2026-03-23T13:57:29.352Z</time></trkpt><trkpt lat="45.3584817" lon="9.7698683"><ele>72.0</ele><time>2026-03-23T13:57:31.353Z</time></trkpt><trkpt lat="45.3584917" lon="9.769725"><ele>72.0</ele><time>2026-03-23T13:57:33.352Z</time></trkpt><trkpt lat="45.3584967" lon="9.769585"><ele>72.0</ele><time>2026-03-23T13:57:35.353Z</time></trkpt><trkpt lat="45.358505" lon="9.769445"><ele>72.0</ele><time>2026-03-23T13:57:37.352Z</time></trkpt><trkpt lat="45.35851" lon="9.7693067"><ele>72.0</ele><time>2026-03-23T13:57:39.352Z</time></trkpt><trkpt lat="45.3585133" lon="9.76917"><ele>72.2</ele><time>2026-03-23T13:57:41.351Z</time></trkpt><trkpt lat="45.358515" lon="9.7690317"><ele>72.4</ele><time>2026-03-23T13:57:43.352Z</time></trkpt><trkpt lat="45.3585183" lon="9.76889"><ele>72.6</ele><time>2026-03-23T13:57:45.351Z</time></trkpt><trkpt lat="45.3585217" lon="9.7687467"><ele>72.8</ele><time>2026-03-23T13:57:47.35Z</time></trkpt><trkpt lat="45.3585233" lon="9.7686033"><ele>73.0</ele><time>2026-03-23T13:57:49.351Z</time></trkpt><trkpt lat="45.3585267" lon="9.7684617"><ele>73.0</ele><time>2026-03-23T13:57:51.351Z</time></trkpt><trkpt lat="45.358535" lon="9.7683267"><ele>73.0</ele><time>2026-03-23T13:57:53.351Z</time></trkpt><trkpt lat="45.3585383" lon="9.7681833"><ele>73.0</ele><time>2026-03-23T13:57:55.352Z</time></trkpt><trkpt lat="45.3585433" lon="9.76804"><ele>73.0</ele><time>2026-03-23T13:57:57.351Z</time></trkpt><trkpt lat="45.3585517" lon="9.7678967"><ele>73.0</ele><time>2026-03-23T13:57:59.351Z</time></trkpt><trkpt lat="45.3585633" lon="9.76775"><ele>72.8</ele><time>2026-03-23T13:58:01.352Z</time></trkpt><trkpt lat="45.3585733" lon="9.7676"><ele>72.6</ele><time>2026-03-23T13:58:03.351Z</time></trkpt><trkpt lat="45.3585783" lon="9.7674517"><ele>72.4</ele><time>2026-03-23T13:58:05.352Z</time></trkpt><trkpt lat="45.3585917" lon="9.7673017"><ele>72.2</ele><time>2026-03-23T13:58:07.351Z</time></trkpt><trkpt lat="45.3585983" lon="9.7671617"><ele>72.0</ele><time>2026-03-23T13:58:09.351Z</time></trkpt><trkpt lat="45.3586033" lon="9.7670183"><ele>72.0</ele><time>2026-03-23T13:58:11.351Z</time></trkpt><trkpt lat="45.3586017" lon="9.766875"><ele>72.0</ele><time>2026-03-23T13:58:13.352Z</time></trkpt><trkpt lat="45.358605" lon="9.7667333"><ele>72.0</ele><time>2026-03-23T13:58:15.351Z</time></trkpt><trkpt lat="45.3586117" lon="9.7665917"><ele>72.0</ele><time>2026-03-23T13:58:17.351Z</time></trkpt><trkpt lat="45.3586117" lon="9.7664467"><ele>72.0</ele><time>2026-03-23T13:58:19.352Z</time></trkpt><trkpt lat="45.358615" lon="9.766295"><ele>72.0</ele><time>2026-03-23T13:58:21.351Z</time></trkpt><trkpt lat="45.358615" lon="9.766145"><ele>72.0</ele><time>2026-03-23T13:58:23.351Z</time></trkpt><trkpt lat="45.3586183" lon="9.7659933"><ele>72.0</ele><time>2026-03-23T13:58:25.351Z</time></trkpt><trkpt lat="45.3586233" lon="9.7658417"><ele>72.0</ele><time>2026-03-23T13:58:27.352Z</time></trkpt><trkpt lat="45.3586217" lon="9.7656917"><ele>72.0</ele><time>2026-03-23T13:58:29.352Z</time></trkpt><trkpt lat="45.3586267" lon="9.7655417"><ele>72.2</ele><time>2026-03-23T13:58:31.351Z</time></trkpt><trkpt lat="45.3586333" lon="9.765395"><ele>72.4</ele><time>2026-03-23T13:58:33.352Z</time></trkpt><trkpt lat="45.3586367" lon="9.7652467"><ele>72.6</ele><time>2026-03-23T13:58:35.351Z</time></trkpt><trkpt lat="45.3586417" lon="9.7650983"><ele>72.8</ele><time>2026-03-23T13:58:37.351Z</time></trkpt><trkpt lat="45.358645" lon="9.7649517"><ele>73.0</ele><time>2026-03-23T13:58:39.351Z</time></trkpt><trkpt lat="45.3586517" lon="9.7647967"><ele>72.6</ele><time>2026-03-23T13:58:41.351Z</time></trkpt><trkpt lat="45.3586583" lon="9.76464"><ele>72.19999999999999</ele><time>2026-03-23T13:58:43.351Z</time></trkpt><trkpt lat="45.358675" lon="9.7645033"><ele>71.8</ele><time>2026-03-23T13:58:45.351Z</time></trkpt><trkpt lat="45.3586867" lon="9.7643717"><ele>71.39999999999999</ele><time>2026-03-23T13:58:47.351Z</time></trkpt><trkpt lat="45.3586867" lon="9.7642333"><ele>71.0</ele><time>2026-03-23T13:58:49.351Z</time></trkpt><trkpt lat="45.3586883" lon="9.7640917"><ele>71.0</ele><time>2026-03-23T13:58:51.351Z</time></trkpt><trkpt lat="45.3586933" lon="9.7639483"><ele>71.0</ele><time>2026-03-23T13:58:53.352Z</time></trkpt><trkpt lat="45.3587017" lon="9.763805"><ele>71.0</ele><time>2026-03-23T13:58:55.351Z</time></trkpt><trkpt lat="45.3587083" lon="9.763655"><ele>71.0</ele><time>2026-03-23T13:58:57.352Z</time></trkpt><trkpt lat="45.358715" lon="9.7635083"><ele>71.0</ele><time>2026-03-23T13:58:59.352Z</time></trkpt><trkpt lat="45.3587217" lon="9.7633633"><ele>71.39999999999999</ele><time>2026-03-23T13:59:01.351Z</time></trkpt><trkpt lat="45.358725" lon="9.7632167"><ele>71.8</ele><time>2026-03-23T13:59:03.351Z</time></trkpt><trkpt lat="45.35873" lon="9.7630733"><ele>72.19999999999999</ele><time>2026-03-23T13:59:05.352Z</time></trkpt><trkpt lat="45.3587333" lon="9.76293"><ele>72.6</ele><time>2026-03-23T13:59:07.351Z</time></trkpt><trkpt lat="45.3587383" lon="9.7627867"><ele>73.0</ele><time>2026-03-23T13:59:09.351Z</time></trkpt><trkpt lat="45.3587417" lon="9.7626433"><ele>73.0</ele><time>2026-03-23T13:59:11.351Z</time></trkpt><trkpt lat="45.3587483" lon="9.7625"><ele>73.0</ele><time>2026-03-23T13:59:13.352Z</time></trkpt><trkpt lat="45.3587483" lon="9.7623583"><ele>73.0</ele><time>2026-03-23T13:59:15.351Z</time></trkpt><trkpt lat="45.3587567" lon="9.7622183"><ele>73.0</ele><time>2026-03-23T13:59:17.351Z</time></trkpt><trkpt lat="45.3587583" lon="9.7620767"><ele>73.0</ele><time>2026-03-23T13:59:19.351Z</time></trkpt><trkpt lat="45.35876" lon="9.76193"><ele>72.4</ele><time>2026-03-23T13:59:21.352Z</time></trkpt><trkpt lat="45.358765" lon="9.7617867"><ele>71.8</ele><time>2026-03-23T13:59:23.351Z</time></trkpt><trkpt lat="45.3587717" lon="9.7616383"><ele>71.2</ele><time>2026-03-23T13:59:25.351Z</time></trkpt><trkpt lat="45.35877" lon="9.7614967"><ele>70.6</ele><time>2026-03-23T13:59:27.351Z</time></trkpt><trkpt lat="45.3587733" lon="9.76135"><ele>70.0</ele><time>2026-03-23T13:59:29.351Z</time></trkpt><trkpt lat="45.3587783" lon="9.76121"><ele>70.0</ele><time>2026-03-23T13:59:31.352Z</time></trkpt><trkpt lat="45.3587783" lon="9.7610583"><ele>70.0</ele><time>2026-03-23T13:59:33.351Z</time></trkpt><trkpt lat="45.3587867" lon="9.7609117"><ele>70.0</ele><time>2026-03-23T13:59:35.351Z</time></trkpt><trkpt lat="45.3587883" lon="9.760765"><ele>70.0</ele><time>2026-03-23T13:59:37.352Z</time></trkpt><trkpt lat="45.358795" lon="9.7606183"><ele>70.0</ele><time>2026-03-23T13:59:39.351Z</time></trkpt><trkpt lat="45.3588" lon="9.7604717"><ele>70.2</ele><time>2026-03-23T13:59:41.351Z</time></trkpt><trkpt lat="45.3588083" lon="9.76033"><ele>70.4</ele><time>2026-03-23T13:59:43.352Z</time></trkpt><trkpt lat="45.3588117" lon="9.7601817"><ele>70.6</ele><time>2026-03-23T13:59:45.351Z</time></trkpt><trkpt lat="45.3588133" lon="9.7600333"><ele>70.8</ele><time>2026-03-23T13:59:47.352Z</time></trkpt><trkpt lat="45.3588167" lon="9.7598867"><ele>71.0</ele><time>2026-03-23T13:59:49.351Z</time></trkpt><trkpt lat="45.3588233" lon="9.7597417"><ele>71.0</ele><time>2026-03-23T13:59:51.351Z</time></trkpt><trkpt lat="45.3588283" lon="9.7595933"><ele>71.0</ele><time>2026-03-23T13:59:53.351Z</time></trkpt><trkpt lat="45.3588317" lon="9.759445"><ele>71.0</ele><time>2026-03-23T13:59:55.351Z</time></trkpt><trkpt lat="45.3588367" lon="9.7592967"><ele>71.0</ele><time>2026-03-23T13:59:57.351Z</time></trkpt><trkpt lat="45.35884" lon="9.7591517"><ele>71.0</ele><time>2026-03-23T13:59:59.351Z</time></trkpt><trkpt lat="45.3588417" lon="9.759005"><ele>71.2</ele><time>2026-03-23T14:00:01.351Z</time></trkpt><trkpt lat="45.3588417" lon="9.7588583"><ele>71.39999999999999</ele><time>2026-03-23T14:00:03.351Z</time></trkpt><trkpt lat="45.358845" lon="9.758715"><ele>71.6</ele><time>2026-03-23T14:00:05.352Z</time></trkpt><trkpt lat="45.35885" lon="9.7585633"><ele>71.8</ele><time>2026-03-23T14:00:07.352Z</time></trkpt><trkpt lat="45.3588583" lon="9.7584133"><ele>72.0</ele><time>2026-03-23T14:00:09.352Z</time></trkpt><trkpt lat="45.3588633" lon="9.7582583"><ele>72.2</ele><time>2026-03-23T14:00:11.351Z</time></trkpt><trkpt lat="45.3588733" lon="9.758115"><ele>72.4</ele><time>2026-03-23T14:00:13.352Z</time></trkpt><trkpt lat="45.3588867" lon="9.7579733"><ele>72.6</ele><time>2026-03-23T14:00:15.352Z</time></trkpt><trkpt lat="45.35891" lon="9.7578333"><ele>72.8</ele><time>2026-03-23T14:00:17.351Z</time></trkpt><trkpt lat="45.3589367" lon="9.75771"><ele>73.0</ele><time>2026-03-23T14:00:19.352Z</time></trkpt><trkpt lat="45.3589617" lon="9.7575817"><ele>73.0</ele><time>2026-03-23T14:00:21.352Z</time></trkpt><trkpt lat="45.3589733" lon="9.7574467"><ele>73.0</ele><time>2026-03-23T14:00:23.352Z</time></trkpt><trkpt lat="45.3589783" lon="9.757315"><ele>73.0</ele><time>2026-03-23T14:00:25.351Z</time></trkpt><trkpt lat="45.3589783" lon="9.7571833"><ele>73.0</ele><time>2026-03-23T14:00:27.352Z</time></trkpt><trkpt lat="45.3589867" lon="9.757055"><ele>73.0</ele><time>2026-03-23T14:00:29.351Z</time></trkpt><trkpt lat="45.358985" lon="9.7569233"><ele>73.4</ele><time>2026-03-23T14:00:31.351Z</time></trkpt><trkpt lat="45.35899" lon="9.7567917"><ele>73.8</ele><time>2026-03-23T14:00:33.352Z</time></trkpt><trkpt lat="45.3589967" lon="9.756655"><ele>74.2</ele><time>2026-03-23T14:00:35.351Z</time></trkpt><trkpt lat="45.359" lon="9.756515"><ele>74.6</ele><time>2026-03-23T14:00:37.352Z</time></trkpt><trkpt lat="45.3590033" lon="9.7563767"><ele>75.0</ele><time>2026-03-23T14:00:39.352Z</time></trkpt><trkpt lat="45.3589983" lon="9.7562417"><ele>75.0</ele><time>2026-03-23T14:00:41.351Z</time></trkpt><trkpt lat="45.3590067" lon="9.75611"><ele>75.0</ele><time>2026-03-23T14:00:43.352Z</time></trkpt><trkpt lat="45.3590067" lon="9.7559717"><ele>75.0</ele><time>2026-03-23T14:00:45.351Z</time></trkpt><trkpt lat="45.3590083" lon="9.7558367"><ele>75.0</ele><time>2026-03-23T14:00:47.351Z</time></trkpt><trkpt lat="45.3590117" lon="9.755705"><ele>75.0</ele><time>2026-03-23T14:00:49.351Z</time></trkpt><trkpt lat="45.35902" lon="9.7555717"><ele>74.6</ele><time>2026-03-23T14:00:51.351Z</time></trkpt><trkpt lat="45.3590233" lon="9.7554433"><ele>74.2</ele><time>2026-03-23T14:00:53.351Z</time></trkpt><trkpt lat="45.3590267" lon="9.7553067"><ele>73.8</ele><time>2026-03-23T14:00:55.351Z</time></trkpt><trkpt lat="45.3590283" lon="9.7551733"><ele>73.4</ele><time>2026-03-23T14:00:57.352Z</time></trkpt><trkpt lat="45.3590317" lon="9.7550417"><ele>73.0</ele><time>2026-03-23T14:00:59.351Z</time></trkpt><trkpt lat="45.3590317" lon="9.7549117"><ele>72.83333333333333</ele><time>2026-03-23T14:01:01.351Z</time></trkpt><trkpt lat="45.359035" lon="9.7547867"><ele>72.66666666666666</ele><time>2026-03-23T14:01:03.351Z</time></trkpt><trkpt lat="45.3590417" lon="9.7546717"><ele>72.5</ele><time>2026-03-23T14:01:05.351Z</time></trkpt><trkpt lat="45.3590417" lon="9.7545733"><ele>72.33333333333333</ele><time>2026-03-23T14:01:07.351Z</time></trkpt><trkpt lat="45.3590283" lon="9.754485"><ele>72.16666666666667</ele><time>2026-03-23T14:01:09.351Z</time></trkpt><trkpt lat="45.3590067" lon="9.75437"><ele>72.0</ele><time>2026-03-23T14:01:12.351Z</time></trkpt><trkpt lat="45.3590017" lon="9.7542367"><ele>72.0</ele><time>2026-03-23T14:01:15.352Z</time></trkpt><trkpt lat="45.359" lon="9.754115"><ele>72.0</ele><time>2026-03-23T14:01:17.351Z</time></trkpt><trkpt lat="45.3589983" lon="9.7539783"><ele>72.0</ele><time>2026-03-23T14:01:19.351Z</time></trkpt><trkpt lat="45.3590033" lon="9.7538333"><ele>72.0</ele><time>2026-03-23T14:01:21.351Z</time></trkpt><trkpt lat="45.3590133" lon="9.7536933"><ele>72.0</ele><time>2026-03-23T14:01:23.351Z</time></trkpt><trkpt lat="45.3590233" lon="9.7535517"><ele>72.4</ele><time>2026-03-23T14:01:25.351Z</time></trkpt><trkpt lat="45.3590367" lon="9.7534117"><ele>72.80000000000001</ele><time>2026-03-23T14:01:27.351Z</time></trkpt><trkpt lat="45.3590533" lon="9.7532767"><ele>73.2</ele><time>2026-03-23T14:01:29.351Z</time></trkpt><trkpt lat="45.359075" lon="9.7531383"><ele>73.60000000000001</ele><time>2026-03-23T14:01:31.351Z</time></trkpt><trkpt lat="45.359095" lon="9.7530033"><ele>74.0</ele><time>2026-03-23T14:01:33.351Z</time></trkpt><trkpt lat="45.3591167" lon="9.75286"><ele>74.0</ele><time>2026-03-23T14:01:35.351Z</time></trkpt><trkpt lat="45.3591433" lon="9.752715"><ele>74.0</ele><time>2026-03-23T14:01:37.351Z</time></trkpt><trkpt lat="45.3591733" lon="9.75257"><ele>74.0</ele><time>2026-03-23T14:01:39.351Z</time></trkpt><trkpt lat="45.3592117" lon="9.7524217"><ele>74.0</ele><time>2026-03-23T14:01:41.352Z</time></trkpt><trkpt lat="45.3592433" lon="9.75227"><ele>74.0</ele><time>2026-03-23T14:01:43.351Z</time></trkpt><trkpt lat="45.3592783" lon="9.7521183"><ele>74.2</ele><time>2026-03-23T14:01:45.351Z</time></trkpt><trkpt lat="45.3593167" lon="9.75197"><ele>74.4</ele><time>2026-03-23T14:01:47.351Z</time></trkpt><trkpt lat="45.35935" lon="9.7518283"><ele>74.6</ele><time>2026-03-23T14:01:49.351Z</time></trkpt><trkpt lat="45.3593817" lon="9.7516833"><ele>74.8</ele><time>2026-03-23T14:01:51.351Z</time></trkpt><trkpt lat="45.3594183" lon="9.75154"><ele>75.0</ele><time>2026-03-23T14:01:53.351Z</time></trkpt><trkpt lat="45.3594567" lon="9.7513933"><ele>75.0</ele><time>2026-03-23T14:01:55.351Z</time></trkpt><trkpt lat="45.3594917" lon="9.7512483"><ele>75.0</ele><time>2026-03-23T14:01:57.352Z</time></trkpt><trkpt lat="45.3595233" lon="9.7511033"><ele>75.0</ele><time>2026-03-23T14:01:59.352Z</time></trkpt><trkpt lat="45.3595567" lon="9.7509583"><ele>75.0</ele><time>2026-03-23T14:02:01.351Z</time></trkpt><trkpt lat="45.35959" lon="9.7508167"><ele>75.0</ele><time>2026-03-23T14:02:03.351Z</time></trkpt><trkpt lat="45.359625" lon="9.75068"><ele>75.0</ele><time>2026-03-23T14:02:05.351Z</time></trkpt><trkpt lat="45.3596617" lon="9.75055"><ele>75.0</ele><time>2026-03-23T14:02:07.351Z</time></trkpt><trkpt lat="45.3596917" lon="9.7504367"><ele>75.0</ele><time>2026-03-23T14:02:09.351Z</time></trkpt><trkpt lat="45.359715" lon="9.75031"><ele>75.0</ele><time>2026-03-23T14:02:11.352Z</time></trkpt><trkpt lat="45.35974" lon="9.75018"><ele>75.0</ele><time>2026-03-23T14:02:13.351Z</time></trkpt><trkpt lat="45.35977" lon="9.7500517"><ele>75.0</ele><time>2026-03-23T14:02:15.351Z</time></trkpt><trkpt lat="45.3598017" lon="9.7499167"><ele>75.0</ele><time>2026-03-23T14:02:17.351Z</time></trkpt><trkpt lat="45.359835" lon="9.7497717"><ele>75.0</ele><time>2026-03-23T14:02:19.351Z</time></trkpt><trkpt lat="45.3598717" lon="9.74962"><ele>75.0</ele><time>2026-03-23T14:02:21.351Z</time></trkpt><trkpt lat="45.3599017" lon="9.7494667"><ele>75.0</ele><time>2026-03-23T14:02:23.351Z</time></trkpt><trkpt lat="45.3599367" lon="9.749315"><ele>75.0</ele><time>2026-03-23T14:02:25.351Z</time></trkpt><trkpt lat="45.3599733" lon="9.74916"><ele>75.0</ele><time>2026-03-23T14:02:27.351Z</time></trkpt><trkpt lat="45.360005" lon="9.749"><ele>75.0</ele><time>2026-03-23T14:02:29.351Z</time></trkpt><trkpt lat="45.36004" lon="9.7488467"><ele>75.0</ele><time>2026-03-23T14:02:31.351Z</time></trkpt><trkpt lat="45.36008" lon="9.7486933"><ele>75.4</ele><time>2026-03-23T14:02:33.351Z</time></trkpt><trkpt lat="45.36012" lon="9.7485417"><ele>75.8</ele><time>2026-03-23T14:02:35.351Z</time></trkpt><trkpt lat="45.3601567" lon="9.7483917"><ele>76.2</ele><time>2026-03-23T14:02:37.352Z</time></trkpt><trkpt lat="45.360195" lon="9.7482417"><ele>76.6</ele><time>2026-03-23T14:02:39.351Z</time></trkpt><trkpt lat="45.36023" lon="9.748095"><ele>77.0</ele><time>2026-03-23T14:02:41.351Z</time></trkpt><trkpt lat="45.3602683" lon="9.7479433"><ele>77.0</ele><time>2026-03-23T14:02:43.352Z</time></trkpt><trkpt lat="45.3603017" lon="9.7477933"><ele>77.0</ele><time>2026-03-23T14:02:45.351Z</time></trkpt><trkpt lat="45.3603317" lon="9.7476467"><ele>77.0</ele><time>2026-03-23T14:02:47.351Z</time></trkpt><trkpt lat="45.3603667" lon="9.7474967"><ele>77.0</ele><time>2026-03-23T14:02:49.352Z</time></trkpt><trkpt lat="45.3604083" lon="9.74735"><ele>77.0</ele><time>2026-03-23T14:02:51.351Z</time></trkpt><trkpt lat="45.3604483" lon="9.7472017"><ele>76.83333333333334</ele><time>2026-03-23T14:02:53.351Z</time></trkpt><trkpt lat="45.3604833" lon="9.747065"><ele>76.66666666666667</ele><time>2026-03-23T14:02:55.351Z</time></trkpt><trkpt lat="45.3605183" lon="9.7469417"><ele>76.5</ele><time>2026-03-23T14:02:57.351Z</time></trkpt><trkpt lat="45.3605367" lon="9.7468333"><ele>76.33333333333333</ele><time>2026-03-23T14:02:59.352Z</time></trkpt><trkpt lat="45.3605583" lon="9.7467283"><ele>76.16666666666666</ele><time>2026-03-23T14:03:01.352Z</time></trkpt><trkpt lat="45.3605817" lon="9.746605"><ele>76.0</ele><time>2026-03-23T14:03:03.352Z</time></trkpt><trkpt lat="45.360605" lon="9.746475"><ele>75.39999999999999</ele><time>2026-03-23T14:03:05.351Z</time></trkpt><trkpt lat="45.360635" lon="9.7463433"><ele>74.8</ele><time>2026-03-23T14:03:07.352Z</time></trkpt><trkpt lat="45.3606617" lon="9.74621"><ele>74.19999999999999</ele><time>2026-03-23T14:03:09.352Z</time></trkpt><trkpt lat="45.36069" lon="9.74607"><ele>73.6</ele><time>2026-03-23T14:03:11.351Z</time></trkpt><trkpt lat="45.360715" lon="9.7459233"><ele>73.0</ele><time>2026-03-23T14:03:13.352Z</time></trkpt><trkpt lat="45.3607467" lon="9.74577"><ele>73.0</ele><time>2026-03-23T14:03:15.352Z</time></trkpt><trkpt lat="45.3607767" lon="9.74561"><ele>73.0</ele><time>2026-03-23T14:03:17.351Z</time></trkpt><trkpt lat="45.3608117" lon="9.745455"><ele>73.0</ele><time>2026-03-23T14:03:19.351Z</time></trkpt><trkpt lat="45.3608483" lon="9.7453"><ele>73.0</ele><time>2026-03-23T14:03:21.351Z</time></trkpt><trkpt lat="45.36088" lon="9.7451433"><ele>73.75</ele><time>2026-03-23T14:03:23.351Z</time></trkpt><trkpt lat="45.3609183" lon="9.74499"><ele>74.5</ele><time>2026-03-23T14:03:25.351Z</time></trkpt><trkpt lat="45.3609533" lon="9.7448283"><ele>75.25</ele><time>2026-03-23T14:03:27.351Z</time></trkpt><trkpt lat="45.360995" lon="9.74467"><ele>76.0</ele><time>2026-03-23T14:03:29.351Z</time></trkpt><trkpt lat="45.36104" lon="9.744515"><ele>76.0</ele><time>2026-03-23T14:03:31.352Z</time></trkpt><trkpt lat="45.361075" lon="9.744365"><ele>76.0</ele><time>2026-03-23T14:03:33.351Z</time></trkpt><trkpt lat="45.3611117" lon="9.7442233"><ele>76.0</ele><time>2026-03-23T14:03:35.352Z</time></trkpt><trkpt lat="45.3611433" lon="9.74408"><ele>76.0</ele><time>2026-03-23T14:03:37.351Z</time></trkpt><trkpt lat="45.3611783" lon="9.743935"><ele>76.0</ele><time>2026-03-23T14:03:39.352Z</time></trkpt><trkpt lat="45.361215" lon="9.7437767"><ele>76.0</ele><time>2026-03-23T14:03:41.351Z</time></trkpt><trkpt lat="45.361255" lon="9.7436233"><ele>76.0</ele><time>2026-03-23T14:03:43.352Z</time></trkpt><trkpt lat="45.361295" lon="9.743475"><ele>76.0</ele><time>2026-03-23T14:03:45.352Z</time></trkpt><trkpt lat="45.3613383" lon="9.74334"><ele>76.0</ele><time>2026-03-23T14:03:47.351Z</time></trkpt><trkpt lat="45.36136" lon="9.7432167"><ele>76.0</ele><time>2026-03-23T14:03:49.351Z</time></trkpt><trkpt lat="45.361385" lon="9.7430983"><ele>76.0</ele><time>2026-03-23T14:03:51.351Z</time></trkpt><trkpt lat="45.361415" lon="9.7429733"><ele>76.0</ele><time>2026-03-23T14:03:53.351Z</time></trkpt><trkpt lat="45.3614433" lon="9.7428317"><ele>76.0</ele><time>2026-03-23T14:03:55.352Z</time></trkpt><trkpt lat="45.3614733" lon="9.7426967"><ele>76.0</ele><time>2026-03-23T14:03:57.351Z</time></trkpt><trkpt lat="45.3615067" lon="9.7425583"><ele>76.0</ele><time>2026-03-23T14:03:59.351Z</time></trkpt><trkpt lat="45.36154" lon="9.7424133"><ele>75.75</ele><time>2026-03-23T14:04:01.351Z</time></trkpt><trkpt lat="45.36158" lon="9.7422633"><ele>75.5</ele><time>2026-03-23T14:04:03.351Z</time></trkpt><trkpt lat="45.3616183" lon="9.7421083"><ele>75.25</ele><time>2026-03-23T14:04:05.351Z</time></trkpt><trkpt lat="45.3616633" lon="9.741955"><ele>75.0</ele><time>2026-03-23T14:04:07.352Z</time></trkpt><trkpt lat="45.3617083" lon="9.7418017"><ele>74.8</ele><time>2026-03-23T14:04:09.351Z</time></trkpt><trkpt lat="45.361755" lon="9.7416583"><ele>74.6</ele><time>2026-03-23T14:04:11.352Z</time></trkpt><trkpt lat="45.3618017" lon="9.741525"><ele>74.4</ele><time>2026-03-23T14:04:13.351Z</time></trkpt><trkpt lat="45.3618417" lon="9.7414083"><ele>74.2</ele><time>2026-03-23T14:04:15.351Z</time></trkpt><trkpt lat="45.36188" lon="9.7413017"><ele>74.0</ele><time>2026-03-23T14:04:17.351Z</time></trkpt><trkpt lat="45.3619033" lon="9.7412167"><ele>74.0</ele><time>2026-03-23T14:04:19.351Z</time></trkpt><trkpt lat="45.3619217" lon="9.7410917"><ele>74.0</ele><time>2026-03-23T14:04:22.351Z</time></trkpt><trkpt lat="45.3619367" lon="9.7409833"><ele>74.0</ele><time>2026-03-23T14:04:24.351Z</time></trkpt><trkpt lat="45.361955" lon="9.7408567"><ele>74.0</ele><time>2026-03-23T14:04:26.351Z</time></trkpt><trkpt lat="45.3619917" lon="9.74064"><ele>74.0</ele><time>2026-03-23T14:04:29.351Z</time></trkpt><trkpt lat="45.3620217" lon="9.7404867"><ele>73.8</ele><time>2026-03-23T14:04:31.351Z</time></trkpt><trkpt lat="45.362055" lon="9.7403383"><ele>73.60000000000001</ele><time>2026-03-23T14:04:33.351Z</time></trkpt><trkpt lat="45.36209" lon="9.7401883"><ele>73.4</ele><time>2026-03-23T14:04:35.352Z</time></trkpt><trkpt lat="45.3621267" lon="9.7400417"><ele>73.2</ele><time>2026-03-23T14:04:37.352Z</time></trkpt><trkpt lat="45.3621583" lon="9.7398917"><ele>73.0</ele><time>2026-03-23T14:04:39.351Z</time></trkpt><trkpt lat="45.36219" lon="9.73974"><ele>73.6</ele><time>2026-03-23T14:04:41.351Z</time></trkpt><trkpt lat="45.3622283" lon="9.7395883"><ele>74.19999999999999</ele><time>2026-03-23T14:04:43.351Z</time></trkpt><trkpt lat="45.3622633" lon="9.739435"><ele>74.8</ele><time>2026-03-23T14:04:45.352Z</time></trkpt><trkpt lat="45.3622967" lon="9.7392867"><ele>75.39999999999999</ele><time>2026-03-23T14:04:47.352Z</time></trkpt><trkpt lat="45.3623233" lon="9.73913"><ele>76.0</ele><time>2026-03-23T14:04:49.351Z</time></trkpt><trkpt lat="45.362355" lon="9.738975"><ele>76.0</ele><time>2026-03-23T14:04:51.352Z</time></trkpt><trkpt lat="45.3623817" lon="9.7388217"><ele>76.0</ele><time>2026-03-23T14:04:53.351Z</time></trkpt><trkpt lat="45.362415" lon="9.7386683"><ele>76.0</ele><time>2026-03-23T14:04:55.351Z</time></trkpt><trkpt lat="45.3624533" lon="9.7385133"><ele>76.0</ele><time>2026-03-23T14:04:57.351Z</time></trkpt><trkpt lat="45.3624917" lon="9.73836"><ele>75.75</ele><time>2026-03-23T14:04:59.351Z</time></trkpt><trkpt lat="45.3625283" lon="9.738215"><ele>75.5</ele><time>2026-03-23T14:05:01.352Z</time></trkpt><trkpt lat="45.3625667" lon="9.7380667"><ele>75.25</ele><time>2026-03-23T14:05:03.351Z</time></trkpt><trkpt lat="45.3626117" lon="9.7379167"><ele>75.0</ele><time>2026-03-23T14:05:05.352Z</time></trkpt><trkpt lat="45.362655" lon="9.7377633"><ele>75.25</ele><time>2026-03-23T14:05:07.352Z</time></trkpt><trkpt lat="45.3626983" lon="9.7376133"><ele>75.5</ele><time>2026-03-23T14:05:09.352Z</time></trkpt><trkpt lat="45.3627433" lon="9.73746"><ele>75.75</ele><time>2026-03-23T14:05:11.352Z</time></trkpt><trkpt lat="45.36278" lon="9.7373083"><ele>76.0</ele><time>2026-03-23T14:05:13.351Z</time></trkpt><trkpt lat="45.36281" lon="9.7371533"><ele>76.0</ele><time>2026-03-23T14:05:15.351Z</time></trkpt><trkpt lat="45.3628383" lon="9.7370033"><ele>76.0</ele><time>2026-03-23T14:05:17.351Z</time></trkpt><trkpt lat="45.362875" lon="9.7368483"><ele>76.0</ele><time>2026-03-23T14:05:19.351Z</time></trkpt><trkpt lat="45.36291" lon="9.7366917"><ele>76.0</ele><time>2026-03-23T14:05:21.351Z</time></trkpt><trkpt lat="45.3629433" lon="9.7365383"><ele>76.0</ele><time>2026-03-23T14:05:23.351Z</time></trkpt><trkpt lat="45.3629733" lon="9.7363917"><ele>76.0</ele><time>2026-03-23T14:05:25.351Z</time></trkpt><trkpt lat="45.36301" lon="9.7362483"><ele>76.0</ele><time>2026-03-23T14:05:27.351Z</time></trkpt><trkpt lat="45.363045" lon="9.7361"><ele>76.0</ele><time>2026-03-23T14:05:29.351Z</time></trkpt><trkpt lat="45.36308" lon="9.7359517"><ele>76.0</ele><time>2026-03-23T14:05:31.351Z</time></trkpt><trkpt lat="45.3631133" lon="9.7358117"><ele>76.0</ele><time>2026-03-23T14:05:33.351Z</time></trkpt><trkpt lat="45.363145" lon="9.7356683"><ele>76.0</ele><time>2026-03-23T14:05:35.351Z</time></trkpt><trkpt lat="45.363185" lon="9.7355233"><ele>76.0</ele><time>2026-03-23T14:05:37.352Z</time></trkpt><trkpt lat="45.36322" lon="9.7353717"><ele>76.0</ele><time>2026-03-23T14:05:39.351Z</time></trkpt><trkpt lat="45.363255" lon="9.735225"><ele>76.0</ele><time>2026-03-23T14:05:41.351Z</time></trkpt><trkpt lat="45.3632883" lon="9.7350783"><ele>76.0</ele><time>2026-03-23T14:05:43.351Z</time></trkpt><trkpt lat="45.3633233" lon="9.734935"><ele>76.0</ele><time>2026-03-23T14:05:45.352Z</time></trkpt><trkpt lat="45.3633567" lon="9.73479"><ele>76.0</ele><time>2026-03-23T14:05:47.351Z</time></trkpt><trkpt lat="45.3633933" lon="9.7346383"><ele>76.0</ele><time>2026-03-23T14:05:49.351Z</time></trkpt><trkpt lat="45.3634267" lon="9.734495"><ele>76.0</ele><time>2026-03-23T14:05:51.351Z</time></trkpt><trkpt lat="45.3634617" lon="9.7343567"><ele>76.0</ele><time>2026-03-23T14:05:53.351Z</time></trkpt><trkpt lat="45.3634983" lon="9.7342083"><ele>76.0</ele><time>2026-03-23T14:05:55.352Z</time></trkpt><trkpt lat="45.3635283" lon="9.7340567"><ele>76.0</ele><time>2026-03-23T14:05:57.351Z</time></trkpt><trkpt lat="45.3635617" lon="9.733915"><ele>76.0</ele><time>2026-03-23T14:05:59.352Z</time></trkpt><trkpt lat="45.3635983" lon="9.7337683"><ele>76.0</ele><time>2026-03-23T14:06:01.351Z</time></trkpt><trkpt lat="45.363635" lon="9.73363"><ele>76.0</ele><time>2026-03-23T14:06:03.352Z</time></trkpt><trkpt lat="45.3636733" lon="9.73349"><ele>76.0</ele><time>2026-03-23T14:06:05.352Z</time></trkpt><trkpt lat="45.363715" lon="9.733365"><ele>76.0</ele><time>2026-03-23T14:06:07.352Z</time></trkpt><trkpt lat="45.3637483" lon="9.733255"><ele>76.0</ele><time>2026-03-23T14:06:09.352Z</time></trkpt><trkpt lat="45.3637783" lon="9.7331533"><ele>76.0</ele><time>2026-03-23T14:06:11.351Z</time></trkpt><trkpt lat="45.3638067" lon="9.7330617"><ele>76.0</ele><time>2026-03-23T14:06:13.351Z</time></trkpt><trkpt lat="45.363835" lon="9.7329433"><ele>76.0</ele><time>2026-03-23T14:06:16.351Z</time></trkpt><trkpt lat="45.3638433" lon="9.7328417"><ele>76.0</ele><time>2026-03-23T14:06:18.351Z</time></trkpt><trkpt lat="45.3638683" lon="9.7327067"><ele>76.0</ele><time>2026-03-23T14:06:20.351Z</time></trkpt><trkpt lat="45.363895" lon="9.7325667"><ele>76.0</ele><time>2026-03-23T14:06:22.352Z</time></trkpt><trkpt lat="45.36392" lon="9.7324217"><ele>76.0</ele><time>2026-03-23T14:06:24.352Z</time></trkpt><trkpt lat="45.3639467" lon="9.7322883"><ele>76.0</ele><time>2026-03-23T14:06:26.351Z</time></trkpt><trkpt lat="45.3639733" lon="9.732155"><ele>76.0</ele><time>2026-03-23T14:06:28.352Z</time></trkpt><trkpt lat="45.3640033" lon="9.7320217"><ele>76.0</ele><time>2026-03-23T14:06:30.352Z</time></trkpt><trkpt lat="45.36403" lon="9.7318833"><ele>76.0</ele><time>2026-03-23T14:06:32.352Z</time></trkpt><trkpt lat="45.3640667" lon="9.7317433"><ele>76.0</ele><time>2026-03-23T14:06:34.352Z</time></trkpt><trkpt lat="45.3640983" lon="9.7316"><ele>75.8</ele><time>2026-03-23T14:06:36.352Z</time></trkpt><trkpt lat="45.3641317" lon="9.731455"><ele>75.6</ele><time>2026-03-23T14:06:38.351Z</time></trkpt><trkpt lat="45.3641667" lon="9.7313133"><ele>75.4</ele><time>2026-03-23T14:06:40.351Z</time></trkpt><trkpt lat="45.3642017" lon="9.7311717"><ele>75.2</ele><time>2026-03-23T14:06:42.351Z</time></trkpt><trkpt lat="45.364235" lon="9.73103"><ele>75.0</ele><time>2026-03-23T14:06:44.351Z</time></trkpt><trkpt lat="45.3642717" lon="9.73089"><ele>74.8</ele><time>2026-03-23T14:06:46.351Z</time></trkpt><trkpt lat="45.3643033" lon="9.730755"><ele>74.6</ele><time>2026-03-23T14:06:48.351Z</time></trkpt><trkpt lat="45.36433" lon="9.73063"><ele>74.4</ele><time>2026-03-23T14:06:50.352Z</time></trkpt><trkpt lat="45.3643533" lon="9.7305133"><ele>74.2</ele><time>2026-03-23T14:06:52.351Z</time></trkpt><trkpt lat="45.3643817" lon="9.7303867"><ele>74.0</ele><time>2026-03-23T14:06:54.351Z</time></trkpt><trkpt lat="45.3644183" lon="9.73025"><ele>73.8</ele><time>2026-03-23T14:06:56.351Z</time></trkpt><trkpt lat="45.3644517" lon="9.7301133"><ele>73.60000000000001</ele><time>2026-03-23T14:06:58.351Z</time></trkpt><trkpt lat="45.364485" lon="9.7299733"><ele>73.4</ele><time>2026-03-23T14:07:00.351Z</time></trkpt><trkpt lat="45.3645183" lon="9.72983"><ele>73.2</ele><time>2026-03-23T14:07:02.351Z</time></trkpt><trkpt lat="45.3645533" lon="9.7296867"><ele>73.0</ele><time>2026-03-23T14:07:04.351Z</time></trkpt><trkpt lat="45.3645867" lon="9.7295367"><ele>73.2</ele><time>2026-03-23T14:07:06.352Z</time></trkpt><trkpt lat="45.36462" lon="9.7293867"><ele>73.4</ele><time>2026-03-23T14:07:08.352Z</time></trkpt><trkpt lat="45.364655" lon="9.7292367"><ele>73.60000000000001</ele><time>2026-03-23T14:07:10.351Z</time></trkpt><trkpt lat="45.3646883" lon="9.7290933"><ele>73.8</ele><time>2026-03-23T14:07:12.351Z</time></trkpt><trkpt lat="45.3647233" lon="9.7289517"><ele>74.0</ele><time>2026-03-23T14:07:14.351Z</time></trkpt><trkpt lat="45.364755" lon="9.7288083"><ele>74.2</ele><time>2026-03-23T14:07:16.351Z</time></trkpt><trkpt lat="45.3647933" lon="9.7286617"><ele>74.4</ele><time>2026-03-23T14:07:18.352Z</time></trkpt><trkpt lat="45.3648267" lon="9.7285117"><ele>74.6</ele><time>2026-03-23T14:07:20.351Z</time></trkpt><trkpt lat="45.3648633" lon="9.7283633"><ele>74.8</ele><time>2026-03-23T14:07:22.352Z</time></trkpt><trkpt lat="45.3648983" lon="9.7282183"><ele>75.0</ele><time>2026-03-23T14:07:24.351Z</time></trkpt><trkpt lat="45.3649333" lon="9.7280733"><ele>75.0</ele><time>2026-03-23T14:07:26.351Z</time></trkpt><trkpt lat="45.36497" lon="9.7279217"><ele>75.0</ele><time>2026-03-23T14:07:28.351Z</time></trkpt><trkpt lat="45.3650083" lon="9.72777"><ele>75.0</ele><time>2026-03-23T14:07:30.351Z</time></trkpt><trkpt lat="45.36505" lon="9.727615"><ele>75.0</ele><time>2026-03-23T14:07:32.351Z</time></trkpt><trkpt lat="45.365085" lon="9.7274617"><ele>74.8</ele><time>2026-03-23T14:07:34.351Z</time></trkpt><trkpt lat="45.36512" lon="9.72731"><ele>74.6</ele><time>2026-03-23T14:07:36.351Z</time></trkpt><trkpt lat="45.36515" lon="9.7271733"><ele>74.4</ele><time>2026-03-23T14:07:38.351Z</time></trkpt><trkpt lat="45.3651833" lon="9.727045"><ele>74.2</ele><time>2026-03-23T14:07:40.352Z</time></trkpt><trkpt lat="45.3652133" lon="9.7269267"><ele>74.0</ele><time>2026-03-23T14:07:42.352Z</time></trkpt><trkpt lat="45.3652417" lon="9.7268067"><ele>73.60000000000001</ele><time>2026-03-23T14:07:44.352Z</time></trkpt><trkpt lat="45.36527" lon="9.7266767"><ele>73.2</ele><time>2026-03-23T14:07:46.351Z</time></trkpt><trkpt lat="45.3652983" lon="9.7265383"><ele>72.80000000000001</ele><time>2026-03-23T14:07:48.351Z</time></trkpt><trkpt lat="45.36533" lon="9.726395"><ele>72.4</ele><time>2026-03-23T14:07:50.352Z</time></trkpt><trkpt lat="45.365365" lon="9.7262533"><ele>72.0</ele><time>2026-03-23T14:07:52.351Z</time></trkpt><trkpt lat="45.3653983" lon="9.72611"><ele>72.0</ele><time>2026-03-23T14:07:54.352Z</time></trkpt><trkpt lat="45.36544" lon="9.7259617"><ele>72.0</ele><time>2026-03-23T14:07:56.351Z</time></trkpt><trkpt lat="45.3654733" lon="9.7258167"><ele>72.0</ele><time>2026-03-23T14:07:58.351Z</time></trkpt><trkpt lat="45.3655067" lon="9.7256667"><ele>72.0</ele><time>2026-03-23T14:08:00.352Z</time></trkpt><trkpt lat="45.3655417" lon="9.72552"><ele>72.0</ele><time>2026-03-23T14:08:02.351Z</time></trkpt><trkpt lat="45.3655767" lon="9.725375"><ele>72.0</ele><time>2026-03-23T14:08:04.351Z</time></trkpt><trkpt lat="45.3656117" lon="9.72523"><ele>72.0</ele><time>2026-03-23T14:08:06.351Z</time></trkpt><trkpt lat="45.3656483" lon="9.72508"><ele>72.0</ele><time>2026-03-23T14:08:08.351Z</time></trkpt><trkpt lat="45.3656833" lon="9.7249367"><ele>72.0</ele><time>2026-03-23T14:08:10.351Z</time></trkpt><trkpt lat="45.3657167" lon="9.7247867"><ele>72.0</ele><time>2026-03-23T14:08:12.352Z</time></trkpt><trkpt lat="45.3657533" lon="9.724635"><ele>72.0</ele><time>2026-03-23T14:08:14.351Z</time></trkpt><trkpt lat="45.3657883" lon="9.72448"><ele>72.0</ele><time>2026-03-23T14:08:16.351Z</time></trkpt><trkpt lat="45.3658167" lon="9.7243283"><ele>72.0</ele><time>2026-03-23T14:08:18.351Z</time></trkpt><trkpt lat="45.36585" lon="9.7241867"><ele>72.0</ele><time>2026-03-23T14:08:20.351Z</time></trkpt><trkpt lat="45.365885" lon="9.724035"><ele>72.0</ele><time>2026-03-23T14:08:22.352Z</time></trkpt><trkpt lat="45.3659233" lon="9.7238817"><ele>72.0</ele><time>2026-03-23T14:08:24.351Z</time></trkpt><trkpt lat="45.3659667" lon="9.7237317"><ele>72.0</ele><time>2026-03-23T14:08:26.351Z</time></trkpt><trkpt lat="45.3660067" lon="9.7235833"><ele>72.0</ele><time>2026-03-23T14:08:28.351Z</time></trkpt><trkpt lat="45.3660417" lon="9.7234367"><ele>72.0</ele><time>2026-03-23T14:08:30.352Z</time></trkpt><trkpt lat="45.3660833" lon="9.7232867"><ele>72.0</ele><time>2026-03-23T14:08:32.352Z</time></trkpt><trkpt lat="45.3661217" lon="9.7231383"><ele>72.2</ele><time>2026-03-23T14:08:34.352Z</time></trkpt><trkpt lat="45.36616" lon="9.72299"><ele>72.4</ele><time>2026-03-23T14:08:36.352Z</time></trkpt><trkpt lat="45.366195" lon="9.722845"><ele>72.6</ele><time>2026-03-23T14:08:38.351Z</time></trkpt><trkpt lat="45.3662317" lon="9.7226933"><ele>72.8</ele><time>2026-03-23T14:08:40.351Z</time></trkpt><trkpt lat="45.3662633" lon="9.72254"><ele>73.0</ele><time>2026-03-23T14:08:42.351Z</time></trkpt><trkpt lat="45.3662983" lon="9.7223917"><ele>73.0</ele><time>2026-03-23T14:08:44.351Z</time></trkpt><trkpt lat="45.3663317" lon="9.722245"><ele>73.0</ele><time>2026-03-23T14:08:46.351Z</time></trkpt><trkpt lat="45.366365" lon="9.7220967"><ele>73.0</ele><time>2026-03-23T14:08:48.352Z</time></trkpt><trkpt lat="45.3663983" lon="9.7219417"><ele>73.0</ele><time>2026-03-23T14:08:50.351Z</time></trkpt><trkpt lat="45.3664283" lon="9.7217867"><ele>73.0</ele><time>2026-03-23T14:08:52.351Z</time></trkpt><trkpt lat="45.3664667" lon="9.7216417"><ele>73.0</ele><time>2026-03-23T14:08:54.351Z</time></trkpt><trkpt lat="45.3665033" lon="9.7214983"><ele>73.0</ele><time>2026-03-23T14:08:56.351Z</time></trkpt><trkpt lat="45.3665433" lon="9.72135"><ele>73.0</ele><time>2026-03-23T14:08:58.351Z</time></trkpt><trkpt lat="45.3665817" lon="9.721205"><ele>73.0</ele><time>2026-03-23T14:09:00.351Z</time></trkpt><trkpt lat="45.3666167" lon="9.7210583"><ele>73.0</ele><time>2026-03-23T14:09:02.351Z</time></trkpt><trkpt lat="45.3666567" lon="9.720905"><ele>73.0</ele><time>2026-03-23T14:09:04.351Z</time></trkpt><trkpt lat="45.3666933" lon="9.720755"><ele>73.0</ele><time>2026-03-23T14:09:06.351Z</time></trkpt><trkpt lat="45.36673" lon="9.7206033"><ele>73.0</ele><time>2026-03-23T14:09:08.351Z</time></trkpt><trkpt lat="45.3667667" lon="9.7204567"><ele>73.0</ele><time>2026-03-23T14:09:10.351Z</time></trkpt><trkpt lat="45.366805" lon="9.7203117"><ele>73.0</ele><time>2026-03-23T14:09:12.351Z</time></trkpt><trkpt lat="45.366835" lon="9.7201733"><ele>72.8</ele><time>2026-03-23T14:09:14.352Z</time></trkpt><trkpt lat="45.3668633" lon="9.720045"><ele>72.6</ele><time>2026-03-23T14:09:16.351Z</time></trkpt><trkpt lat="45.3668983" lon="9.71992"><ele>72.4</ele><time>2026-03-23T14:09:18.352Z</time></trkpt><trkpt lat="45.3669317" lon="9.7197933"><ele>72.2</ele><time>2026-03-23T14:09:20.351Z</time></trkpt><trkpt lat="45.3669633" lon="9.7196683"><ele>72.0</ele><time>2026-03-23T14:09:22.351Z</time></trkpt><trkpt lat="45.3669733" lon="9.7195417"><ele>72.0</ele><time>2026-03-23T14:09:24.352Z</time></trkpt><trkpt lat="45.3669983" lon="9.7194333"><ele>72.0</ele><time>2026-03-23T14:09:26.351Z</time></trkpt><trkpt lat="45.36702" lon="9.71934"><ele>72.0</ele><time>2026-03-23T14:09:28.351Z</time></trkpt><trkpt lat="45.3670417" lon="9.7192517"><ele>72.0</ele><time>2026-03-23T14:09:31.351Z</time></trkpt><trkpt lat="45.36706" lon="9.7191517"><ele>72.0</ele><time>2026-03-23T14:09:56.351Z</time></trkpt><trkpt lat="45.3670933" lon="9.71904"><ele>72.0</ele><time>2026-03-23T14:09:59.352Z</time></trkpt><trkpt lat="45.3671233" lon="9.7189283"><ele>72.16666666666667</ele><time>2026-03-23T14:10:01.351Z</time></trkpt><trkpt lat="45.36715" lon="9.7188083"><ele>72.33333333333333</ele><time>2026-03-23T14:10:03.351Z</time></trkpt><trkpt lat="45.3671683" lon="9.7186883"><ele>72.5</ele><time>2026-03-23T14:10:05.352Z</time></trkpt><trkpt lat="45.3671733" lon="9.7185767"><ele>72.66666666666666</ele><time>2026-03-23T14:10:07.351Z</time></trkpt><trkpt lat="45.3672133" lon="9.7184867"><ele>72.83333333333333</ele><time>2026-03-23T14:10:09.352Z</time></trkpt><trkpt lat="45.3672533" lon="9.7183783"><ele>73.0</ele><time>2026-03-23T14:10:11.351Z</time></trkpt><trkpt lat="45.3672833" lon="9.7182483"><ele>73.2</ele><time>2026-03-23T14:10:13.351Z</time></trkpt><trkpt lat="45.3673183" lon="9.71811"><ele>73.4</ele><time>2026-03-23T14:10:15.351Z</time></trkpt><trkpt lat="45.3673517" lon="9.7179733"><ele>73.60000000000001</ele><time>2026-03-23T14:10:17.351Z</time></trkpt><trkpt lat="45.3673833" lon="9.7178317"><ele>73.8</ele><time>2026-03-23T14:10:19.351Z</time></trkpt><trkpt lat="45.36742" lon="9.71769"><ele>74.0</ele><time>2026-03-23T14:10:21.351Z</time></trkpt><trkpt lat="45.36745" lon="9.717545"><ele>74.0</ele><time>2026-03-23T14:10:23.351Z</time></trkpt><trkpt lat="45.3674817" lon="9.7173983"><ele>74.0</ele><time>2026-03-23T14:10:25.352Z</time></trkpt><trkpt lat="45.36751" lon="9.7172533"><ele>74.0</ele><time>2026-03-23T14:10:27.351Z</time></trkpt><trkpt lat="45.367545" lon="9.7171133"><ele>74.0</ele><time>2026-03-23T14:10:29.351Z</time></trkpt><trkpt lat="45.36758" lon="9.7169783"><ele>74.0</ele><time>2026-03-23T14:10:31.352Z</time></trkpt><trkpt lat="45.3676133" lon="9.7168433"><ele>74.5</ele><time>2026-03-23T14:10:33.351Z</time></trkpt><trkpt lat="45.3676483" lon="9.71671"><ele>75.0</ele><time>2026-03-23T14:10:35.351Z</time></trkpt><trkpt lat="45.3676767" lon="9.7165833"><ele>75.5</ele><time>2026-03-23T14:10:37.351Z</time></trkpt><trkpt lat="45.3676983" lon="9.7164767"><ele>76.0</ele><time>2026-03-23T14:10:39.351Z</time></trkpt><trkpt lat="45.367705" lon="9.7163867"><ele>76.5</ele><time>2026-03-23T14:10:42.351Z</time></trkpt><trkpt lat="45.367725" lon="9.7162733"><ele>77.0</ele><time>2026-03-23T14:10:45.351Z</time></trkpt><trkpt lat="45.36775" lon="9.7161683"><ele>77.2</ele><time>2026-03-23T14:10:47.351Z</time></trkpt><trkpt lat="45.3677783" lon="9.7160483"><ele>77.4</ele><time>2026-03-23T14:10:49.351Z</time></trkpt><trkpt lat="45.3678083" lon="9.7159217"><ele>77.6</ele><time>2026-03-23T14:10:51.351Z</time></trkpt><trkpt lat="45.3678383" lon="9.7157883"><ele>77.8</ele><time>2026-03-23T14:10:53.351Z</time></trkpt><trkpt lat="45.3678717" lon="9.71565"><ele>78.0</ele><time>2026-03-23T14:10:55.35Z</time></trkpt><trkpt lat="45.367905" lon="9.7155117"><ele>78.0</ele><time>2026-03-23T14:10:57.35Z</time></trkpt><trkpt lat="45.3679367" lon="9.71537"><ele>78.0</ele><time>2026-03-23T14:10:59.35Z</time></trkpt><trkpt lat="45.3679667" lon="9.71523"><ele>78.0</ele><time>2026-03-23T14:11:01.35Z</time></trkpt><trkpt lat="45.3680017" lon="9.71509"><ele>78.0</ele><time>2026-03-23T14:11:03.35Z</time></trkpt><trkpt lat="45.3680383" lon="9.714945"><ele>78.0</ele><time>2026-03-23T14:11:05.35Z</time></trkpt><trkpt lat="45.3680733" lon="9.7148017"><ele>77.4</ele><time>2026-03-23T14:11:07.35Z</time></trkpt><trkpt lat="45.3681083" lon="9.7146583"><ele>76.8</ele><time>2026-03-23T14:11:09.35Z</time></trkpt><trkpt lat="45.3681433" lon="9.7145267"><ele>76.2</ele><time>2026-03-23T14:11:11.35Z</time></trkpt><trkpt lat="45.3681717" lon="9.71441"><ele>75.6</ele><time>2026-03-23T14:11:13.351Z</time></trkpt><trkpt lat="45.3681983" lon="9.71429"><ele>75.0</ele><time>2026-03-23T14:11:15.35Z</time></trkpt><trkpt lat="45.36823" lon="9.7141633"><ele>75.0</ele><time>2026-03-23T14:11:17.35Z</time></trkpt><trkpt lat="45.3682617" lon="9.7140267"><ele>75.0</ele><time>2026-03-23T14:11:19.35Z</time></trkpt><trkpt lat="45.3682933" lon="9.7138817"><ele>75.0</ele><time>2026-03-23T14:11:21.35Z</time></trkpt><trkpt lat="45.3683283" lon="9.7137333"><ele>75.0</ele><time>2026-03-23T14:11:23.351Z</time></trkpt><trkpt lat="45.3683633" lon="9.7135933"><ele>75.0</ele><time>2026-03-23T14:11:25.35Z</time></trkpt><trkpt lat="45.3683983" lon="9.7134583"><ele>75.0</ele><time>2026-03-23T14:11:27.351Z</time></trkpt><trkpt lat="45.36843" lon="9.71332"><ele>75.0</ele><time>2026-03-23T14:11:29.351Z</time></trkpt><trkpt lat="45.3684567" lon="9.7131783"><ele>75.0</ele><time>2026-03-23T14:11:31.35Z</time></trkpt><trkpt lat="45.36849" lon="9.7130367"><ele>75.0</ele><time>2026-03-23T14:11:33.35Z</time></trkpt><trkpt lat="45.3685217" lon="9.71289"><ele>75.0</ele><time>2026-03-23T14:11:35.35Z</time></trkpt><trkpt lat="45.3685567" lon="9.7127433"><ele>74.6</ele><time>2026-03-23T14:11:37.35Z</time></trkpt><trkpt lat="45.3685867" lon="9.7126017"><ele>74.2</ele><time>2026-03-23T14:11:39.35Z</time></trkpt><trkpt lat="45.3686183" lon="9.712465"><ele>73.8</ele><time>2026-03-23T14:11:41.35Z</time></trkpt><trkpt lat="45.36865" lon="9.7123217"><ele>73.4</ele><time>2026-03-23T14:11:43.351Z</time></trkpt><trkpt lat="45.3686783" lon="9.7121817"><ele>73.0</ele><time>2026-03-23T14:11:45.35Z</time></trkpt><trkpt lat="45.3687083" lon="9.7120467"><ele>73.0</ele><time>2026-03-23T14:11:47.35Z</time></trkpt><trkpt lat="45.3687467" lon="9.7119217"><ele>73.0</ele><time>2026-03-23T14:11:49.35Z</time></trkpt><trkpt lat="45.368775" lon="9.7117883"><ele>73.0</ele><time>2026-03-23T14:11:51.35Z</time></trkpt><trkpt lat="45.368805" lon="9.7116483"><ele>73.0</ele><time>2026-03-23T14:11:53.35Z</time></trkpt><trkpt lat="45.36884" lon="9.7115017"><ele>73.0</ele><time>2026-03-23T14:11:55.351Z</time></trkpt><trkpt lat="45.3688733" lon="9.7113583"><ele>73.4</ele><time>2026-03-23T14:11:57.351Z</time></trkpt><trkpt lat="45.368905" lon="9.7112267"><ele>73.8</ele><time>2026-03-23T14:11:59.35Z</time></trkpt><trkpt lat="45.36894" lon="9.7110967"><ele>74.2</ele><time>2026-03-23T14:12:01.35Z</time></trkpt><trkpt lat="45.3689717" lon="9.71096"><ele>74.6</ele><time>2026-03-23T14:12:03.35Z</time></trkpt><trkpt lat="45.3690033" lon="9.7108267"><ele>75.0</ele><time>2026-03-23T14:12:05.35Z</time></trkpt><trkpt lat="45.3690367" lon="9.7106883"><ele>75.16666666666667</ele><time>2026-03-23T14:12:07.35Z</time></trkpt><trkpt lat="45.3690717" lon="9.7105517"><ele>75.33333333333333</ele><time>2026-03-23T14:12:09.35Z</time></trkpt><trkpt lat="45.3691017" lon="9.710425"><ele>75.5</ele><time>2026-03-23T14:12:11.35Z</time></trkpt><trkpt lat="45.369145" lon="9.7103333"><ele>75.66666666666666</ele><time>2026-03-23T14:12:13.35Z</time></trkpt><trkpt lat="45.36917" lon="9.71023"><ele>75.83333333333333</ele><time>2026-03-23T14:12:15.35Z</time></trkpt><trkpt lat="45.36918" lon="9.710125"><ele>76.0</ele><time>2026-03-23T14:12:17.35Z</time></trkpt><trkpt lat="45.369195" lon="9.7100367"><ele>75.66666666666666</ele><time>2026-03-23T14:12:19.35Z</time></trkpt><trkpt lat="45.3692" lon="9.70994"><ele>75.33333333333333</ele><time>2026-03-23T14:12:21.35Z</time></trkpt><trkpt lat="45.36917" lon="9.709835"><ele>75.0</ele><time>2026-03-23T14:12:23.35Z</time></trkpt><trkpt lat="45.36914" lon="9.7097333"><ele>74.66666666666667</ele><time>2026-03-23T14:12:25.35Z</time></trkpt><trkpt lat="45.369115" lon="9.7096367"><ele>74.33333333333334</ele><time>2026-03-23T14:12:27.351Z</time></trkpt><trkpt lat="45.369095" lon="9.7095517"><ele>74.0</ele><time>2026-03-23T14:12:29.35Z</time></trkpt><trkpt lat="45.3690667" lon="9.7094217"><ele>74.0</ele><time>2026-03-23T14:12:32.35Z</time></trkpt><trkpt lat="45.3690883" lon="9.7093183"><ele>74.0</ele><time>2026-03-23T14:12:36.35Z</time></trkpt><trkpt lat="45.369125" lon="9.7092083"><ele>74.0</ele><time>2026-03-23T14:12:40.35Z</time></trkpt><trkpt lat="45.3691433" lon="9.7091067"><ele>74.0</ele><time>2026-03-23T14:12:42.351Z</time></trkpt><trkpt lat="45.3691467" lon="9.7089883"><ele>74.0</ele><time>2026-03-23T14:12:44.35Z</time></trkpt><trkpt lat="45.369145" lon="9.70885"><ele>74.0</ele><time>2026-03-23T14:12:46.351Z</time></trkpt><trkpt lat="45.3691333" lon="9.7087133"><ele>74.2</ele><time>2026-03-23T14:12:48.35Z</time></trkpt><trkpt lat="45.3691183" lon="9.7085617"><ele>74.4</ele><time>2026-03-23T14:12:50.35Z</time></trkpt><trkpt lat="45.369095" lon="9.7084183"><ele>74.6</ele><time>2026-03-23T14:12:52.35Z</time></trkpt><trkpt lat="45.3690583" lon="9.7082767"><ele>74.8</ele><time>2026-03-23T14:12:54.35Z</time></trkpt><trkpt lat="45.3690267" lon="9.708125"><ele>75.0</ele><time>2026-03-23T14:12:56.351Z</time></trkpt><trkpt lat="45.368995" lon="9.7079783"><ele>75.0</ele><time>2026-03-23T14:12:58.35Z</time></trkpt><trkpt lat="45.3689583" lon="9.7078383"><ele>75.0</ele><time>2026-03-23T14:13:00.351Z</time></trkpt><trkpt lat="45.368925" lon="9.7077017"><ele>75.0</ele><time>2026-03-23T14:13:02.351Z</time></trkpt><trkpt lat="45.3688933" lon="9.707565"><ele>75.0</ele><time>2026-03-23T14:13:04.35Z</time></trkpt><trkpt lat="45.3688583" lon="9.707415"><ele>75.0</ele><time>2026-03-23T14:13:06.35Z</time></trkpt><trkpt lat="45.3688217" lon="9.70726"><ele>75.0</ele><time>2026-03-23T14:13:08.351Z</time></trkpt><trkpt lat="45.36879" lon="9.70711"><ele>75.0</ele><time>2026-03-23T14:13:10.35Z</time></trkpt><trkpt lat="45.3687517" lon="9.70697"><ele>75.0</ele><time>2026-03-23T14:13:12.35Z</time></trkpt><trkpt lat="45.3687167" lon="9.70682"><ele>75.0</ele><time>2026-03-23T14:13:14.351Z</time></trkpt><trkpt lat="45.3686867" lon="9.7066667"><ele>75.0</ele><time>2026-03-23T14:13:16.35Z</time></trkpt><trkpt lat="45.3686517" lon="9.7065167"><ele>75.0</ele><time>2026-03-23T14:13:18.35Z</time></trkpt><trkpt lat="45.368615" lon="9.7063683"><ele>75.0</ele><time>2026-03-23T14:13:20.35Z</time></trkpt><trkpt lat="45.3685717" lon="9.70622"><ele>75.0</ele><time>2026-03-23T14:13:22.351Z</time></trkpt><trkpt lat="45.3685367" lon="9.70607"><ele>75.0</ele><time>2026-03-23T14:13:24.35Z</time></trkpt><trkpt lat="45.368505" lon="9.7059217"><ele>75.0</ele><time>2026-03-23T14:13:26.35Z</time></trkpt><trkpt lat="45.368475" lon="9.7057717"><ele>74.75</ele><time>2026-03-23T14:13:28.351Z</time></trkpt><trkpt lat="45.3684417" lon="9.7056133"><ele>74.5</ele><time>2026-03-23T14:13:30.351Z</time></trkpt><trkpt lat="45.3684083" lon="9.705455"><ele>74.25</ele><time>2026-03-23T14:13:32.35Z</time></trkpt><trkpt lat="45.3683733" lon="9.7052917"><ele>74.0</ele><time>2026-03-23T14:13:34.35Z</time></trkpt><trkpt lat="45.3683383" lon="9.7051317"><ele>73.5</ele><time>2026-03-23T14:13:36.35Z</time></trkpt><trkpt lat="45.368305" lon="9.7049717"><ele>73.0</ele><time>2026-03-23T14:13:38.35Z</time></trkpt><trkpt lat="45.3682717" lon="9.7048117"><ele>72.5</ele><time>2026-03-23T14:13:40.35Z</time></trkpt><trkpt lat="45.368235" lon="9.7046517"><ele>72.0</ele><time>2026-03-23T14:13:42.35Z</time></trkpt><trkpt lat="45.3681983" lon="9.704495"><ele>72.25</ele><time>2026-03-23T14:13:44.35Z</time></trkpt><trkpt lat="45.3681633" lon="9.7043333"><ele>72.5</ele><time>2026-03-23T14:13:46.351Z</time></trkpt><trkpt lat="45.3681283" lon="9.7041717"><ele>72.75</ele><time>2026-03-23T14:13:48.35Z</time></trkpt><trkpt lat="45.368095" lon="9.7040083"><ele>73.0</ele><time>2026-03-23T14:13:50.351Z</time></trkpt><trkpt lat="45.3680667" lon="9.703845"><ele>73.0</ele><time>2026-03-23T14:13:52.35Z</time></trkpt><trkpt lat="45.36805" lon="9.7036817"><ele>73.0</ele><time>2026-03-23T14:13:54.35Z</time></trkpt><trkpt lat="45.368025" lon="9.7035233"><ele>73.0</ele><time>2026-03-23T14:13:56.35Z</time></trkpt><trkpt lat="45.3680067" lon="9.7033683"><ele>73.0</ele><time>2026-03-23T14:13:58.35Z</time></trkpt><trkpt lat="45.367985" lon="9.7032133"><ele>73.2</ele><time>2026-03-23T14:14:00.351Z</time></trkpt><trkpt lat="45.367975" lon="9.703055"><ele>73.4</ele><time>2026-03-23T14:14:02.35Z</time></trkpt><trkpt lat="45.3679683" lon="9.702895"><ele>73.60000000000001</ele><time>2026-03-23T14:14:04.35Z</time></trkpt><trkpt lat="45.36796" lon="9.7027317"><ele>73.8</ele><time>2026-03-23T14:14:06.351Z</time></trkpt><trkpt lat="45.367955" lon="9.7025783"><ele>74.0</ele><time>2026-03-23T14:14:08.351Z</time></trkpt><trkpt lat="45.3679517" lon="9.70243"><ele>74.0</ele><time>2026-03-23T14:14:10.35Z</time></trkpt><trkpt lat="45.36795" lon="9.7022833"><ele>74.0</ele><time>2026-03-23T14:14:12.35Z</time></trkpt><trkpt lat="45.367955" lon="9.7021367"><ele>74.0</ele><time>2026-03-23T14:14:14.35Z</time></trkpt><trkpt lat="45.3679617" lon="9.7019817"><ele>74.0</ele><time>2026-03-23T14:14:16.351Z</time></trkpt><trkpt lat="45.3679733" lon="9.7018283"><ele>74.0</ele><time>2026-03-23T14:14:18.35Z</time></trkpt><trkpt lat="45.3679817" lon="9.7016783"><ele>74.0</ele><time>2026-03-23T14:14:20.351Z</time></trkpt><trkpt lat="45.3679883" lon="9.7015467"><ele>74.0</ele><time>2026-03-23T14:14:22.351Z</time></trkpt><trkpt lat="45.3679967" lon="9.701415"><ele>74.0</ele><time>2026-03-23T14:14:24.35Z</time></trkpt><trkpt lat="45.3679917" lon="9.7012667"><ele>74.0</ele><time>2026-03-23T14:14:26.35Z</time></trkpt><trkpt lat="45.3679883" lon="9.7010917"><ele>74.0</ele><time>2026-03-23T14:14:28.35Z</time></trkpt><trkpt lat="45.3679917" lon="9.7009983"><ele>73.57142857142857</ele><time>2026-03-23T14:14:29.35Z</time></trkpt><trkpt lat="45.367995" lon="9.7008933"><ele>73.14285714285714</ele><time>2026-03-23T14:14:30.35Z</time></trkpt><trkpt lat="45.3680033" lon="9.7007933"><ele>72.71428571428571</ele><time>2026-03-23T14:14:31.351Z</time></trkpt><trkpt lat="45.3680217" lon="9.7006917"><ele>72.28571428571428</ele><time>2026-03-23T14:14:32.35Z</time></trkpt><trkpt lat="45.3680483" lon="9.7005967"><ele>71.85714285714285</ele><time>2026-03-23T14:14:33.35Z</time></trkpt><trkpt lat="45.3680733" lon="9.7005117"><ele>71.42857142857143</ele><time>2026-03-23T14:14:34.35Z</time></trkpt><trkpt lat="45.3680933" lon="9.7004267"><ele>71.0</ele><time>2026-03-23T14:14:35.35Z</time></trkpt><trkpt lat="45.368125" lon="9.7002867"><ele>70.8</ele><time>2026-03-23T14:14:37.351Z</time></trkpt><trkpt lat="45.3681467" lon="9.7001383"><ele>70.6</ele><time>2026-03-23T14:14:39.35Z</time></trkpt><trkpt lat="45.3681767" lon="9.6999933"><ele>70.4</ele><time>2026-03-23T14:14:41.351Z</time></trkpt><trkpt lat="45.36819" lon="9.6998417"><ele>70.2</ele><time>2026-03-23T14:14:43.35Z</time></trkpt><trkpt lat="45.3681817" lon="9.69968"><ele>70.0</ele><time>2026-03-23T14:14:45.35Z</time></trkpt><trkpt lat="45.3681817" lon="9.69959"><ele>70.0</ele><time>2026-03-23T14:14:46.35Z</time></trkpt><trkpt lat="45.3681667" lon="9.6994233"><ele>70.0</ele><time>2026-03-23T14:14:48.351Z</time></trkpt><trkpt lat="45.3681033" lon="9.6992917"><ele>70.0</ele><time>2026-03-23T14:14:50.35Z</time></trkpt><trkpt lat="45.368015" lon="9.6992183"><ele>70.0</ele><time>2026-03-23T14:14:52.351Z</time></trkpt><trkpt lat="45.367955" lon="9.6991817"><ele>70.0</ele><time>2026-03-23T14:14:53.35Z</time></trkpt><trkpt lat="45.367835" lon="9.6991417"><ele>69.8</ele><time>2026-03-23T14:14:55.35Z</time></trkpt><trkpt lat="45.3677283" lon="9.6990983"><ele>69.6</ele><time>2026-03-23T14:14:57.35Z</time></trkpt><trkpt lat="45.36762" lon="9.69905"><ele>69.4</ele><time>2026-03-23T14:14:59.35Z</time></trkpt><trkpt lat="45.3675217" lon="9.6990017"><ele>69.2</ele><time>2026-03-23T14:15:01.35Z</time></trkpt><trkpt lat="45.3674183" lon="9.6989533"><ele>69.0</ele><time>2026-03-23T14:15:03.35Z</time></trkpt><trkpt lat="45.3673033" lon="9.6989217"><ele>69.2</ele><time>2026-03-23T14:15:05.351Z</time></trkpt><trkpt lat="45.36719" lon="9.6989"><ele>69.4</ele><time>2026-03-23T14:15:07.35Z</time></trkpt><trkpt lat="45.36708" lon="9.698885"><ele>69.6</ele><time>2026-03-23T14:15:09.35Z</time></trkpt><trkpt lat="45.3670167" lon="9.6988633"><ele>69.8</ele><time>2026-03-23T14:15:10.35Z</time></trkpt><trkpt lat="45.3669" lon="9.698835"><ele>70.0</ele><time>2026-03-23T14:15:12.35Z</time></trkpt><trkpt lat="45.3667767" lon="9.698815"><ele>70.0</ele><time>2026-03-23T14:15:14.351Z</time></trkpt><trkpt lat="45.3666717" lon="9.69878"><ele>70.0</ele><time>2026-03-23T14:15:16.35Z</time></trkpt><trkpt lat="45.36657" lon="9.6987567"><ele>70.0</ele><time>2026-03-23T14:15:18.35Z</time></trkpt><trkpt lat="45.3664667" lon="9.69873"><ele>70.0</ele><time>2026-03-23T14:15:20.351Z</time></trkpt><trkpt lat="45.3663633" lon="9.6986917"><ele>70.0</ele><time>2026-03-23T14:15:22.351Z</time></trkpt><trkpt lat="45.3662567" lon="9.698665"><ele>70.0</ele><time>2026-03-23T14:15:24.351Z</time></trkpt><trkpt lat="45.3661583" lon="9.6986383"><ele>70.0</ele><time>2026-03-23T14:15:26.351Z</time></trkpt><trkpt lat="45.3660683" lon="9.698595"><ele>70.0</ele><time>2026-03-23T14:15:28.351Z</time></trkpt><trkpt lat="45.365985" lon="9.698525"><ele>70.0</ele><time>2026-03-23T14:15:30.35Z</time></trkpt><trkpt lat="45.36591" lon="9.6984083"><ele>70.0</ele><time>2026-03-23T14:15:32.351Z</time></trkpt><trkpt lat="45.3658417" lon="9.698305"><ele>70.0</ele><time>2026-03-23T14:15:34.351Z</time></trkpt><trkpt lat="45.3657717" lon="9.6982633"><ele>70.0</ele><time>2026-03-23T14:15:35.35Z</time></trkpt><trkpt lat="45.365655" lon="9.698205"><ele>70.0</ele><time>2026-03-23T14:15:37.35Z</time></trkpt><trkpt lat="45.3655417" lon="9.6981467"><ele>70.0</ele><time>2026-03-23T14:15:39.351Z</time></trkpt><trkpt lat="45.3654333" lon="9.69808"><ele>70.0</ele><time>2026-03-23T14:15:41.35Z</time></trkpt><trkpt lat="45.3653183" lon="9.6980117"><ele>70.4</ele><time>2026-03-23T14:15:43.35Z</time></trkpt><trkpt lat="45.3652183" lon="9.697925"><ele>70.8</ele><time>2026-03-23T14:15:45.35Z</time></trkpt><trkpt lat="45.36513" lon="9.6978633"><ele>71.2</ele><time>2026-03-23T14:15:47.351Z</time></trkpt><trkpt lat="45.365045" lon="9.697815"><ele>71.6</ele><time>2026-03-23T14:15:57.351Z</time></trkpt><trkpt lat="45.364965" lon="9.69778"><ele>72.0</ele><time>2026-03-23T14:16:00.35Z</time></trkpt><trkpt lat="45.3649" lon="9.6977617"><ele>71.6</ele><time>2026-03-23T14:16:02.351Z</time></trkpt><trkpt lat="45.3648233" lon="9.6977333"><ele>71.2</ele><time>2026-03-23T14:16:04.35Z</time></trkpt><trkpt lat="45.36475" lon="9.6976833"><ele>70.8</ele><time>2026-03-23T14:16:06.351Z</time></trkpt><trkpt lat="45.3646667" lon="9.6976433"><ele>70.4</ele><time>2026-03-23T14:16:08.35Z</time></trkpt><trkpt lat="45.364565" lon="9.6975933"><ele>70.0</ele><time>2026-03-23T14:16:10.351Z</time></trkpt><trkpt lat="45.3644633" lon="9.6975467"><ele>70.0</ele><time>2026-03-23T14:16:12.35Z</time></trkpt><trkpt lat="45.36436" lon="9.6974933"><ele>70.0</ele><time>2026-03-23T14:16:14.351Z</time></trkpt><trkpt lat="45.3642517" lon="9.697465"><ele>70.0</ele><time>2026-03-23T14:16:16.35Z</time></trkpt><trkpt lat="45.3641383" lon="9.69743"><ele>70.0</ele><time>2026-03-23T14:16:18.351Z</time></trkpt><trkpt lat="45.3640283" lon="9.6973983"><ele>70.0</ele><time>2026-03-23T14:16:20.35Z</time></trkpt><trkpt lat="45.3639183" lon="9.697375"><ele>70.0</ele><time>2026-03-23T14:16:22.35Z</time></trkpt><trkpt lat="45.363815" lon="9.69738"><ele>70.0</ele><time>2026-03-23T14:16:24.35Z</time></trkpt><trkpt lat="45.3637183" lon="9.6973633"><ele>70.0</ele><time>2026-03-23T14:16:26.35Z</time></trkpt><trkpt lat="45.3636167" lon="9.69733"><ele>70.0</ele><time>2026-03-23T14:16:28.35Z</time></trkpt><trkpt lat="45.3635117" lon="9.6973117"><ele>70.0</ele><time>2026-03-23T14:16:30.351Z</time></trkpt><trkpt lat="45.3634" lon="9.6972933"><ele>70.0</ele><time>2026-03-23T14:16:32.35Z</time></trkpt><trkpt lat="45.3632883" lon="9.697275"><ele>70.0</ele><time>2026-03-23T14:16:34.351Z</time></trkpt><trkpt lat="45.363175" lon="9.6972667"><ele>70.0</ele><time>2026-03-23T14:16:36.351Z</time></trkpt><trkpt lat="45.363055" lon="9.697265"><ele>70.0</ele><time>2026-03-23T14:16:38.35Z</time></trkpt><trkpt lat="45.3629383" lon="9.69724"><ele>69.5</ele><time>2026-03-23T14:16:40.35Z</time></trkpt><trkpt lat="45.3628267" lon="9.6972217"><ele>69.0</ele><time>2026-03-23T14:16:42.35Z</time></trkpt><trkpt lat="45.3627033" lon="9.6972083"><ele>68.5</ele><time>2026-03-23T14:16:44.35Z</time></trkpt><trkpt lat="45.3625917" lon="9.69719"><ele>68.0</ele><time>2026-03-23T14:16:46.35Z</time></trkpt><trkpt lat="45.36248" lon="9.6971917"><ele>68.0</ele><time>2026-03-23T14:16:48.35Z</time></trkpt><trkpt lat="45.3623617" lon="9.697185"><ele>68.0</ele><time>2026-03-23T14:16:50.35Z</time></trkpt><trkpt lat="45.362255" lon="9.6971717"><ele>68.0</ele><time>2026-03-23T14:16:52.35Z</time></trkpt><trkpt lat="45.3621467" lon="9.697155"><ele>68.0</ele><time>2026-03-23T14:16:54.35Z</time></trkpt><trkpt lat="45.36203" lon="9.69714"><ele>68.2</ele><time>2026-03-23T14:16:56.35Z</time></trkpt><trkpt lat="45.36191" lon="9.69713"><ele>68.4</ele><time>2026-03-23T14:16:58.351Z</time></trkpt><trkpt lat="45.3618033" lon="9.6971167"><ele>68.60000000000001</ele><time>2026-03-23T14:17:00.35Z</time></trkpt><trkpt lat="45.3617" lon="9.697095"><ele>68.8</ele><time>2026-03-23T14:17:02.35Z</time></trkpt><trkpt lat="45.3616067" lon="9.6970733"><ele>69.0</ele><time>2026-03-23T14:17:04.351Z</time></trkpt><trkpt lat="45.3615117" lon="9.6970683"><ele>69.0</ele><time>2026-03-23T14:17:06.35Z</time></trkpt><trkpt lat="45.361445" lon="9.697045"><ele>69.0</ele><time>2026-03-23T14:17:08.35Z</time></trkpt><trkpt lat="45.361365" lon="9.6970333"><ele>69.0</ele><time>2026-03-23T14:17:10.35Z</time></trkpt><trkpt lat="45.361275" lon="9.6970067"><ele>69.0</ele><time>2026-03-23T14:17:12.35Z</time></trkpt><trkpt lat="45.3611633" lon="9.6969817"><ele>69.0</ele><time>2026-03-23T14:17:14.35Z</time></trkpt><trkpt lat="45.3610583" lon="9.6969483"><ele>68.60000000000001</ele><time>2026-03-23T14:17:16.35Z</time></trkpt><trkpt lat="45.36095" lon="9.6969117"><ele>68.2</ele><time>2026-03-23T14:17:18.35Z</time></trkpt><trkpt lat="45.3608483" lon="9.6968817"><ele>67.80000000000001</ele><time>2026-03-23T14:17:20.351Z</time></trkpt><trkpt lat="45.3607467" lon="9.6968283"><ele>67.4</ele><time>2026-03-23T14:17:22.351Z</time></trkpt><trkpt lat="45.3606467" lon="9.6967683"><ele>67.0</ele><time>2026-03-23T14:17:24.35Z</time></trkpt><trkpt lat="45.3605367" lon="9.696695"><ele>66.75</ele><time>2026-03-23T14:17:26.35Z</time></trkpt><trkpt lat="45.3604333" lon="9.6966483"><ele>66.5</ele><time>2026-03-23T14:17:28.35Z</time></trkpt><trkpt lat="45.36033" lon="9.69658"><ele>66.25</ele><time>2026-03-23T14:17:30.35Z</time></trkpt><trkpt lat="45.3602233" lon="9.696515"><ele>66.0</ele><time>2026-03-23T14:17:32.351Z</time></trkpt><trkpt lat="45.3601183" lon="9.6964483"><ele>66.0</ele><time>2026-03-23T14:17:34.35Z</time></trkpt><trkpt lat="45.360015" lon="9.6963817"><ele>66.0</ele><time>2026-03-23T14:17:36.35Z</time></trkpt><trkpt lat="45.359915" lon="9.69631"><ele>66.0</ele><time>2026-03-23T14:17:38.35Z</time></trkpt><trkpt lat="45.359815" lon="9.696235"><ele>66.0</ele><time>2026-03-23T14:17:40.351Z</time></trkpt><trkpt lat="45.3597267" lon="9.6961567"><ele>66.0</ele><time>2026-03-23T14:17:42.351Z</time></trkpt><trkpt lat="45.3596383" lon="9.6960717"><ele>66.0</ele><time>2026-03-23T14:17:44.351Z</time></trkpt><trkpt lat="45.3595617" lon="9.6959733"><ele>66.0</ele><time>2026-03-23T14:17:46.35Z</time></trkpt><trkpt lat="45.3594767" lon="9.6958867"><ele>66.0</ele><time>2026-03-23T14:17:48.35Z</time></trkpt><trkpt lat="45.3593933" lon="9.6957933"><ele>66.0</ele><time>2026-03-23T14:17:50.35Z</time></trkpt><trkpt lat="45.3593" lon="9.6957017"><ele>66.0</ele><time>2026-03-23T14:17:52.351Z</time></trkpt><trkpt lat="45.3592083" lon="9.6956183"><ele>66.0</ele><time>2026-03-23T14:17:54.35Z</time></trkpt><trkpt lat="45.35912" lon="9.695545"><ele>66.0</ele><time>2026-03-23T14:17:56.35Z</time></trkpt><trkpt lat="45.359025" lon="9.69545"><ele>66.0</ele><time>2026-03-23T14:17:58.35Z</time></trkpt><trkpt lat="45.3589417" lon="9.6953467"><ele>66.0</ele><time>2026-03-23T14:18:00.351Z</time></trkpt><trkpt lat="45.3588567" lon="9.6952617"><ele>66.0</ele><time>2026-03-23T14:18:02.351Z</time></trkpt><trkpt lat="45.3587717" lon="9.695175"><ele>67.6</ele><time>2026-03-23T14:18:04.351Z</time></trkpt><trkpt lat="45.3587017" lon="9.6950867"><ele>69.19999999999999</ele><time>2026-03-23T14:18:06.35Z</time></trkpt><trkpt lat="45.3586217" lon="9.6949967"><ele>70.80000000000001</ele><time>2026-03-23T14:18:08.351Z</time></trkpt><trkpt lat="45.35853" lon="9.6949117"><ele>72.4</ele><time>2026-03-23T14:18:10.351Z</time></trkpt><trkpt lat="45.3584417" lon="9.69482"><ele>74.0</ele><time>2026-03-23T14:18:12.35Z</time></trkpt><trkpt lat="45.3583467" lon="9.6947567"><ele>74.0</ele><time>2026-03-23T14:18:14.35Z</time></trkpt><trkpt lat="45.3582667" lon="9.694705"><ele>74.0</ele><time>2026-03-23T14:18:16.351Z</time></trkpt><trkpt lat="45.3582033" lon="9.6946167"><ele>74.0</ele><time>2026-03-23T14:18:18.35Z</time></trkpt><trkpt lat="45.3581333" lon="9.6945283"><ele>74.0</ele><time>2026-03-23T14:18:20.35Z</time></trkpt><trkpt lat="45.358075" lon="9.6944567"><ele>74.0</ele><time>2026-03-23T14:18:22.35Z</time></trkpt><trkpt lat="45.3579883" lon="9.6944083"><ele>74.0</ele><time>2026-03-23T14:18:25.35Z</time></trkpt><trkpt lat="45.3579267" lon="9.6943633"><ele>73.83333333333334</ele><time>2026-03-23T14:18:28.351Z</time></trkpt><trkpt lat="45.35785" lon="9.69429"><ele>73.66666666666667</ele><time>2026-03-23T14:18:31.35Z</time></trkpt><trkpt lat="45.357775" lon="9.69425"><ele>73.5</ele><time>2026-03-23T14:18:33.351Z</time></trkpt><trkpt lat="45.3576983" lon="9.6941967"><ele>73.33333333333333</ele><time>2026-03-23T14:18:35.351Z</time></trkpt><trkpt lat="45.3576167" lon="9.6941467"><ele>73.16666666666666</ele><time>2026-03-23T14:18:37.35Z</time></trkpt><trkpt lat="45.3575267" lon="9.6940867"><ele>73.0</ele><time>2026-03-23T14:18:39.351Z</time></trkpt><trkpt lat="45.3574367" lon="9.6940117"><ele>73.0</ele><time>2026-03-23T14:18:41.35Z</time></trkpt><trkpt lat="45.3573517" lon="9.6939483"><ele>73.0</ele><time>2026-03-23T14:18:43.35Z</time></trkpt><trkpt lat="45.357255" lon="9.6939317"><ele>73.0</ele><time>2026-03-23T14:18:45.35Z</time></trkpt><trkpt lat="45.3571683" lon="9.6938817"><ele>73.0</ele><time>2026-03-23T14:18:47.351Z</time></trkpt><trkpt lat="45.357095" lon="9.693825"><ele>73.0</ele><time>2026-03-23T14:18:49.35Z</time></trkpt><trkpt lat="45.3570167" lon="9.69376"><ele>72.83333333333333</ele><time>2026-03-23T14:18:51.351Z</time></trkpt><trkpt lat="45.3569367" lon="9.6937033"><ele>72.66666666666666</ele><time>2026-03-23T14:18:53.35Z</time></trkpt><trkpt lat="45.3568583" lon="9.6936517"><ele>72.5</ele><time>2026-03-23T14:18:55.35Z</time></trkpt><trkpt lat="45.356775" lon="9.6936067"><ele>72.33333333333333</ele><time>2026-03-23T14:18:57.351Z</time></trkpt><trkpt lat="45.3566967" lon="9.6935683"><ele>72.16666666666667</ele><time>2026-03-23T14:18:59.35Z</time></trkpt><trkpt lat="45.3566183" lon="9.6935617"><ele>72.0</ele><time>2026-03-23T14:19:01.35Z</time></trkpt><trkpt lat="45.3565383" lon="9.6935233"><ele>71.4</ele><time>2026-03-23T14:19:03.351Z</time></trkpt><trkpt lat="45.3564517" lon="9.6934933"><ele>70.80000000000001</ele><time>2026-03-23T14:19:05.35Z</time></trkpt><trkpt lat="45.35636" lon="9.6934933"><ele>70.2</ele><time>2026-03-23T14:19:07.35Z</time></trkpt><trkpt lat="45.3562567" lon="9.6934583"><ele>69.60000000000001</ele><time>2026-03-23T14:19:09.35Z</time></trkpt><trkpt lat="45.3561733" lon="9.693425"><ele>69.0</ele><time>2026-03-23T14:19:11.35Z</time></trkpt><trkpt lat="45.35607" lon="9.6934133"><ele>68.8</ele><time>2026-03-23T14:19:13.35Z</time></trkpt><trkpt lat="45.3559717" lon="9.6933833"><ele>68.60000000000001</ele><time>2026-03-23T14:19:15.351Z</time></trkpt><trkpt lat="45.3558817" lon="9.69339"><ele>68.4</ele><time>2026-03-23T14:19:17.35Z</time></trkpt><trkpt lat="45.355785" lon="9.6933983"><ele>68.2</ele><time>2026-03-23T14:19:19.35Z</time></trkpt><trkpt lat="45.3556833" lon="9.6934117"><ele>68.0</ele><time>2026-03-23T14:19:21.35Z</time></trkpt><trkpt lat="45.355615" lon="9.6933483"><ele>68.5</ele><time>2026-03-23T14:19:23.351Z</time></trkpt><trkpt lat="45.355535" lon="9.69332"><ele>69.0</ele><time>2026-03-23T14:19:26.351Z</time></trkpt><trkpt lat="45.35546" lon="9.693325"><ele>69.5</ele><time>2026-03-23T14:19:28.35Z</time></trkpt><trkpt lat="45.3553633" lon="9.6933017"><ele>70.0</ele><time>2026-03-23T14:19:30.35Z</time></trkpt><trkpt lat="45.3552717" lon="9.693285"><ele>70.5</ele><time>2026-03-23T14:19:32.35Z</time></trkpt><trkpt lat="45.3552017" lon="9.6933117"><ele>71.0</ele><time>2026-03-23T14:19:34.35Z</time></trkpt><trkpt lat="45.3551483" lon="9.69338"><ele>71.0</ele><time>2026-03-23T14:19:38.35Z</time></trkpt><trkpt lat="45.35512" lon="9.6934817"><ele>71.0</ele><time>2026-03-23T14:19:41.35Z</time></trkpt><trkpt lat="45.3550983" lon="9.6936"><ele>71.0</ele><time>2026-03-23T14:19:44.351Z</time></trkpt><trkpt lat="45.3550833" lon="9.693705"><ele>71.0</ele><time>2026-03-23T14:19:46.35Z</time></trkpt><trkpt lat="45.355065" lon="9.6937933"><ele>71.0</ele><time>2026-03-23T14:19:48.351Z</time></trkpt><trkpt lat="45.35504" lon="9.6939183"><ele>71.0</ele><time>2026-03-23T14:19:51.35Z</time></trkpt><trkpt lat="45.3550183" lon="9.6940317"><ele>71.14285714285714</ele><time>2026-03-23T14:19:54.35Z</time></trkpt><trkpt lat="45.35499" lon="9.69413"><ele>71.28571428571428</ele><time>2026-03-23T14:19:57.35Z</time></trkpt><trkpt lat="45.3549283" lon="9.6941633"><ele>71.42857142857143</ele><time>2026-03-23T14:20:01.35Z</time></trkpt><trkpt lat="45.3548567" lon="9.6941417"><ele>71.57142857142857</ele><time>2026-03-23T14:27:55.349Z</time></trkpt><trkpt lat="45.3547917" lon="9.6941133"><ele>71.71428571428572</ele><time>2026-03-23T14:27:58.349Z</time></trkpt><trkpt lat="45.35472" lon="9.6941"><ele>71.85714285714286</ele><time>2026-03-23T14:28:01.349Z</time></trkpt><trkpt lat="45.354635" lon="9.694075"><ele>72.0</ele><time>2026-03-23T14:28:04.349Z</time></trkpt><trkpt lat="45.3545717" lon="9.6940567"><ele>72.16666666666667</ele><time>2026-03-23T14:28:06.349Z</time></trkpt><trkpt lat="45.3545" lon="9.6940483"><ele>72.33333333333333</ele><time>2026-03-23T14:28:08.35Z</time></trkpt><trkpt lat="45.354425" lon="9.6940267"><ele>72.5</ele><time>2026-03-23T14:28:10.349Z</time></trkpt><trkpt lat="45.3543483" lon="9.6940183"><ele>72.66666666666666</ele><time>2026-03-23T14:28:12.349Z</time></trkpt><trkpt lat="45.3542683" lon="9.6940167"><ele>72.83333333333333</ele><time>2026-03-23T14:28:14.349Z</time></trkpt><trkpt lat="45.3541883" lon="9.6939983"><ele>73.0</ele><time>2026-03-23T14:28:16.349Z</time></trkpt><trkpt lat="45.354105" lon="9.6940067"><ele>73.0</ele><time>2026-03-23T14:28:18.349Z</time></trkpt><trkpt lat="45.35402" lon="9.6940267"><ele>73.0</ele><time>2026-03-23T14:28:20.349Z</time></trkpt><trkpt lat="45.3539283" lon="9.694045"><ele>73.0</ele><time>2026-03-23T14:28:22.349Z</time></trkpt><trkpt lat="45.3538417" lon="9.6940583"><ele>73.0</ele><time>2026-03-23T14:28:24.349Z</time></trkpt><trkpt lat="45.3537517" lon="9.6940733"><ele>73.0</ele><time>2026-03-23T14:28:26.349Z</time></trkpt><trkpt lat="45.3536617" lon="9.6940983"><ele>73.0</ele><time>2026-03-23T14:28:28.349Z</time></trkpt><trkpt lat="45.3535683" lon="9.6941233"><ele>73.2</ele><time>2026-03-23T14:28:30.349Z</time></trkpt><trkpt lat="45.3534783" lon="9.6941533"><ele>73.4</ele><time>2026-03-23T14:28:32.35Z</time></trkpt><trkpt lat="45.3533867" lon="9.694185"><ele>73.60000000000001</ele><time>2026-03-23T14:28:34.349Z</time></trkpt><trkpt lat="45.35329" lon="9.69421"><ele>73.8</ele><time>2026-03-23T14:28:36.349Z</time></trkpt><trkpt lat="45.3531917" lon="9.6942383"><ele>74.0</ele><time>2026-03-23T14:28:38.349Z</time></trkpt><trkpt lat="45.3530983" lon="9.6942767"><ele>74.0</ele><time>2026-03-23T14:28:40.35Z</time></trkpt><trkpt lat="45.3530033" lon="9.6943217"><ele>74.0</ele><time>2026-03-23T14:28:42.349Z</time></trkpt><trkpt lat="45.3529083" lon="9.694365"><ele>74.0</ele><time>2026-03-23T14:28:44.35Z</time></trkpt><trkpt lat="45.35281" lon="9.6944"><ele>74.0</ele><time>2026-03-23T14:28:46.349Z</time></trkpt><trkpt lat="45.3527183" lon="9.694435"><ele>74.0</ele><time>2026-03-23T14:28:48.349Z</time></trkpt><trkpt lat="45.3526233" lon="9.6944667"><ele>73.60000000000001</ele><time>2026-03-23T14:28:50.349Z</time></trkpt><trkpt lat="45.35252" lon="9.6945167"><ele>73.2</ele><time>2026-03-23T14:28:52.35Z</time></trkpt><trkpt lat="45.35241" lon="9.694555"><ele>72.80000000000001</ele><time>2026-03-23T14:28:54.349Z</time></trkpt><trkpt lat="45.3523033" lon="9.6945967"><ele>72.4</ele><time>2026-03-23T14:28:56.349Z</time></trkpt><trkpt lat="45.3521983" lon="9.6946333"><ele>72.0</ele><time>2026-03-23T14:28:58.349Z</time></trkpt><trkpt lat="45.3520983" lon="9.6946683"><ele>71.8</ele><time>2026-03-23T14:29:00.349Z</time></trkpt><trkpt lat="45.3519933" lon="9.6946867"><ele>71.6</ele><time>2026-03-23T14:29:02.349Z</time></trkpt><trkpt lat="45.3518867" lon="9.6947267"><ele>71.39999999999999</ele><time>2026-03-23T14:29:04.35Z</time></trkpt><trkpt lat="45.3517733" lon="9.6947683"><ele>71.2</ele><time>2026-03-23T14:29:06.35Z</time></trkpt><trkpt lat="45.3516683" lon="9.6948017"><ele>71.0</ele><time>2026-03-23T14:29:08.349Z</time></trkpt><trkpt lat="45.351565" lon="9.6948483"><ele>71.0</ele><time>2026-03-23T14:29:10.349Z</time></trkpt><trkpt lat="45.3514583" lon="9.694885"><ele>71.0</ele><time>2026-03-23T14:29:12.349Z</time></trkpt><trkpt lat="45.3513667" lon="9.694915"><ele>71.0</ele><time>2026-03-23T14:29:14.349Z</time></trkpt><trkpt lat="45.351305" lon="9.6948667"><ele>71.0</ele><time>2026-03-23T14:29:16.349Z</time></trkpt><trkpt lat="45.3512867" lon="9.69476"><ele>71.0</ele><time>2026-03-23T14:29:18.35Z</time></trkpt><trkpt lat="45.3512783" lon="9.694625"><ele>71.0</ele><time>2026-03-23T14:29:20.349Z</time></trkpt><trkpt lat="45.3512667" lon="9.6944867"><ele>71.0</ele><time>2026-03-23T14:29:22.349Z</time></trkpt><trkpt lat="45.3512483" lon="9.6943233"><ele>71.0</ele><time>2026-03-23T14:29:24.349Z</time></trkpt><trkpt lat="45.3512283" lon="9.6941567"><ele>71.0</ele><time>2026-03-23T14:29:26.349Z</time></trkpt><trkpt lat="45.3512067" lon="9.6939933"><ele>71.0</ele><time>2026-03-23T14:29:28.349Z</time></trkpt><trkpt lat="45.3511883" lon="9.6938383"><ele>71.0</ele><time>2026-03-23T14:29:30.349Z</time></trkpt><trkpt lat="45.3511767" lon="9.6936733"><ele>71.0</ele><time>2026-03-23T14:29:32.349Z</time></trkpt><trkpt lat="45.351145" lon="9.6935433"><ele>71.0</ele><time>2026-03-23T14:29:34.349Z</time></trkpt><trkpt lat="45.3511167" lon="9.6934267"><ele>71.0</ele><time>2026-03-23T14:29:37.35Z</time></trkpt><trkpt lat="45.3510417" lon="9.6933717"><ele>71.0</ele><time>2026-03-23T14:29:40.349Z</time></trkpt><trkpt lat="45.3509483" lon="9.6934233"><ele>70.6</ele><time>2026-03-23T14:29:42.349Z</time></trkpt><trkpt lat="45.3508633" lon="9.6935"><ele>70.19999999999999</ele><time>2026-03-23T14:29:44.35Z</time></trkpt><trkpt lat="45.3507683" lon="9.693535"><ele>69.80000000000001</ele><time>2026-03-23T14:29:46.349Z</time></trkpt><trkpt lat="45.35068" lon="9.69352"><ele>69.4</ele><time>2026-03-23T14:29:48.349Z</time></trkpt><trkpt lat="45.350605" lon="9.6935317"><ele>69.0</ele><time>2026-03-23T14:29:50.35Z</time></trkpt><trkpt lat="45.3505233" lon="9.693575"><ele>68.57142857142857</ele><time>2026-03-23T14:29:52.349Z</time></trkpt><trkpt lat="45.3504467" lon="9.6936"><ele>68.14285714285715</ele><time>2026-03-23T14:29:54.349Z</time></trkpt><trkpt lat="45.3503833" lon="9.6936267"><ele>67.71428571428572</ele><time>2026-03-23T14:29:56.349Z</time></trkpt><trkpt lat="45.350315" lon="9.6936617"><ele>67.28571428571429</ele><time>2026-03-23T14:29:59.349Z</time></trkpt><trkpt lat="45.3502567" lon="9.6936967"><ele>66.85714285714286</ele><time>2026-03-23T14:30:01.35Z</time></trkpt><trkpt lat="45.3501817" lon="9.6937283"><ele>66.42857142857143</ele><time>2026-03-23T14:30:03.349Z</time></trkpt><trkpt lat="45.3501083" lon="9.69379"><ele>66.0</ele><time>2026-03-23T14:30:05.349Z</time></trkpt><trkpt lat="45.350035" lon="9.6938533"><ele>66.0</ele><time>2026-03-23T14:30:07.349Z</time></trkpt><trkpt lat="45.349965" lon="9.6939133"><ele>66.0</ele><time>2026-03-23T14:30:09.349Z</time></trkpt><trkpt lat="45.3498817" lon="9.6939867"><ele>66.0</ele><time>2026-03-23T14:30:11.349Z</time></trkpt><trkpt lat="45.349795" lon="9.6940333"><ele>66.0</ele><time>2026-03-23T14:30:13.349Z</time></trkpt><trkpt lat="45.3497217" lon="9.6941083"><ele>66.0</ele><time>2026-03-23T14:30:15.349Z</time></trkpt><trkpt lat="45.3496367" lon="9.6941633"><ele>66.8</ele><time>2026-03-23T14:30:17.349Z</time></trkpt><trkpt lat="45.3495517" lon="9.69422"><ele>67.6</ele><time>2026-03-23T14:30:19.349Z</time></trkpt><trkpt lat="45.3494767" lon="9.6942983"><ele>68.4</ele><time>2026-03-23T14:30:21.349Z</time></trkpt><trkpt lat="45.3493967" lon="9.6943883"><ele>69.2</ele><time>2026-03-23T14:30:23.349Z</time></trkpt><trkpt lat="45.3493283" lon="9.6945083"><ele>70.0</ele><time>2026-03-23T14:30:25.349Z</time></trkpt><trkpt lat="45.3492533" lon="9.6946"><ele>70.0</ele><time>2026-03-23T14:30:27.35Z</time></trkpt><trkpt lat="45.34918" lon="9.6946933"><ele>70.0</ele><time>2026-03-23T14:30:29.349Z</time></trkpt><trkpt lat="45.3491133" lon="9.6947883"><ele>70.0</ele><time>2026-03-23T14:30:31.349Z</time></trkpt><trkpt lat="45.349055" lon="9.6949017"><ele>70.0</ele><time>2026-03-23T14:30:33.349Z</time></trkpt><trkpt lat="45.3489817" lon="9.6950217"><ele>70.0</ele><time>2026-03-23T14:30:35.35Z</time></trkpt><trkpt lat="45.3489083" lon="9.69513"><ele>70.0</ele><time>2026-03-23T14:30:37.348Z</time></trkpt><trkpt lat="45.3488517" lon="9.695245"><ele>70.0</ele><time>2026-03-23T14:30:39.348Z</time></trkpt><trkpt lat="45.348795" lon="9.6953467"><ele>70.0</ele><time>2026-03-23T14:30:41.348Z</time></trkpt><trkpt lat="45.34874" lon="9.6954767"><ele>70.0</ele><time>2026-03-23T14:30:43.349Z</time></trkpt><trkpt lat="45.3486867" lon="9.6956"><ele>70.0</ele><time>2026-03-23T14:30:45.348Z</time></trkpt><trkpt lat="45.348655" lon="9.69574"><ele>70.0</ele><time>2026-03-23T14:30:47.348Z</time></trkpt><trkpt lat="45.3486067" lon="9.6958767"><ele>70.0</ele><time>2026-03-23T14:30:49.348Z</time></trkpt><trkpt lat="45.3485717" lon="9.6960233"><ele>70.0</ele><time>2026-03-23T14:30:51.348Z</time></trkpt><trkpt lat="45.3485233" lon="9.6961683"><ele>70.0</ele><time>2026-03-23T14:30:53.348Z</time></trkpt><trkpt lat="45.3484883" lon="9.69632"><ele>70.0</ele><time>2026-03-23T14:30:55.349Z</time></trkpt><trkpt lat="45.3484567" lon="9.69647"><ele>69.83333333333333</ele><time>2026-03-23T14:30:57.348Z</time></trkpt><trkpt lat="45.348415" lon="9.6966367"><ele>69.66666666666666</ele><time>2026-03-23T14:30:59.349Z</time></trkpt><trkpt lat="45.3483933" lon="9.69673"><ele>69.5</ele><time>2026-03-23T14:31:00.348Z</time></trkpt><trkpt lat="45.3483733" lon="9.6968183"><ele>69.33333333333333</ele><time>2026-03-23T14:31:01.348Z</time></trkpt><trkpt lat="45.348335" lon="9.69698"><ele>69.16666666666667</ele><time>2026-03-23T14:31:03.349Z</time></trkpt><trkpt lat="45.34831" lon="9.697065"><ele>69.0</ele><time>2026-03-23T14:31:04.348Z</time></trkpt><trkpt lat="45.34827" lon="9.69722"><ele>68.83333333333333</ele><time>2026-03-23T14:31:06.348Z</time></trkpt><trkpt lat="45.3482433" lon="9.6973017"><ele>68.66666666666667</ele><time>2026-03-23T14:31:07.348Z</time></trkpt><trkpt lat="45.3482017" lon="9.6974467"><ele>68.5</ele><time>2026-03-23T14:31:09.348Z</time></trkpt><trkpt lat="45.3481467" lon="9.6975933"><ele>68.33333333333334</ele><time>2026-03-23T14:31:11.349Z</time></trkpt><trkpt lat="45.3481117" lon="9.6976783"><ele>68.16666666666667</ele><time>2026-03-23T14:31:12.348Z</time></trkpt><trkpt lat="45.3480717" lon="9.697755"><ele>68.0</ele><time>2026-03-23T14:31:13.348Z</time></trkpt><trkpt lat="45.34804" lon="9.6978333"><ele>67.6</ele><time>2026-03-23T14:31:14.348Z</time></trkpt><trkpt lat="45.3479983" lon="9.697905"><ele>67.19999999999999</ele><time>2026-03-23T14:31:15.348Z</time></trkpt><trkpt lat="45.3479567" lon="9.69798"><ele>66.8</ele><time>2026-03-23T14:31:16.349Z</time></trkpt><trkpt lat="45.3478967" lon="9.6981183"><ele>66.39999999999999</ele><time>2026-03-23T14:31:18.349Z</time></trkpt><trkpt lat="45.34784" lon="9.6982517"><ele>66.0</ele><time>2026-03-23T14:31:20.348Z</time></trkpt><trkpt lat="45.34778" lon="9.6983717"><ele>66.0</ele><time>2026-03-23T14:31:22.348Z</time></trkpt><trkpt lat="45.34771" lon="9.6985033"><ele>66.0</ele><time>2026-03-23T14:31:24.348Z</time></trkpt><trkpt lat="45.347675" lon="9.6986317"><ele>66.0</ele><time>2026-03-23T14:31:26.348Z</time></trkpt><trkpt lat="45.34766" lon="9.6987767"><ele>66.0</ele><time>2026-03-23T14:31:28.348Z</time></trkpt><trkpt lat="45.347685" lon="9.6989"><ele>66.0</ele><time>2026-03-23T14:31:30.348Z</time></trkpt><trkpt lat="45.34771" lon="9.6989867"><ele>66.33333333333333</ele><time>2026-03-23T14:31:32.348Z</time></trkpt><trkpt lat="45.34774" lon="9.6991"><ele>66.66666666666667</ele><time>2026-03-23T14:31:36.349Z</time></trkpt><trkpt lat="45.347745" lon="9.6992217"><ele>67.0</ele><time>2026-03-23T14:31:39.349Z</time></trkpt><trkpt lat="45.347765" lon="9.69932"><ele>67.33333333333334</ele><time>2026-03-23T14:31:41.348Z</time></trkpt><trkpt lat="45.3477817" lon="9.6994333"><ele>67.66666666666667</ele><time>2026-03-23T14:31:43.349Z</time></trkpt><trkpt lat="45.3478033" lon="9.6995667"><ele>68.0</ele><time>2026-03-23T14:31:45.348Z</time></trkpt><trkpt lat="45.3478383" lon="9.6997083"><ele>68.16666666666667</ele><time>2026-03-23T14:31:47.348Z</time></trkpt><trkpt lat="45.3478733" lon="9.6998417"><ele>68.33333333333334</ele><time>2026-03-23T14:31:49.348Z</time></trkpt><trkpt lat="45.3478967" lon="9.699965"><ele>68.5</ele><time>2026-03-23T14:31:51.348Z</time></trkpt><trkpt lat="45.3479117" lon="9.7000817"><ele>68.66666666666667</ele><time>2026-03-23T14:31:53.348Z</time></trkpt><trkpt lat="45.3479033" lon="9.7002033"><ele>68.83333333333333</ele><time>2026-03-23T14:31:55.348Z</time></trkpt><trkpt lat="45.347915" lon="9.7002917"><ele>69.0</ele><time>2026-03-23T14:31:57.348Z</time></trkpt><trkpt lat="45.3479567" lon="9.700395"><ele>69.0</ele><time>2026-03-23T14:32:01.348Z</time></trkpt><trkpt lat="45.34794" lon="9.7005217"><ele>69.0</ele><time>2026-03-23T14:32:04.348Z</time></trkpt><trkpt lat="45.3479517" lon="9.7006133"><ele>69.0</ele><time>2026-03-23T14:32:06.349Z</time></trkpt><trkpt lat="45.3479567" lon="9.70073"><ele>69.0</ele><time>2026-03-23T14:32:09.348Z</time></trkpt><trkpt lat="45.347885" lon="9.7007683"><ele>69.0</ele><time>2026-03-23T14:32:12.349Z</time></trkpt><trkpt lat="45.34781" lon="9.700765"><ele>69.0</ele><time>2026-03-23T14:32:14.348Z</time></trkpt><trkpt lat="45.347725" lon="9.7007683"><ele>69.0</ele><time>2026-03-23T14:32:16.349Z</time></trkpt><trkpt lat="45.3476367" lon="9.70077"><ele>69.0</ele><time>2026-03-23T14:32:18.348Z</time></trkpt><trkpt lat="45.347545" lon="9.70077"><ele>69.0</ele><time>2026-03-23T14:32:20.349Z</time></trkpt><trkpt lat="45.34745" lon="9.7007633"><ele>69.0</ele><time>2026-03-23T14:32:22.348Z</time></trkpt><trkpt lat="45.3473467" lon="9.7007667"><ele>69.0</ele><time>2026-03-23T14:32:24.349Z</time></trkpt><trkpt lat="45.3472417" lon="9.7007683"><ele>69.0</ele><time>2026-03-23T14:32:26.348Z</time></trkpt><trkpt lat="45.34713" lon="9.70077"><ele>69.0</ele><time>2026-03-23T14:32:28.348Z</time></trkpt><trkpt lat="45.3470217" lon="9.700775"><ele>69.0</ele><time>2026-03-23T14:32:30.349Z</time></trkpt><trkpt lat="45.346915" lon="9.7007783"><ele>69.0</ele><time>2026-03-23T14:32:32.348Z</time></trkpt><trkpt lat="45.3468" lon="9.7007817"><ele>69.0</ele><time>2026-03-23T14:32:34.348Z</time></trkpt><trkpt lat="45.34668" lon="9.7007783"><ele>69.0</ele><time>2026-03-23T14:32:36.348Z</time></trkpt><trkpt lat="45.346565" lon="9.7007683"><ele>69.0</ele><time>2026-03-23T14:32:38.348Z</time></trkpt><trkpt lat="45.346445" lon="9.70077"><ele>69.0</ele><time>2026-03-23T14:32:40.348Z</time></trkpt><trkpt lat="45.346325" lon="9.7007767"><ele>69.0</ele><time>2026-03-23T14:32:42.348Z</time></trkpt><trkpt lat="45.3462617" lon="9.7007717"><ele>69.0</ele><time>2026-03-23T14:32:43.348Z</time></trkpt><trkpt lat="45.3461967" lon="9.7007767"><ele>68.75</ele><time>2026-03-23T14:32:44.348Z</time></trkpt><trkpt lat="45.3460733" lon="9.700775"><ele>68.5</ele><time>2026-03-23T14:32:46.348Z</time></trkpt><trkpt lat="45.3459483" lon="9.7007817"><ele>68.25</ele><time>2026-03-23T14:32:48.348Z</time></trkpt><trkpt lat="45.3458233" lon="9.7007733"><ele>68.0</ele><time>2026-03-23T14:32:50.349Z</time></trkpt><trkpt lat="45.345705" lon="9.700775"><ele>68.0</ele><time>2026-03-23T14:32:52.348Z</time></trkpt><trkpt lat="45.3456417" lon="9.7007767"><ele>68.0</ele><time>2026-03-23T14:32:53.348Z</time></trkpt><trkpt lat="45.3455183" lon="9.7007817"><ele>68.0</ele><time>2026-03-23T14:32:55.349Z</time></trkpt><trkpt lat="45.345455" lon="9.7007783"><ele>68.0</ele><time>2026-03-23T14:32:56.348Z</time></trkpt><trkpt lat="45.345335" lon="9.7007733"><ele>68.0</ele><time>2026-03-23T14:32:58.348Z</time></trkpt><trkpt lat="45.3452717" lon="9.7007733"><ele>68.0</ele><time>2026-03-23T14:32:59.348Z</time></trkpt><trkpt lat="45.3451483" lon="9.70077"><ele>67.83333333333334</ele><time>2026-03-23T14:33:01.348Z</time></trkpt><trkpt lat="45.34503" lon="9.7007717"><ele>67.66666666666667</ele><time>2026-03-23T14:33:03.349Z</time></trkpt><trkpt lat="45.3449133" lon="9.70077"><ele>67.5</ele><time>2026-03-23T14:33:05.348Z</time></trkpt><trkpt lat="45.3448433" lon="9.7007667"><ele>67.33333333333333</ele><time>2026-03-23T14:33:06.348Z</time></trkpt><trkpt lat="45.3447783" lon="9.7007717"><ele>67.16666666666666</ele><time>2026-03-23T14:33:07.348Z</time></trkpt><trkpt lat="45.3447117" lon="9.70077"><ele>67.0</ele><time>2026-03-23T14:33:08.348Z</time></trkpt><trkpt lat="45.3446467" lon="9.7007733"><ele>67.0</ele><time>2026-03-23T14:33:09.348Z</time></trkpt><trkpt lat="45.3445833" lon="9.70077"><ele>67.0</ele><time>2026-03-23T14:33:10.349Z</time></trkpt><trkpt lat="45.34451" lon="9.7007717"><ele>67.0</ele><time>2026-03-23T14:33:11.348Z</time></trkpt><trkpt lat="45.3443883" lon="9.70077"><ele>67.0</ele><time>2026-03-23T14:33:13.348Z</time></trkpt><trkpt lat="45.3443233" lon="9.70077"><ele>67.0</ele><time>2026-03-23T14:33:14.348Z</time></trkpt><trkpt lat="45.3442567" lon="9.70077"><ele>67.0</ele><time>2026-03-23T14:33:15.349Z</time></trkpt><trkpt lat="45.3441917" lon="9.7007733"><ele>67.0</ele><time>2026-03-23T14:33:16.348Z</time></trkpt><trkpt lat="45.3441267" lon="9.700775"><ele>67.0</ele><time>2026-03-23T14:33:17.348Z</time></trkpt><trkpt lat="45.34406" lon="9.7007733"><ele>67.0</ele><time>2026-03-23T14:33:18.349Z</time></trkpt><trkpt lat="45.3439933" lon="9.7007617"><ele>67.0</ele><time>2026-03-23T14:33:19.348Z</time></trkpt><trkpt lat="45.3439217" lon="9.7007683"><ele>67.0</ele><time>2026-03-23T14:33:20.348Z</time></trkpt><trkpt lat="45.3438517" lon="9.700765"><ele>67.0</ele><time>2026-03-23T14:33:21.348Z</time></trkpt><trkpt lat="45.3437833" lon="9.7007667"><ele>67.0</ele><time>2026-03-23T14:33:22.349Z</time></trkpt><trkpt lat="45.3437167" lon="9.7007617"><ele>67.42857142857143</ele><time>2026-03-23T14:33:23.348Z</time></trkpt><trkpt lat="45.34365" lon="9.7007617"><ele>67.85714285714286</ele><time>2026-03-23T14:33:24.348Z</time></trkpt><trkpt lat="45.34358" lon="9.7007667"><ele>68.28571428571428</ele><time>2026-03-23T14:33:25.348Z</time></trkpt><trkpt lat="45.34351" lon="9.70077"><ele>68.71428571428572</ele><time>2026-03-23T14:33:26.348Z</time></trkpt><trkpt lat="45.3434417" lon="9.700775"><ele>69.14285714285714</ele><time>2026-03-23T14:33:27.348Z</time></trkpt><trkpt lat="45.3433767" lon="9.7007717"><ele>69.57142857142857</ele><time>2026-03-23T14:33:28.349Z</time></trkpt><trkpt lat="45.3433067" lon="9.7007667"><ele>70.0</ele><time>2026-03-23T14:33:29.349Z</time></trkpt><trkpt lat="45.3432383" lon="9.7007617"><ele>70.0</ele><time>2026-03-23T14:33:30.348Z</time></trkpt><trkpt lat="45.3431683" lon="9.7007633"><ele>70.0</ele><time>2026-03-23T14:33:31.348Z</time></trkpt><trkpt lat="45.3430967" lon="9.7007667"><ele>70.0</ele><time>2026-03-23T14:33:32.349Z</time></trkpt><trkpt lat="45.3430283" lon="9.7007667"><ele>70.0</ele><time>2026-03-23T14:33:33.348Z</time></trkpt><trkpt lat="45.3429567" lon="9.7007683"><ele>70.0</ele><time>2026-03-23T14:33:34.348Z</time></trkpt><trkpt lat="45.342885" lon="9.7007683"><ele>70.0</ele><time>2026-03-23T14:33:35.348Z</time></trkpt><trkpt lat="45.3428183" lon="9.7007667"><ele>70.0</ele><time>2026-03-23T14:33:36.349Z</time></trkpt><trkpt lat="45.3427483" lon="9.7007717"><ele>70.14285714285714</ele><time>2026-03-23T14:33:37.348Z</time></trkpt><trkpt lat="45.3426767" lon="9.7007733"><ele>70.28571428571428</ele><time>2026-03-23T14:33:38.349Z</time></trkpt><trkpt lat="45.3426083" lon="9.700775"><ele>70.42857142857143</ele><time>2026-03-23T14:33:39.348Z</time></trkpt><trkpt lat="45.3425383" lon="9.7007733"><ele>70.57142857142857</ele><time>2026-03-23T14:33:40.348Z</time></trkpt><trkpt lat="45.3424717" lon="9.700775"><ele>70.71428571428571</ele><time>2026-03-23T14:33:41.348Z</time></trkpt><trkpt lat="45.3424017" lon="9.70078"><ele>70.85714285714286</ele><time>2026-03-23T14:33:42.349Z</time></trkpt><trkpt lat="45.3423317" lon="9.7007817"><ele>71.0</ele><time>2026-03-23T14:33:43.348Z</time></trkpt><trkpt lat="45.342255" lon="9.7007867"><ele>70.85714285714286</ele><time>2026-03-23T14:33:44.348Z</time></trkpt><trkpt lat="45.342185" lon="9.700785"><ele>70.71428571428571</ele><time>2026-03-23T14:33:45.348Z</time></trkpt><trkpt lat="45.342115" lon="9.70079"><ele>70.57142857142857</ele><time>2026-03-23T14:33:46.349Z</time></trkpt><trkpt lat="45.3420433" lon="9.7007867"><ele>70.42857142857143</ele><time>2026-03-23T14:33:47.348Z</time></trkpt><trkpt lat="45.3419717" lon="9.700785"><ele>70.28571428571428</ele><time>2026-03-23T14:33:48.348Z</time></trkpt><trkpt lat="45.3419033" lon="9.700785"><ele>70.14285714285714</ele><time>2026-03-23T14:33:49.348Z</time></trkpt><trkpt lat="45.3418317" lon="9.7007833"><ele>70.0</ele><time>2026-03-23T14:33:50.348Z</time></trkpt><trkpt lat="45.341765" lon="9.7007817"><ele>70.0</ele><time>2026-03-23T14:33:51.348Z</time></trkpt><trkpt lat="45.3416933" lon="9.7007817"><ele>70.0</ele><time>2026-03-23T14:33:52.348Z</time></trkpt><trkpt lat="45.341625" lon="9.7007767"><ele>70.0</ele><time>2026-03-23T14:33:53.349Z</time></trkpt><trkpt lat="45.34155" lon="9.700775"><ele>70.0</ele><time>2026-03-23T14:33:54.348Z</time></trkpt><trkpt lat="45.341475" lon="9.7007783"><ele>70.0</ele><time>2026-03-23T14:33:55.349Z</time></trkpt><trkpt lat="45.341405" lon="9.7007767"><ele>70.0</ele><time>2026-03-23T14:33:56.348Z</time></trkpt><trkpt lat="45.34133" lon="9.700775"><ele>70.0</ele><time>2026-03-23T14:33:57.348Z</time></trkpt><trkpt lat="45.3412633" lon="9.7007683"><ele>69.57142857142857</ele><time>2026-03-23T14:33:58.349Z</time></trkpt><trkpt lat="45.3411867" lon="9.7007733"><ele>69.14285714285714</ele><time>2026-03-23T14:33:59.348Z</time></trkpt><trkpt lat="45.341115" lon="9.700775"><ele>68.71428571428572</ele><time>2026-03-23T14:34:00.348Z</time></trkpt><trkpt lat="45.3410483" lon="9.70077"><ele>68.28571428571428</ele><time>2026-03-23T14:34:01.349Z</time></trkpt><trkpt lat="45.3409783" lon="9.700765"><ele>67.85714285714286</ele><time>2026-03-23T14:34:02.348Z</time></trkpt><trkpt lat="45.3409083" lon="9.7007683"><ele>67.42857142857143</ele><time>2026-03-23T14:34:03.348Z</time></trkpt><trkpt lat="45.34084" lon="9.7007667"><ele>67.0</ele><time>2026-03-23T14:34:04.348Z</time></trkpt><trkpt lat="45.3407717" lon="9.7007667"><ele>67.0</ele><time>2026-03-23T14:34:05.349Z</time></trkpt><trkpt lat="45.3407" lon="9.700765"><ele>67.0</ele><time>2026-03-23T14:34:06.348Z</time></trkpt><trkpt lat="45.34063" lon="9.70077"><ele>67.0</ele><time>2026-03-23T14:34:07.348Z</time></trkpt><trkpt lat="45.34056" lon="9.70077"><ele>67.0</ele><time>2026-03-23T14:34:08.348Z</time></trkpt><trkpt lat="45.3404867" lon="9.7007783"><ele>67.0</ele><time>2026-03-23T14:34:09.348Z</time></trkpt><trkpt lat="45.3404183" lon="9.700775"><ele>67.0</ele><time>2026-03-23T14:34:10.348Z</time></trkpt><trkpt lat="45.3403483" lon="9.7007783"><ele>67.0</ele><time>2026-03-23T14:34:11.348Z</time></trkpt><trkpt lat="45.3402817" lon="9.7007817"><ele>67.0</ele><time>2026-03-23T14:34:12.348Z</time></trkpt><trkpt lat="45.34021" lon="9.700785"><ele>67.0</ele><time>2026-03-23T14:34:13.348Z</time></trkpt><trkpt lat="45.3401433" lon="9.7007917"><ele>67.0</ele><time>2026-03-23T14:34:14.348Z</time></trkpt><trkpt lat="45.3400767" lon="9.7007933"><ele>67.0</ele><time>2026-03-23T14:34:15.348Z</time></trkpt><trkpt lat="45.3400083" lon="9.7007933"><ele>67.0</ele><time>2026-03-23T14:34:16.348Z</time></trkpt><trkpt lat="45.33994" lon="9.7007967"><ele>67.0</ele><time>2026-03-23T14:34:17.348Z</time></trkpt><trkpt lat="45.3398717" lon="9.7007983"><ele>67.0</ele><time>2026-03-23T14:34:18.348Z</time></trkpt><trkpt lat="45.3398033" lon="9.7008033"><ele>67.0</ele><time>2026-03-23T14:34:19.349Z</time></trkpt><trkpt lat="45.3397333" lon="9.7008067"><ele>67.0</ele><time>2026-03-23T14:34:20.348Z</time></trkpt><trkpt lat="45.3396683" lon="9.7008067"><ele>67.0</ele><time>2026-03-23T14:34:21.348Z</time></trkpt><trkpt lat="45.3395983" lon="9.7008067"><ele>67.0</ele><time>2026-03-23T14:34:22.348Z</time></trkpt><trkpt lat="45.3394533" lon="9.7008417"><ele>67.0</ele><time>2026-03-23T14:34:23.719Z</time></trkpt><trkpt lat="45.3393383" lon="9.7008317"><ele>67.0</ele><time>2026-03-23T14:34:25.853Z</time></trkpt><trkpt lat="45.3392483" lon="9.7008167"><ele>67.0</ele><time>2026-03-23T14:34:27.353Z</time></trkpt><trkpt lat="45.339185" lon="9.7008133"><ele>67.0</ele><time>2026-03-23T14:34:28.354Z</time></trkpt><trkpt lat="45.3391217" lon="9.70081"><ele>67.0</ele><time>2026-03-23T14:34:29.353Z</time></trkpt><trkpt lat="45.3390533" lon="9.700805"><ele>67.0</ele><time>2026-03-23T14:34:30.353Z</time></trkpt><trkpt lat="45.338985" lon="9.7008033"><ele>67.0</ele><time>2026-03-23T14:34:31.353Z</time></trkpt><trkpt lat="45.33885" lon="9.7007967"><ele>67.0</ele><time>2026-03-23T14:34:33.353Z</time></trkpt><trkpt lat="45.3387833" lon="9.700795"><ele>67.0</ele><time>2026-03-23T14:34:34.353Z</time></trkpt><trkpt lat="45.3387117" lon="9.70079"><ele>67.0</ele><time>2026-03-23T14:34:35.353Z</time></trkpt><trkpt lat="45.3386433" lon="9.7007817"><ele>67.0</ele><time>2026-03-23T14:34:36.353Z</time></trkpt><trkpt lat="45.3385767" lon="9.7007733"><ele>67.0</ele><time>2026-03-23T14:34:37.353Z</time></trkpt><trkpt lat="45.3385067" lon="9.7007733"><ele>67.0</ele><time>2026-03-23T14:34:38.353Z</time></trkpt><trkpt lat="45.3384367" lon="9.70077"><ele>67.0</ele><time>2026-03-23T14:34:39.353Z</time></trkpt><trkpt lat="45.33837" lon="9.70077"><ele>67.0</ele><time>2026-03-23T14:34:40.353Z</time></trkpt><trkpt lat="45.3383017" lon="9.700775"><ele>67.0</ele><time>2026-03-23T14:34:41.354Z</time></trkpt><trkpt lat="45.3382317" lon="9.7007717"><ele>67.0</ele><time>2026-03-23T14:34:42.353Z</time></trkpt><trkpt lat="45.3381633" lon="9.70077"><ele>67.0</ele><time>2026-03-23T14:34:43.353Z</time></trkpt><trkpt lat="45.3380833" lon="9.7007717"><ele>67.0</ele><time>2026-03-23T14:34:44.353Z</time></trkpt><trkpt lat="45.3379617" lon="9.70077"><ele>67.0</ele><time>2026-03-23T14:34:46.354Z</time></trkpt><trkpt lat="45.337895" lon="9.700775"><ele>67.14285714285714</ele><time>2026-03-23T14:34:47.354Z</time></trkpt><trkpt lat="45.3378233" lon="9.7007767"><ele>67.28571428571428</ele><time>2026-03-23T14:34:48.353Z</time></trkpt><trkpt lat="45.3377583" lon="9.70078"><ele>67.42857142857142</ele><time>2026-03-23T14:34:49.353Z</time></trkpt><trkpt lat="45.3376933" lon="9.700775"><ele>67.57142857142857</ele><time>2026-03-23T14:34:50.354Z</time></trkpt><trkpt lat="45.3376267" lon="9.7007767"><ele>67.71428571428571</ele><time>2026-03-23T14:34:51.353Z</time></trkpt><trkpt lat="45.3375583" lon="9.70078"><ele>67.85714285714285</ele><time>2026-03-23T14:34:52.354Z</time></trkpt><trkpt lat="45.33749" lon="9.7007983"><ele>68.0</ele><time>2026-03-23T14:34:53.353Z</time></trkpt><trkpt lat="45.33737" lon="9.7008167"><ele>67.99999999999999</ele><time>2026-03-23T14:34:55.354Z</time></trkpt><trkpt lat="45.3373083" lon="9.700845"><ele>68.0</ele><time>2026-03-23T14:34:56.353Z</time></trkpt><trkpt lat="45.3372433" lon="9.7008833"><ele>68.0</ele><time>2026-03-23T14:34:57.353Z</time></trkpt><trkpt lat="45.3371783" lon="9.7009217"><ele>68.0</ele><time>2026-03-23T14:34:58.353Z</time></trkpt><trkpt lat="45.3371167" lon="9.7009617"><ele>68.0</ele><time>2026-03-23T14:34:59.354Z</time></trkpt><trkpt lat="45.337055" lon="9.701005"><ele>67.99999999999999</ele><time>2026-03-23T14:35:00.353Z</time></trkpt><trkpt lat="45.3369883" lon="9.70105"><ele>68.0</ele><time>2026-03-23T14:35:01.353Z</time></trkpt><trkpt lat="45.3369267" lon="9.7010883"><ele>68.16666666666667</ele><time>2026-03-23T14:35:02.353Z</time></trkpt><trkpt lat="45.3368633" lon="9.701125"><ele>68.33333333333334</ele><time>2026-03-23T14:35:03.354Z</time></trkpt><trkpt lat="45.3367983" lon="9.7011667"><ele>68.5</ele><time>2026-03-23T14:35:04.354Z</time></trkpt><trkpt lat="45.3367283" lon="9.70121"><ele>68.66666666666667</ele><time>2026-03-23T14:35:05.353Z</time></trkpt><trkpt lat="45.3366583" lon="9.7012517"><ele>68.83333333333333</ele><time>2026-03-23T14:35:06.353Z</time></trkpt><trkpt lat="45.3365933" lon="9.701285"><ele>69.0</ele><time>2026-03-23T14:35:07.353Z</time></trkpt><trkpt lat="45.3364833" lon="9.7013567"><ele>69.0</ele><time>2026-03-23T14:35:09.353Z</time></trkpt><trkpt lat="45.3364133" lon="9.7013917"><ele>69.0</ele><time>2026-03-23T14:35:10.353Z</time></trkpt><trkpt lat="45.33635" lon="9.7014133"><ele>69.0</ele><time>2026-03-23T14:35:11.353Z</time></trkpt><trkpt lat="45.3362883" lon="9.7014417"><ele>69.0</ele><time>2026-03-23T14:35:12.354Z</time></trkpt><trkpt lat="45.3361667" lon="9.70149"><ele>69.0</ele><time>2026-03-23T14:35:14.354Z</time></trkpt><trkpt lat="45.3361017" lon="9.70151"><ele>69.0</ele><time>2026-03-23T14:35:15.354Z</time></trkpt><trkpt lat="45.33604" lon="9.7015383"><ele>69.33333333333333</ele><time>2026-03-23T14:35:16.353Z</time></trkpt><trkpt lat="45.3359767" lon="9.7015833"><ele>69.66666666666667</ele><time>2026-03-23T14:35:17.353Z</time></trkpt><trkpt lat="45.335915" lon="9.7016167"><ele>70.0</ele><time>2026-03-23T14:35:18.353Z</time></trkpt><trkpt lat="45.335855" lon="9.7016583"><ele>70.33333333333334</ele><time>2026-03-23T14:35:19.354Z</time></trkpt><trkpt lat="45.3358" lon="9.7017117"><ele>70.66666666666667</ele><time>2026-03-23T14:35:20.353Z</time></trkpt><trkpt lat="45.3357117" lon="9.701825"><ele>71.0</ele><time>2026-03-23T14:35:22.353Z</time></trkpt><trkpt lat="45.3356367" lon="9.7019417"><ele>71.0</ele><time>2026-03-23T14:35:24.353Z</time></trkpt><trkpt lat="45.3355917" lon="9.7020933"><ele>71.0</ele><time>2026-03-23T14:35:26.353Z</time></trkpt><trkpt lat="45.3355783" lon="9.70225"><ele>71.0</ele><time>2026-03-23T14:35:28.353Z</time></trkpt><trkpt lat="45.33558" lon="9.7024083"><ele>71.0</ele><time>2026-03-23T14:35:30.353Z</time></trkpt><trkpt lat="45.33558" lon="9.7025517"><ele>71.0</ele><time>2026-03-23T14:35:32.353Z</time></trkpt><trkpt lat="45.335595" lon="9.7027017"><ele>70.6</ele><time>2026-03-23T14:35:34.353Z</time></trkpt><trkpt lat="45.3356033" lon="9.70284"><ele>70.19999999999999</ele><time>2026-03-23T14:35:36.354Z</time></trkpt><trkpt lat="45.3356317" lon="9.7029667"><ele>69.80000000000001</ele><time>2026-03-23T14:35:38.354Z</time></trkpt><trkpt lat="45.33567" lon="9.7030983"><ele>69.4</ele><time>2026-03-23T14:35:40.353Z</time></trkpt><trkpt lat="45.335685" lon="9.70324"><ele>69.0</ele><time>2026-03-23T14:35:42.353Z</time></trkpt><trkpt lat="45.3357117" lon="9.70339"><ele>69.0</ele><time>2026-03-23T14:35:44.353Z</time></trkpt><trkpt lat="45.3357333" lon="9.7035383"><ele>69.0</ele><time>2026-03-23T14:35:46.353Z</time></trkpt><trkpt lat="45.3357533" lon="9.703665"><ele>69.0</ele><time>2026-03-23T14:35:48.354Z</time></trkpt><trkpt lat="45.33578" lon="9.7037833"><ele>69.0</ele><time>2026-03-23T14:35:50.353Z</time></trkpt><trkpt lat="45.3358133" lon="9.703905"><ele>69.0</ele><time>2026-03-23T14:35:52.353Z</time></trkpt><trkpt lat="45.33587" lon="9.704035"><ele>68.60000000000001</ele><time>2026-03-23T14:35:54.354Z</time></trkpt><trkpt lat="45.3359317" lon="9.7041683"><ele>68.2</ele><time>2026-03-23T14:35:56.354Z</time></trkpt><trkpt lat="45.336005" lon="9.7042883"><ele>67.80000000000001</ele><time>2026-03-23T14:35:58.353Z</time></trkpt><trkpt lat="45.33606" lon="9.7044133"><ele>67.4</ele><time>2026-03-23T14:36:00.354Z</time></trkpt><trkpt lat="45.33612" lon="9.7045283"><ele>67.0</ele><time>2026-03-23T14:36:02.354Z</time></trkpt><trkpt lat="45.3361867" lon="9.704635"><ele>67.0</ele><time>2026-03-23T14:36:04.354Z</time></trkpt><trkpt lat="45.336255" lon="9.7047333"><ele>67.0</ele><time>2026-03-23T14:36:06.353Z</time></trkpt><trkpt lat="45.336335" lon="9.70484"><ele>67.0</ele><time>2026-03-23T14:36:08.353Z</time></trkpt><trkpt lat="45.3364167" lon="9.7049533"><ele>67.0</ele><time>2026-03-23T14:36:10.354Z</time></trkpt><trkpt lat="45.3365117" lon="9.7050533"><ele>67.0</ele><time>2026-03-23T14:36:12.353Z</time></trkpt><trkpt lat="45.3365967" lon="9.705175"><ele>66.5</ele><time>2026-03-23T14:36:14.353Z</time></trkpt><trkpt lat="45.33669" lon="9.7052983"><ele>66.0</ele><time>2026-03-23T14:36:16.353Z</time></trkpt><trkpt lat="45.3367783" lon="9.7054183"><ele>65.5</ele><time>2026-03-23T14:36:18.353Z</time></trkpt><trkpt lat="45.3368233" lon="9.7054817"><ele>65.0</ele><time>2026-03-23T14:36:19.353Z</time></trkpt><trkpt lat="45.3368667" lon="9.7055467"><ele>64.5</ele><time>2026-03-23T14:36:20.354Z</time></trkpt><trkpt lat="45.3369133" lon="9.705615"><ele>64.0</ele><time>2026-03-23T14:36:21.353Z</time></trkpt><trkpt lat="45.3369583" lon="9.705685"><ele>64.0</ele><time>2026-03-23T14:36:22.353Z</time></trkpt><trkpt lat="45.3370067" lon="9.705745"><ele>63.99999999999999</ele><time>2026-03-23T14:36:23.353Z</time></trkpt><trkpt lat="45.3370533" lon="9.70581"><ele>64.0</ele><time>2026-03-23T14:36:24.353Z</time></trkpt><trkpt lat="45.3371017" lon="9.7058733"><ele>64.0</ele><time>2026-03-23T14:36:25.353Z</time></trkpt><trkpt lat="45.3371517" lon="9.7059417"><ele>63.99999999999999</ele><time>2026-03-23T14:36:26.354Z</time></trkpt><trkpt lat="45.3371983" lon="9.706015"><ele>64.0</ele><time>2026-03-23T14:36:27.354Z</time></trkpt><trkpt lat="45.33724" lon="9.7060917"><ele>64.0</ele><time>2026-03-23T14:36:28.353Z</time></trkpt><trkpt lat="45.3372833" lon="9.7061733"><ele>64.14285714285714</ele><time>2026-03-23T14:36:29.353Z</time></trkpt><trkpt lat="45.33732" lon="9.70626"><ele>64.28571428571428</ele><time>2026-03-23T14:36:30.353Z</time></trkpt><trkpt lat="45.3373583" lon="9.70635"><ele>64.42857142857143</ele><time>2026-03-23T14:36:31.353Z</time></trkpt><trkpt lat="45.33738" lon="9.7064467"><ele>64.57142857142857</ele><time>2026-03-23T14:36:32.353Z</time></trkpt><trkpt lat="45.3374017" lon="9.70654"><ele>64.71428571428572</ele><time>2026-03-23T14:36:33.353Z</time></trkpt><trkpt lat="45.337425" lon="9.70663"><ele>64.85714285714286</ele><time>2026-03-23T14:36:34.353Z</time></trkpt><trkpt lat="45.3374417" lon="9.7067217"><ele>65.0</ele><time>2026-03-23T14:36:35.354Z</time></trkpt><trkpt lat="45.337465" lon="9.7068183"><ele>65.00000000000001</ele><time>2026-03-23T14:36:36.353Z</time></trkpt><trkpt lat="45.33749" lon="9.7069083"><ele>65.0</ele><time>2026-03-23T14:36:37.353Z</time></trkpt><trkpt lat="45.337515" lon="9.7069983"><ele>65.0</ele><time>2026-03-23T14:36:38.353Z</time></trkpt><trkpt lat="45.3375433" lon="9.707085"><ele>65.0</ele><time>2026-03-23T14:36:39.353Z</time></trkpt><trkpt lat="45.3375667" lon="9.707175"><ele>65.0</ele><time>2026-03-23T14:36:40.353Z</time></trkpt><trkpt lat="45.33759" lon="9.7072683"><ele>65.00000000000001</ele><time>2026-03-23T14:36:41.353Z</time></trkpt><trkpt lat="45.3376117" lon="9.7073567"><ele>65.0</ele><time>2026-03-23T14:36:42.353Z</time></trkpt><trkpt lat="45.3376383" lon="9.70745"><ele>65.00000000000001</ele><time>2026-03-23T14:36:43.353Z</time></trkpt><trkpt lat="45.3376633" lon="9.7075367"><ele>65.0</ele><time>2026-03-23T14:36:44.353Z</time></trkpt><trkpt lat="45.3376833" lon="9.7076217"><ele>65.0</ele><time>2026-03-23T14:36:45.353Z</time></trkpt><trkpt lat="45.3377083" lon="9.7077117"><ele>65.0</ele><time>2026-03-23T14:36:46.353Z</time></trkpt><trkpt lat="45.3377333" lon="9.7077967"><ele>65.0</ele><time>2026-03-23T14:36:47.353Z</time></trkpt><trkpt lat="45.3377633" lon="9.7078833"><ele>65.00000000000001</ele><time>2026-03-23T14:36:48.353Z</time></trkpt><trkpt lat="45.3377883" lon="9.7079683"><ele>65.0</ele><time>2026-03-23T14:36:49.353Z</time></trkpt><trkpt lat="45.3378117" lon="9.7080517"><ele>65.16666666666667</ele><time>2026-03-23T14:36:50.353Z</time></trkpt><trkpt lat="45.3378567" lon="9.708215"><ele>65.33333333333334</ele><time>2026-03-23T14:36:52.354Z</time></trkpt><trkpt lat="45.3378983" lon="9.7083733"><ele>65.5</ele><time>2026-03-23T14:36:54.353Z</time></trkpt><trkpt lat="45.3379217" lon="9.7084567"><ele>65.66666666666667</ele><time>2026-03-23T14:36:55.354Z</time></trkpt><trkpt lat="45.33795" lon="9.7085433"><ele>65.83333333333333</ele><time>2026-03-23T14:36:56.353Z</time></trkpt><trkpt lat="45.337975" lon="9.708635"><ele>66.0</ele><time>2026-03-23T14:36:57.353Z</time></trkpt><trkpt lat="45.338" lon="9.7087283"><ele>65.85714285714286</ele><time>2026-03-23T14:36:58.353Z</time></trkpt><trkpt lat="45.3380267" lon="9.7088217"><ele>65.71428571428572</ele><time>2026-03-23T14:36:59.353Z</time></trkpt><trkpt lat="45.3380517" lon="9.7089183"><ele>65.57142857142858</ele><time>2026-03-23T14:37:00.353Z</time></trkpt><trkpt lat="45.3380783" lon="9.709015"><ele>65.42857142857143</ele><time>2026-03-23T14:37:01.353Z</time></trkpt><trkpt lat="45.338105" lon="9.7091117"><ele>65.28571428571429</ele><time>2026-03-23T14:37:02.354Z</time></trkpt><trkpt lat="45.33813" lon="9.709205"><ele>65.14285714285715</ele><time>2026-03-23T14:37:03.353Z</time></trkpt><trkpt lat="45.3381567" lon="9.7093033"><ele>65.0</ele><time>2026-03-23T14:37:04.353Z</time></trkpt><trkpt lat="45.3381817" lon="9.7093983"><ele>65.00000000000001</ele><time>2026-03-23T14:37:05.353Z</time></trkpt><trkpt lat="45.3382083" lon="9.7094933"><ele>65.0</ele><time>2026-03-23T14:37:06.353Z</time></trkpt><trkpt lat="45.3382383" lon="9.7095867"><ele>65.0</ele><time>2026-03-23T14:37:07.353Z</time></trkpt><trkpt lat="45.338265" lon="9.7096817"><ele>65.0</ele><time>2026-03-23T14:37:08.353Z</time></trkpt><trkpt lat="45.3382917" lon="9.7097783"><ele>65.0</ele><time>2026-03-23T14:37:09.353Z</time></trkpt><trkpt lat="45.338315" lon="9.7098733"><ele>65.00000000000001</ele><time>2026-03-23T14:37:10.354Z</time></trkpt><trkpt lat="45.33834" lon="9.70997"><ele>65.0</ele><time>2026-03-23T14:37:11.353Z</time></trkpt><trkpt lat="45.338365" lon="9.710065"><ele>65.00000000000001</ele><time>2026-03-23T14:37:12.354Z</time></trkpt><trkpt lat="45.3383967" lon="9.71016"><ele>65.0</ele><time>2026-03-23T14:37:13.353Z</time></trkpt><trkpt lat="45.3384267" lon="9.710255"><ele>65.0</ele><time>2026-03-23T14:37:14.353Z</time></trkpt><trkpt lat="45.33845" lon="9.7103483"><ele>65.0</ele><time>2026-03-23T14:37:15.354Z</time></trkpt><trkpt lat="45.3384733" lon="9.7104433"><ele>65.0</ele><time>2026-03-23T14:37:16.353Z</time></trkpt><trkpt lat="45.3385017" lon="9.7105367"><ele>65.00000000000001</ele><time>2026-03-23T14:37:17.353Z</time></trkpt><trkpt lat="45.3385267" lon="9.71063"><ele>65.0</ele><time>2026-03-23T14:37:18.353Z</time></trkpt><trkpt lat="45.3385617" lon="9.71072"><ele>65.00000000000001</ele><time>2026-03-23T14:37:19.353Z</time></trkpt><trkpt lat="45.3385983" lon="9.710805"><ele>65.0</ele><time>2026-03-23T14:37:20.354Z</time></trkpt><trkpt lat="45.3386367" lon="9.710885"><ele>65.0</ele><time>2026-03-23T14:37:21.354Z</time></trkpt><trkpt lat="45.3386817" lon="9.7109617"><ele>65.0</ele><time>2026-03-23T14:37:22.353Z</time></trkpt><trkpt lat="45.3387267" lon="9.7110383"><ele>65.0</ele><time>2026-03-23T14:37:23.353Z</time></trkpt><trkpt lat="45.3387717" lon="9.71112"><ele>65.00000000000001</ele><time>2026-03-23T14:37:24.353Z</time></trkpt><trkpt lat="45.3388183" lon="9.711195"><ele>65.0</ele><time>2026-03-23T14:37:25.353Z</time></trkpt><trkpt lat="45.3388617" lon="9.71127"><ele>65.14285714285715</ele><time>2026-03-23T14:37:26.353Z</time></trkpt><trkpt lat="45.33891" lon="9.7113433"><ele>65.28571428571429</ele><time>2026-03-23T14:37:27.353Z</time></trkpt><trkpt lat="45.3389583" lon="9.7114167"><ele>65.42857142857143</ele><time>2026-03-23T14:37:28.353Z</time></trkpt><trkpt lat="45.3390067" lon="9.7114867"><ele>65.57142857142858</ele><time>2026-03-23T14:37:29.353Z</time></trkpt><trkpt lat="45.3390533" lon="9.711565"><ele>65.71428571428572</ele><time>2026-03-23T14:37:30.353Z</time></trkpt><trkpt lat="45.3390983" lon="9.7116383"><ele>65.85714285714286</ele><time>2026-03-23T14:37:31.353Z</time></trkpt><trkpt lat="45.3391433" lon="9.7117033"><ele>66.0</ele><time>2026-03-23T14:37:32.353Z</time></trkpt><trkpt lat="45.339185" lon="9.7117783"><ele>66.0</ele><time>2026-03-23T14:37:33.353Z</time></trkpt><trkpt lat="45.3392267" lon="9.71185"><ele>66.0</ele><time>2026-03-23T14:37:34.353Z</time></trkpt><trkpt lat="45.3392733" lon="9.7119267"><ele>66.0</ele><time>2026-03-23T14:37:35.354Z</time></trkpt><trkpt lat="45.33932" lon="9.7119967"><ele>66.0</ele><time>2026-03-23T14:37:36.354Z</time></trkpt><trkpt lat="45.3393633" lon="9.7120683"><ele>66.0</ele><time>2026-03-23T14:37:37.353Z</time></trkpt><trkpt lat="45.3394133" lon="9.7121417"><ele>66.0</ele><time>2026-03-23T14:37:38.354Z</time></trkpt><trkpt lat="45.33946" lon="9.7122117"><ele>66.0</ele><time>2026-03-23T14:37:39.353Z</time></trkpt><trkpt lat="45.3395083" lon="9.71228"><ele>66.0</ele><time>2026-03-23T14:37:40.353Z</time></trkpt><trkpt lat="45.3395583" lon="9.712345"><ele>66.0</ele><time>2026-03-23T14:37:41.353Z</time></trkpt><trkpt lat="45.339615" lon="9.7124033"><ele>66.0</ele><time>2026-03-23T14:37:42.353Z</time></trkpt><trkpt lat="45.3396767" lon="9.7124567"><ele>66.0</ele><time>2026-03-23T14:37:43.353Z</time></trkpt><trkpt lat="45.3397383" lon="9.712505"><ele>66.0</ele><time>2026-03-23T14:37:44.354Z</time></trkpt><trkpt lat="45.3398017" lon="9.7125483"><ele>66.0</ele><time>2026-03-23T14:37:45.353Z</time></trkpt><trkpt lat="45.3398633" lon="9.7125833"><ele>66.0</ele><time>2026-03-23T14:37:46.353Z</time></trkpt><trkpt lat="45.3399283" lon="9.7126167"><ele>66.0</ele><time>2026-03-23T14:37:47.353Z</time></trkpt><trkpt lat="45.3399933" lon="9.7126567"><ele>66.0</ele><time>2026-03-23T14:37:48.353Z</time></trkpt><trkpt lat="45.3400533" lon="9.712695"><ele>66.0</ele><time>2026-03-23T14:37:49.353Z</time></trkpt><trkpt lat="45.3401167" lon="9.7127383"><ele>66.0</ele><time>2026-03-23T14:37:50.353Z</time></trkpt><trkpt lat="45.3401783" lon="9.7127783"><ele>66.0</ele><time>2026-03-23T14:37:51.353Z</time></trkpt><trkpt lat="45.3402417" lon="9.7128183"><ele>66.0</ele><time>2026-03-23T14:37:52.354Z</time></trkpt><trkpt lat="45.3403067" lon="9.7128533"><ele>66.0</ele><time>2026-03-23T14:37:53.353Z</time></trkpt><trkpt lat="45.34037" lon="9.7128933"><ele>65.71428571428571</ele><time>2026-03-23T14:37:54.353Z</time></trkpt><trkpt lat="45.34043" lon="9.712945"><ele>65.42857142857143</ele><time>2026-03-23T14:37:55.353Z</time></trkpt><trkpt lat="45.3404917" lon="9.7129967"><ele>65.14285714285714</ele><time>2026-03-23T14:37:56.353Z</time></trkpt><trkpt lat="45.34055" lon="9.71306"><ele>64.85714285714286</ele><time>2026-03-23T14:37:57.354Z</time></trkpt><trkpt lat="45.340595" lon="9.7131283"><ele>64.57142857142857</ele><time>2026-03-23T14:37:58.354Z</time></trkpt><trkpt lat="45.3406317" lon="9.7132083"><ele>64.28571428571428</ele><time>2026-03-23T14:37:59.353Z</time></trkpt><trkpt lat="45.3406767" lon="9.7132933"><ele>64.0</ele><time>2026-03-23T14:38:00.353Z</time></trkpt><trkpt lat="45.3407083" lon="9.7133867"><ele>64.0</ele><time>2026-03-23T14:38:01.353Z</time></trkpt><trkpt lat="45.340745" lon="9.7134783"><ele>63.99999999999999</ele><time>2026-03-23T14:38:02.353Z</time></trkpt><trkpt lat="45.3407733" lon="9.7135633"><ele>64.0</ele><time>2026-03-23T14:38:03.354Z</time></trkpt><trkpt lat="45.3408017" lon="9.7136517"><ele>64.0</ele><time>2026-03-23T14:38:04.353Z</time></trkpt><trkpt lat="45.3408267" lon="9.7137417"><ele>63.99999999999999</ele><time>2026-03-23T14:38:05.353Z</time></trkpt><trkpt lat="45.3408517" lon="9.71383"><ele>64.0</ele><time>2026-03-23T14:38:06.353Z</time></trkpt><trkpt lat="45.3408783" lon="9.7139183"><ele>64.0</ele><time>2026-03-23T14:38:07.353Z</time></trkpt><trkpt lat="45.3409083" lon="9.7140083"><ele>64.14285714285714</ele><time>2026-03-23T14:38:08.353Z</time></trkpt><trkpt lat="45.34094" lon="9.7141"><ele>64.28571428571428</ele><time>2026-03-23T14:38:09.354Z</time></trkpt><trkpt lat="45.34097" lon="9.7141883"><ele>64.42857142857143</ele><time>2026-03-23T14:38:10.353Z</time></trkpt><trkpt lat="45.340995" lon="9.7142767"><ele>64.57142857142857</ele><time>2026-03-23T14:38:11.353Z</time></trkpt><trkpt lat="45.3410233" lon="9.7143667"><ele>64.71428571428572</ele><time>2026-03-23T14:38:12.353Z</time></trkpt><trkpt lat="45.3410483" lon="9.714455"><ele>64.85714285714286</ele><time>2026-03-23T14:38:13.353Z</time></trkpt><trkpt lat="45.3410817" lon="9.7145417"><ele>65.0</ele><time>2026-03-23T14:38:14.354Z</time></trkpt><trkpt lat="45.3411033" lon="9.7146267"><ele>65.33333333333334</ele><time>2026-03-23T14:38:15.354Z</time></trkpt><trkpt lat="45.3411183" lon="9.714715"><ele>65.66666666666667</ele><time>2026-03-23T14:38:16.353Z</time></trkpt><trkpt lat="45.3411183" lon="9.7148983"><ele>66.0</ele><time>2026-03-23T14:38:18.353Z</time></trkpt><trkpt lat="45.341125" lon="9.7149883"><ele>66.33333333333333</ele><time>2026-03-23T14:38:19.354Z</time></trkpt><trkpt lat="45.3411567" lon="9.715155"><ele>66.66666666666666</ele><time>2026-03-23T14:38:21.353Z</time></trkpt><trkpt lat="45.34118" lon="9.71525"><ele>67.0</ele><time>2026-03-23T14:38:22.353Z</time></trkpt><trkpt lat="45.3412017" lon="9.7153417"><ele>67.14285714285714</ele><time>2026-03-23T14:38:23.354Z</time></trkpt><trkpt lat="45.3412283" lon="9.7154317"><ele>67.28571428571428</ele><time>2026-03-23T14:38:24.353Z</time></trkpt><trkpt lat="45.34125" lon="9.7155183"><ele>67.42857142857142</ele><time>2026-03-23T14:38:25.354Z</time></trkpt><trkpt lat="45.34127" lon="9.715605"><ele>67.57142857142857</ele><time>2026-03-23T14:38:26.353Z</time></trkpt><trkpt lat="45.3412867" lon="9.7156917"><ele>67.71428571428571</ele><time>2026-03-23T14:38:27.353Z</time></trkpt><trkpt lat="45.3413033" lon="9.715785"><ele>67.85714285714285</ele><time>2026-03-23T14:38:28.353Z</time></trkpt><trkpt lat="45.341315" lon="9.7158733"><ele>68.0</ele><time>2026-03-23T14:38:29.353Z</time></trkpt><trkpt lat="45.3413333" lon="9.715965"><ele>67.99999999999999</ele><time>2026-03-23T14:38:30.353Z</time></trkpt><trkpt lat="45.3413517" lon="9.7160617"><ele>68.0</ele><time>2026-03-23T14:38:31.354Z</time></trkpt><trkpt lat="45.3413733" lon="9.716155"><ele>68.0</ele><time>2026-03-23T14:38:32.353Z</time></trkpt><trkpt lat="45.3413933" lon="9.7162483"><ele>68.0</ele><time>2026-03-23T14:38:33.353Z</time></trkpt><trkpt lat="45.3414117" lon="9.716345"><ele>68.0</ele><time>2026-03-23T14:38:34.354Z</time></trkpt><trkpt lat="45.34143" lon="9.7164367"><ele>67.99999999999999</ele><time>2026-03-23T14:38:35.353Z</time></trkpt><trkpt lat="45.3414467" lon="9.71653"><ele>68.0</ele><time>2026-03-23T14:38:36.353Z</time></trkpt><trkpt lat="45.34147" lon="9.716615"><ele>67.99999999999999</ele><time>2026-03-23T14:38:37.353Z</time></trkpt><trkpt lat="45.3415" lon="9.7167017"><ele>68.0</ele><time>2026-03-23T14:38:38.353Z</time></trkpt><trkpt lat="45.3415233" lon="9.71679"><ele>68.0</ele><time>2026-03-23T14:38:39.353Z</time></trkpt><trkpt lat="45.34156" lon="9.716875"><ele>68.0</ele><time>2026-03-23T14:38:40.354Z</time></trkpt><trkpt lat="45.3416" lon="9.7169533"><ele>68.0</ele><time>2026-03-23T14:38:41.354Z</time></trkpt><trkpt lat="45.341625" lon="9.7170383"><ele>67.99999999999999</ele><time>2026-03-23T14:38:42.353Z</time></trkpt><trkpt lat="45.3416567" lon="9.7171217"><ele>68.0</ele><time>2026-03-23T14:38:43.353Z</time></trkpt><trkpt lat="45.34172" lon="9.7172717"><ele>67.99999999999999</ele><time>2026-03-23T14:38:45.353Z</time></trkpt><trkpt lat="45.34175" lon="9.7173533"><ele>68.0</ele><time>2026-03-23T14:38:46.353Z</time></trkpt><trkpt lat="45.3417817" lon="9.7174317"><ele>68.0</ele><time>2026-03-23T14:38:47.353Z</time></trkpt><trkpt lat="45.3418133" lon="9.71751"><ele>68.0</ele><time>2026-03-23T14:38:48.353Z</time></trkpt><trkpt lat="45.341845" lon="9.7175917"><ele>68.0</ele><time>2026-03-23T14:38:49.353Z</time></trkpt><trkpt lat="45.3418783" lon="9.7176733"><ele>67.99999999999999</ele><time>2026-03-23T14:38:50.353Z</time></trkpt><trkpt lat="45.3419117" lon="9.7177583"><ele>68.0</ele><time>2026-03-23T14:38:51.353Z</time></trkpt><trkpt lat="45.341945" lon="9.7178467"><ele>67.99999999999999</ele><time>2026-03-23T14:38:52.353Z</time></trkpt><trkpt lat="45.3419783" lon="9.7179333"><ele>68.0</ele><time>2026-03-23T14:38:53.354Z</time></trkpt><trkpt lat="45.3420117" lon="9.7180133"><ele>68.0</ele><time>2026-03-23T14:38:54.353Z</time></trkpt><trkpt lat="45.342045" lon="9.7180933"><ele>68.0</ele><time>2026-03-23T14:38:55.353Z</time></trkpt><trkpt lat="45.3420817" lon="9.7181817"><ele>68.0</ele><time>2026-03-23T14:38:56.353Z</time></trkpt><trkpt lat="45.34212" lon="9.7182683"><ele>67.99999999999999</ele><time>2026-03-23T14:38:57.353Z</time></trkpt><trkpt lat="45.3421567" lon="9.7183583"><ele>68.0</ele><time>2026-03-23T14:38:58.353Z</time></trkpt><trkpt lat="45.34219" lon="9.7184483"><ele>67.99999999999999</ele><time>2026-03-23T14:38:59.353Z</time></trkpt><trkpt lat="45.3422217" lon="9.7185367"><ele>68.0</ele><time>2026-03-23T14:39:00.353Z</time></trkpt><trkpt lat="45.3422483" lon="9.7186233"><ele>68.0</ele><time>2026-03-23T14:39:01.353Z</time></trkpt><trkpt lat="45.342275" lon="9.7187117"><ele>68.0</ele><time>2026-03-23T14:39:02.353Z</time></trkpt><trkpt lat="45.3423" lon="9.7187967"><ele>68.0</ele><time>2026-03-23T14:39:03.353Z</time></trkpt><trkpt lat="45.3423233" lon="9.7188833"><ele>67.99999999999999</ele><time>2026-03-23T14:39:04.353Z</time></trkpt><trkpt lat="45.3423533" lon="9.7189633"><ele>68.0</ele><time>2026-03-23T14:39:05.353Z</time></trkpt><trkpt lat="45.34238" lon="9.7190517"><ele>67.99999999999999</ele><time>2026-03-23T14:39:06.353Z</time></trkpt><trkpt lat="45.342405" lon="9.7191417"><ele>68.0</ele><time>2026-03-23T14:39:07.353Z</time></trkpt><trkpt lat="45.3424283" lon="9.719235"><ele>68.0</ele><time>2026-03-23T14:39:08.353Z</time></trkpt><trkpt lat="45.3424583" lon="9.7193167"><ele>68.0</ele><time>2026-03-23T14:39:09.354Z</time></trkpt><trkpt lat="45.3424867" lon="9.719405"><ele>68.0</ele><time>2026-03-23T14:39:10.353Z</time></trkpt><trkpt lat="45.3425183" lon="9.7194983"><ele>67.99999999999999</ele><time>2026-03-23T14:39:11.353Z</time></trkpt><trkpt lat="45.3425417" lon="9.7195883"><ele>68.0</ele><time>2026-03-23T14:39:12.354Z</time></trkpt><trkpt lat="45.3425717" lon="9.7196733"><ele>68.0</ele><time>2026-03-23T14:39:13.353Z</time></trkpt><trkpt lat="45.34263" lon="9.71984"><ele>68.0</ele><time>2026-03-23T14:39:15.353Z</time></trkpt><trkpt lat="45.3426583" lon="9.71993"><ele>68.0</ele><time>2026-03-23T14:39:16.353Z</time></trkpt><trkpt lat="45.3426817" lon="9.7200217"><ele>68.0</ele><time>2026-03-23T14:39:17.353Z</time></trkpt><trkpt lat="45.3427067" lon="9.720115"><ele>68.0</ele><time>2026-03-23T14:39:18.353Z</time></trkpt><trkpt lat="45.3427333" lon="9.720205"><ele>68.0</ele><time>2026-03-23T14:39:19.353Z</time></trkpt><trkpt lat="45.3427567" lon="9.7202933"><ele>67.99999999999999</ele><time>2026-03-23T14:39:20.353Z</time></trkpt><trkpt lat="45.3427783" lon="9.7203817"><ele>68.0</ele><time>2026-03-23T14:39:21.354Z</time></trkpt><trkpt lat="45.342795" lon="9.7204717"><ele>68.0</ele><time>2026-03-23T14:39:22.353Z</time></trkpt><trkpt lat="45.3428133" lon="9.7205683"><ele>68.0</ele><time>2026-03-23T14:39:23.353Z</time></trkpt><trkpt lat="45.34283" lon="9.72066"><ele>68.0</ele><time>2026-03-23T14:39:24.353Z</time></trkpt><trkpt lat="45.3428467" lon="9.72075"><ele>67.99999999999999</ele><time>2026-03-23T14:39:25.353Z</time></trkpt><trkpt lat="45.3428617" lon="9.720845"><ele>68.0</ele><time>2026-03-23T14:39:26.353Z</time></trkpt><trkpt lat="45.3428717" lon="9.7209417"><ele>67.99999999999999</ele><time>2026-03-23T14:39:27.353Z</time></trkpt><trkpt lat="45.3428833" lon="9.721035"><ele>68.0</ele><time>2026-03-23T14:39:28.353Z</time></trkpt><trkpt lat="45.342885" lon="9.7211333"><ele>68.0</ele><time>2026-03-23T14:39:29.353Z</time></trkpt><trkpt lat="45.3428917" lon="9.72123"><ele>68.0</ele><time>2026-03-23T14:39:30.353Z</time></trkpt><trkpt lat="45.3429033" lon="9.72132"><ele>68.0</ele><time>2026-03-23T14:39:31.353Z</time></trkpt><trkpt lat="45.34292" lon="9.7214083"><ele>67.99999999999999</ele><time>2026-03-23T14:39:32.353Z</time></trkpt><trkpt lat="45.3429383" lon="9.721495"><ele>68.0</ele><time>2026-03-23T14:39:33.353Z</time></trkpt><trkpt lat="45.3429483" lon="9.7215883"><ele>68.14285714285714</ele><time>2026-03-23T14:39:34.353Z</time></trkpt><trkpt lat="45.34296" lon="9.7216867"><ele>68.28571428571428</ele><time>2026-03-23T14:39:35.353Z</time></trkpt><trkpt lat="45.342975" lon="9.721785"><ele>68.42857142857143</ele><time>2026-03-23T14:39:36.354Z</time></trkpt><trkpt lat="45.3429917" lon="9.72188"><ele>68.57142857142857</ele><time>2026-03-23T14:39:37.353Z</time></trkpt><trkpt lat="45.343" lon="9.721975"><ele>68.71428571428572</ele><time>2026-03-23T14:39:38.353Z</time></trkpt><trkpt lat="45.3430133" lon="9.7220733"><ele>68.85714285714286</ele><time>2026-03-23T14:39:39.353Z</time></trkpt><trkpt lat="45.3430267" lon="9.7221733"><ele>69.0</ele><time>2026-03-23T14:39:40.353Z</time></trkpt><trkpt lat="45.3430417" lon="9.7222783"><ele>68.85714285714286</ele><time>2026-03-23T14:39:41.354Z</time></trkpt><trkpt lat="45.3430533" lon="9.7223767"><ele>68.71428571428572</ele><time>2026-03-23T14:39:42.353Z</time></trkpt><trkpt lat="45.3430617" lon="9.7224733"><ele>68.57142857142857</ele><time>2026-03-23T14:39:43.353Z</time></trkpt><trkpt lat="45.3430633" lon="9.722565"><ele>68.42857142857143</ele><time>2026-03-23T14:39:44.353Z</time></trkpt><trkpt lat="45.343075" lon="9.7226633"><ele>68.28571428571428</ele><time>2026-03-23T14:39:45.354Z</time></trkpt><trkpt lat="45.3430817" lon="9.7227667"><ele>68.14285714285714</ele><time>2026-03-23T14:39:46.353Z</time></trkpt><trkpt lat="45.3430883" lon="9.72287"><ele>68.0</ele><time>2026-03-23T14:39:47.353Z</time></trkpt><trkpt lat="45.3430883" lon="9.7229683"><ele>67.99999999999999</ele><time>2026-03-23T14:39:48.353Z</time></trkpt><trkpt lat="45.3430867" lon="9.7230633"><ele>68.0</ele><time>2026-03-23T14:39:49.353Z</time></trkpt><trkpt lat="45.34308" lon="9.7231567"><ele>68.0</ele><time>2026-03-23T14:39:50.353Z</time></trkpt><trkpt lat="45.343075" lon="9.7232517"><ele>68.0</ele><time>2026-03-23T14:39:51.353Z</time></trkpt><trkpt lat="45.3430667" lon="9.7233483"><ele>68.0</ele><time>2026-03-23T14:39:52.353Z</time></trkpt><trkpt lat="45.34306" lon="9.723455"><ele>67.99999999999999</ele><time>2026-03-23T14:39:53.353Z</time></trkpt><trkpt lat="45.34305" lon="9.7235583"><ele>68.0</ele><time>2026-03-23T14:39:54.354Z</time></trkpt><trkpt lat="45.34304" lon="9.7236533"><ele>68.16666666666667</ele><time>2026-03-23T14:39:55.354Z</time></trkpt><trkpt lat="45.343035" lon="9.7237533"><ele>68.33333333333334</ele><time>2026-03-23T14:39:56.354Z</time></trkpt><trkpt lat="45.34302" lon="9.7239317"><ele>68.5</ele><time>2026-03-23T14:39:58.353Z</time></trkpt><trkpt lat="45.3430183" lon="9.72403"><ele>68.66666666666667</ele><time>2026-03-23T14:39:59.354Z</time></trkpt><trkpt lat="45.34301" lon="9.7241267"><ele>68.83333333333333</ele><time>2026-03-23T14:40:00.353Z</time></trkpt><trkpt lat="45.3429967" lon="9.7242217"><ele>69.0</ele><time>2026-03-23T14:40:01.353Z</time></trkpt><trkpt lat="45.3429883" lon="9.7243133"><ele>69.2</ele><time>2026-03-23T14:40:02.353Z</time></trkpt><trkpt lat="45.342975" lon="9.7244933"><ele>69.4</ele><time>2026-03-23T14:40:04.353Z</time></trkpt><trkpt lat="45.3429717" lon="9.724585"><ele>69.6</ele><time>2026-03-23T14:40:05.353Z</time></trkpt><trkpt lat="45.3429833" lon="9.724765"><ele>69.8</ele><time>2026-03-23T14:40:07.353Z</time></trkpt><trkpt lat="45.343005" lon="9.724935"><ele>70.0</ele><time>2026-03-23T14:40:09.353Z</time></trkpt><trkpt lat="45.3430267" lon="9.7251083"><ele>70.2</ele><time>2026-03-23T14:40:11.353Z</time></trkpt><trkpt lat="45.343055" lon="9.7252633"><ele>70.4</ele><time>2026-03-23T14:40:13.353Z</time></trkpt><trkpt lat="45.3430833" lon="9.7254083"><ele>70.6</ele><time>2026-03-23T14:40:15.354Z</time></trkpt><trkpt lat="45.343115" lon="9.7255283"><ele>70.8</ele><time>2026-03-23T14:40:17.353Z</time></trkpt><trkpt lat="45.3431483" lon="9.7256067"><ele>71.0</ele><time>2026-03-23T14:40:20.354Z</time></trkpt><trkpt lat="45.343225" lon="9.7256517"><ele>71.0</ele><time>2026-03-23T14:40:26.354Z</time></trkpt><trkpt lat="45.3432933" lon="9.72574"><ele>71.0</ele><time>2026-03-23T14:40:29.353Z</time></trkpt><trkpt lat="45.3433167" lon="9.7258233"><ele>71.0</ele><time>2026-03-23T14:40:31.353Z</time></trkpt><trkpt lat="45.3433417" lon="9.72593"><ele>71.0</ele><time>2026-03-23T14:40:33.353Z</time></trkpt><trkpt lat="45.34336" lon="9.7260367"><ele>71.0</ele><time>2026-03-23T14:40:35.353Z</time></trkpt><trkpt lat="45.3433767" lon="9.7261533"><ele>71.0</ele><time>2026-03-23T14:40:37.353Z</time></trkpt><trkpt lat="45.343395" lon="9.7262667"><ele>71.0</ele><time>2026-03-23T14:40:39.353Z</time></trkpt><trkpt lat="45.343415" lon="9.726385"><ele>71.0</ele><time>2026-03-23T14:40:41.353Z</time></trkpt><trkpt lat="45.343445" lon="9.7265067"><ele>71.0</ele><time>2026-03-23T14:40:43.353Z</time></trkpt><trkpt lat="45.3434767" lon="9.7266233"><ele>71.0</ele><time>2026-03-23T14:40:45.353Z</time></trkpt><trkpt lat="45.3434883" lon="9.7267483"><ele>71.0</ele><time>2026-03-23T14:40:47.353Z</time></trkpt><trkpt lat="45.3434933" lon="9.726875"><ele>71.0</ele><time>2026-03-23T14:40:49.353Z</time></trkpt><trkpt lat="45.3435117" lon="9.727005"><ele>71.0</ele><time>2026-03-23T14:40:51.353Z</time></trkpt><trkpt lat="45.3435317" lon="9.7271333"><ele>71.0</ele><time>2026-03-23T14:40:53.353Z</time></trkpt><trkpt lat="45.3435467" lon="9.727275"><ele>71.0</ele><time>2026-03-23T14:40:55.353Z</time></trkpt><trkpt lat="45.3435633" lon="9.72742"><ele>71.0</ele><time>2026-03-23T14:40:57.352Z</time></trkpt><trkpt lat="45.34358" lon="9.7275767"><ele>71.0</ele><time>2026-03-23T14:40:59.353Z</time></trkpt><trkpt lat="45.3436033" lon="9.7277367"><ele>70.8</ele><time>2026-03-23T14:41:01.352Z</time></trkpt><trkpt lat="45.3436383" lon="9.7278783"><ele>70.6</ele><time>2026-03-23T14:41:03.353Z</time></trkpt><trkpt lat="45.343665" lon="9.7280283"><ele>70.4</ele><time>2026-03-23T14:41:05.352Z</time></trkpt><trkpt lat="45.343675" lon="9.7281633"><ele>70.2</ele><time>2026-03-23T14:41:07.353Z</time></trkpt><trkpt lat="45.3437" lon="9.7283133"><ele>70.0</ele><time>2026-03-23T14:41:09.352Z</time></trkpt><trkpt lat="45.3437217" lon="9.7284717"><ele>70.2</ele><time>2026-03-23T14:41:11.352Z</time></trkpt><trkpt lat="45.343745" lon="9.728625"><ele>70.4</ele><time>2026-03-23T14:41:13.353Z</time></trkpt><trkpt lat="45.3437567" lon="9.7287817"><ele>70.6</ele><time>2026-03-23T14:41:15.352Z</time></trkpt><trkpt lat="45.34378" lon="9.7289383"><ele>70.8</ele><time>2026-03-23T14:41:17.352Z</time></trkpt><trkpt lat="45.3437633" lon="9.729075"><ele>71.0</ele><time>2026-03-23T14:41:19.353Z</time></trkpt><trkpt lat="45.3437167" lon="9.7291567"><ele>71.0</ele><time>2026-03-23T14:41:21.352Z</time></trkpt><trkpt lat="45.343725" lon="9.72928"><ele>71.0</ele><time>2026-03-23T14:41:23.352Z</time></trkpt><trkpt lat="45.3437933" lon="9.7294167"><ele>71.0</ele><time>2026-03-23T14:41:25.352Z</time></trkpt><trkpt lat="45.34384" lon="9.729505"><ele>71.0</ele><time>2026-03-23T14:41:26.352Z</time></trkpt><trkpt lat="45.3438867" lon="9.72961"><ele>71.0</ele><time>2026-03-23T14:41:27.352Z</time></trkpt><trkpt lat="45.3439217" lon="9.729725"><ele>70.8</ele><time>2026-03-23T14:41:28.352Z</time></trkpt><trkpt lat="45.3439583" lon="9.7298433"><ele>70.6</ele><time>2026-03-23T14:41:29.352Z</time></trkpt><trkpt lat="45.344" lon="9.7299533"><ele>70.4</ele><time>2026-03-23T14:41:30.352Z</time></trkpt><trkpt lat="45.3440367" lon="9.7300767"><ele>70.2</ele><time>2026-03-23T14:41:31.352Z</time></trkpt><trkpt lat="45.344085" lon="9.7302"><ele>70.0</ele><time>2026-03-23T14:41:32.352Z</time></trkpt><trkpt lat="45.3441083" lon="9.7303167"><ele>69.83333333333333</ele><time>2026-03-23T14:41:33.352Z</time></trkpt><trkpt lat="45.3441617" lon="9.7304433"><ele>69.66666666666666</ele><time>2026-03-23T14:41:34.352Z</time></trkpt><trkpt lat="45.3442" lon="9.730555"><ele>69.5</ele><time>2026-03-23T14:41:35.352Z</time></trkpt><trkpt lat="45.34424" lon="9.730645"><ele>69.33333333333333</ele><time>2026-03-23T14:41:36.352Z</time></trkpt><trkpt lat="45.3442883" lon="9.7307333"><ele>69.16666666666667</ele><time>2026-03-23T14:41:37.352Z</time></trkpt><trkpt lat="45.3443367" lon="9.7308117"><ele>69.0</ele><time>2026-03-23T14:41:38.352Z</time></trkpt><trkpt lat="45.3443867" lon="9.7308817"><ele>69.0</ele><time>2026-03-23T14:41:39.352Z</time></trkpt><trkpt lat="45.3444367" lon="9.7309367"><ele>69.0</ele><time>2026-03-23T14:41:40.352Z</time></trkpt><trkpt lat="45.34449" lon="9.731"><ele>69.0</ele><time>2026-03-23T14:41:41.352Z</time></trkpt><trkpt lat="45.3445433" lon="9.7310533"><ele>69.0</ele><time>2026-03-23T14:41:42.352Z</time></trkpt><trkpt lat="45.3445967" lon="9.7311033"><ele>69.0</ele><time>2026-03-23T14:41:43.352Z</time></trkpt><trkpt lat="45.3447083" lon="9.731185"><ele>69.0</ele><time>2026-03-23T14:41:45.352Z</time></trkpt><trkpt lat="45.344775" lon="9.731225"><ele>69.5</ele><time>2026-03-23T14:41:46.352Z</time></trkpt><trkpt lat="45.344895" lon="9.731285"><ele>70.0</ele><time>2026-03-23T14:41:48.352Z</time></trkpt><trkpt lat="45.345005" lon="9.7313333"><ele>70.5</ele><time>2026-03-23T14:41:50.352Z</time></trkpt><trkpt lat="45.3451133" lon="9.73138"><ele>71.0</ele><time>2026-03-23T14:41:52.352Z</time></trkpt><trkpt lat="45.3452133" lon="9.73145"><ele>71.0</ele><time>2026-03-23T14:41:54.353Z</time></trkpt><trkpt lat="45.3453283" lon="9.731505"><ele>71.0</ele><time>2026-03-23T14:41:56.352Z</time></trkpt><trkpt lat="45.345445" lon="9.7315633"><ele>71.0</ele><time>2026-03-23T14:41:58.353Z</time></trkpt><trkpt lat="45.345505" lon="9.7316"><ele>71.0</ele><time>2026-03-23T14:41:59.353Z</time></trkpt><trkpt lat="45.3456217" lon="9.7316683"><ele>71.0</ele><time>2026-03-23T14:42:01.352Z</time></trkpt><trkpt lat="45.3456767" lon="9.731715"><ele>70.83333333333334</ele><time>2026-03-23T14:42:02.353Z</time></trkpt><trkpt lat="45.3457317" lon="9.7317617"><ele>70.66666666666667</ele><time>2026-03-23T14:42:03.352Z</time></trkpt><trkpt lat="45.34579" lon="9.7318067"><ele>70.5</ele><time>2026-03-23T14:42:04.352Z</time></trkpt><trkpt lat="45.3458467" lon="9.7318517"><ele>70.33333333333333</ele><time>2026-03-23T14:42:05.352Z</time></trkpt><trkpt lat="45.3459517" lon="9.7319567"><ele>70.16666666666666</ele><time>2026-03-23T14:42:07.353Z</time></trkpt><trkpt lat="45.3460467" lon="9.7320683"><ele>70.0</ele><time>2026-03-23T14:42:09.352Z</time></trkpt><trkpt lat="45.3460983" lon="9.7321267"><ele>70.0</ele><time>2026-03-23T14:42:10.353Z</time></trkpt><trkpt lat="45.34615" lon="9.732185"><ele>70.0</ele><time>2026-03-23T14:42:11.352Z</time></trkpt><trkpt lat="45.3462017" lon="9.732245"><ele>70.0</ele><time>2026-03-23T14:42:12.352Z</time></trkpt><trkpt lat="45.34625" lon="9.732305"><ele>70.0</ele><time>2026-03-23T14:42:13.352Z</time></trkpt><trkpt lat="45.3463033" lon="9.73237"><ele>70.0</ele><time>2026-03-23T14:42:14.352Z</time></trkpt><trkpt lat="45.346355" lon="9.7324317"><ele>70.0</ele><time>2026-03-23T14:42:15.352Z</time></trkpt><trkpt lat="45.346445" lon="9.7325617"><ele>70.0</ele><time>2026-03-23T14:42:17.352Z</time></trkpt><trkpt lat="45.3465283" lon="9.7326867"><ele>70.0</ele><time>2026-03-23T14:42:19.353Z</time></trkpt><trkpt lat="45.3466083" lon="9.7328167"><ele>70.0</ele><time>2026-03-23T14:42:21.352Z</time></trkpt><trkpt lat="45.3466533" lon="9.7328817"><ele>70.0</ele><time>2026-03-23T14:42:22.352Z</time></trkpt><trkpt lat="45.34669" lon="9.732955"><ele>70.0</ele><time>2026-03-23T14:42:23.352Z</time></trkpt><trkpt lat="45.3467733" lon="9.7330883"><ele>70.0</ele><time>2026-03-23T14:42:25.353Z</time></trkpt><trkpt lat="45.346815" lon="9.7331567"><ele>70.0</ele><time>2026-03-23T14:42:26.352Z</time></trkpt><trkpt lat="45.3468983" lon="9.7332883"><ele>70.0</ele><time>2026-03-23T14:42:28.352Z</time></trkpt><trkpt lat="45.346945" lon="9.733355"><ele>70.0</ele><time>2026-03-23T14:42:29.352Z</time></trkpt><trkpt lat="45.3469883" lon="9.7334217"><ele>70.0</ele><time>2026-03-23T14:42:30.352Z</time></trkpt><trkpt lat="45.3470867" lon="9.733535"><ele>70.0</ele><time>2026-03-23T14:42:32.352Z</time></trkpt><trkpt lat="45.34714" lon="9.7335933"><ele>70.0</ele><time>2026-03-23T14:42:33.353Z</time></trkpt><trkpt lat="45.3471933" lon="9.7336533"><ele>70.0</ele><time>2026-03-23T14:42:34.352Z</time></trkpt><trkpt lat="45.3472983" lon="9.7337583"><ele>70.0</ele><time>2026-03-23T14:42:36.352Z</time></trkpt><trkpt lat="45.3473533" lon="9.73381"><ele>70.0</ele><time>2026-03-23T14:42:37.352Z</time></trkpt><trkpt lat="45.3474117" lon="9.7338567"><ele>70.0</ele><time>2026-03-23T14:42:38.352Z</time></trkpt><trkpt lat="45.34747" lon="9.733905"><ele>70.0</ele><time>2026-03-23T14:42:39.352Z</time></trkpt><trkpt lat="45.3475283" lon="9.7339633"><ele>69.85714285714286</ele><time>2026-03-23T14:42:40.352Z</time></trkpt><trkpt lat="45.347585" lon="9.7340217"><ele>69.71428571428572</ele><time>2026-03-23T14:42:41.352Z</time></trkpt><trkpt lat="45.3476417" lon="9.7340783"><ele>69.57142857142857</ele><time>2026-03-23T14:42:42.353Z</time></trkpt><trkpt lat="45.3477" lon="9.7341317"><ele>69.42857142857143</ele><time>2026-03-23T14:42:43.352Z</time></trkpt><trkpt lat="45.3477567" lon="9.734185"><ele>69.28571428571429</ele><time>2026-03-23T14:42:44.352Z</time></trkpt><trkpt lat="45.3478183" lon="9.7342383"><ele>69.14285714285714</ele><time>2026-03-23T14:42:45.352Z</time></trkpt><trkpt lat="45.347875" lon="9.7342933"><ele>69.0</ele><time>2026-03-23T14:42:46.352Z</time></trkpt><trkpt lat="45.3479333" lon="9.7343483"><ele>69.28571428571429</ele><time>2026-03-23T14:42:47.352Z</time></trkpt><trkpt lat="45.3479883" lon="9.7344"><ele>69.57142857142858</ele><time>2026-03-23T14:42:48.352Z</time></trkpt><trkpt lat="45.34805" lon="9.73445"><ele>69.85714285714286</ele><time>2026-03-23T14:42:49.353Z</time></trkpt><trkpt lat="45.3481067" lon="9.7345"><ele>70.14285714285714</ele><time>2026-03-23T14:42:50.352Z</time></trkpt><trkpt lat="45.3481683" lon="9.7345517"><ele>70.42857142857142</ele><time>2026-03-23T14:42:51.352Z</time></trkpt><trkpt lat="45.3482267" lon="9.7346067"><ele>70.71428571428571</ele><time>2026-03-23T14:42:52.353Z</time></trkpt><trkpt lat="45.348285" lon="9.7346683"><ele>71.0</ele><time>2026-03-23T14:42:53.352Z</time></trkpt><trkpt lat="45.34834" lon="9.7347317"><ele>71.0</ele><time>2026-03-23T14:42:54.352Z</time></trkpt><trkpt lat="45.348395" lon="9.7347917"><ele>71.0</ele><time>2026-03-23T14:42:55.352Z</time></trkpt><trkpt lat="45.3484483" lon="9.7348533"><ele>71.0</ele><time>2026-03-23T14:42:56.352Z</time></trkpt><trkpt lat="45.348505" lon="9.7349133"><ele>71.0</ele><time>2026-03-23T14:42:57.353Z</time></trkpt><trkpt lat="45.34856" lon="9.7349733"><ele>71.0</ele><time>2026-03-23T14:42:58.353Z</time></trkpt><trkpt lat="45.348615" lon="9.7350367"><ele>71.0</ele><time>2026-03-23T14:42:59.352Z</time></trkpt><trkpt lat="45.34867" lon="9.7350967"><ele>71.0</ele><time>2026-03-23T14:43:00.353Z</time></trkpt><trkpt lat="45.348725" lon="9.73516"><ele>70.85714285714286</ele><time>2026-03-23T14:43:01.352Z</time></trkpt><trkpt lat="45.34878" lon="9.7352233"><ele>70.71428571428571</ele><time>2026-03-23T14:43:02.352Z</time></trkpt><trkpt lat="45.3488333" lon="9.7352867"><ele>70.57142857142857</ele><time>2026-03-23T14:43:03.352Z</time></trkpt><trkpt lat="45.34889" lon="9.73535"><ele>70.42857142857143</ele><time>2026-03-23T14:43:04.352Z</time></trkpt><trkpt lat="45.3489433" lon="9.7354117"><ele>70.28571428571428</ele><time>2026-03-23T14:43:05.352Z</time></trkpt><trkpt lat="45.348995" lon="9.735475"><ele>70.14285714285714</ele><time>2026-03-23T14:43:06.353Z</time></trkpt><trkpt lat="45.34905" lon="9.7355433"><ele>70.0</ele><time>2026-03-23T14:43:07.353Z</time></trkpt><trkpt lat="45.3491067" lon="9.735605"><ele>70.0</ele><time>2026-03-23T14:43:08.352Z</time></trkpt><trkpt lat="45.34916" lon="9.7356667"><ele>70.0</ele><time>2026-03-23T14:43:09.352Z</time></trkpt><trkpt lat="45.3492133" lon="9.73573"><ele>70.0</ele><time>2026-03-23T14:43:10.352Z</time></trkpt><trkpt lat="45.3492683" lon="9.735795"><ele>70.0</ele><time>2026-03-23T14:43:11.352Z</time></trkpt><trkpt lat="45.3493233" lon="9.7358583"><ele>70.0</ele><time>2026-03-23T14:43:12.352Z</time></trkpt><trkpt lat="45.3493767" lon="9.73592"><ele>70.0</ele><time>2026-03-23T14:43:13.353Z</time></trkpt><trkpt lat="45.34943" lon="9.7359833"><ele>70.0</ele><time>2026-03-23T14:43:14.353Z</time></trkpt><trkpt lat="45.3494867" lon="9.73605"><ele>70.14285714285714</ele><time>2026-03-23T14:43:15.352Z</time></trkpt><trkpt lat="45.3495433" lon="9.7361167"><ele>70.28571428571428</ele><time>2026-03-23T14:43:16.352Z</time></trkpt><trkpt lat="45.3495983" lon="9.736185"><ele>70.42857142857143</ele><time>2026-03-23T14:43:17.352Z</time></trkpt><trkpt lat="45.349655" lon="9.7362467"><ele>70.57142857142857</ele><time>2026-03-23T14:43:18.352Z</time></trkpt><trkpt lat="45.34971" lon="9.7363083"><ele>70.71428571428571</ele><time>2026-03-23T14:43:19.352Z</time></trkpt><trkpt lat="45.3497633" lon="9.7363733"><ele>70.85714285714286</ele><time>2026-03-23T14:43:20.353Z</time></trkpt><trkpt lat="45.34982" lon="9.7364367"><ele>71.0</ele><time>2026-03-23T14:43:21.353Z</time></trkpt><trkpt lat="45.3498783" lon="9.7364967"><ele>70.85714285714286</ele><time>2026-03-23T14:43:22.353Z</time></trkpt><trkpt lat="45.3499367" lon="9.7365567"><ele>70.71428571428571</ele><time>2026-03-23T14:43:23.352Z</time></trkpt><trkpt lat="45.3499933" lon="9.7366217"><ele>70.57142857142857</ele><time>2026-03-23T14:43:24.352Z</time></trkpt><trkpt lat="45.3500533" lon="9.736685"><ele>70.42857142857143</ele><time>2026-03-23T14:43:25.352Z</time></trkpt><trkpt lat="45.350115" lon="9.7367467"><ele>70.28571428571428</ele><time>2026-03-23T14:43:26.353Z</time></trkpt><trkpt lat="45.3501717" lon="9.7368083"><ele>70.14285714285714</ele><time>2026-03-23T14:43:27.352Z</time></trkpt><trkpt lat="45.3502283" lon="9.73687"><ele>70.0</ele><time>2026-03-23T14:43:28.352Z</time></trkpt><trkpt lat="45.3502867" lon="9.7369333"><ele>70.0</ele><time>2026-03-23T14:43:29.352Z</time></trkpt><trkpt lat="45.3503433" lon="9.7369967"><ele>70.0</ele><time>2026-03-23T14:43:30.352Z</time></trkpt><trkpt lat="45.3503967" lon="9.7370633"><ele>70.0</ele><time>2026-03-23T14:43:31.352Z</time></trkpt><trkpt lat="45.350455" lon="9.7371317"><ele>70.0</ele><time>2026-03-23T14:43:32.352Z</time></trkpt><trkpt lat="45.35051" lon="9.7372067"><ele>70.0</ele><time>2026-03-23T14:43:33.352Z</time></trkpt><trkpt lat="45.350565" lon="9.7372733"><ele>70.0</ele><time>2026-03-23T14:43:34.353Z</time></trkpt><trkpt lat="45.3506233" lon="9.73734"><ele>70.0</ele><time>2026-03-23T14:43:35.352Z</time></trkpt><trkpt lat="45.350685" lon="9.7374017"><ele>70.16666666666666</ele><time>2026-03-23T14:43:36.352Z</time></trkpt><trkpt lat="45.3507433" lon="9.7374717"><ele>70.33333333333333</ele><time>2026-03-23T14:43:37.352Z</time></trkpt><trkpt lat="45.3508" lon="9.737545"><ele>70.5</ele><time>2026-03-23T14:43:38.352Z</time></trkpt><trkpt lat="45.3508583" lon="9.737615"><ele>70.66666666666667</ele><time>2026-03-23T14:43:39.352Z</time></trkpt><trkpt lat="45.3509167" lon="9.7376833"><ele>70.83333333333334</ele><time>2026-03-23T14:43:40.352Z</time></trkpt><trkpt lat="45.350975" lon="9.7377533"><ele>71.0</ele><time>2026-03-23T14:43:41.352Z</time></trkpt><trkpt lat="45.3510317" lon="9.73782"><ele>71.0</ele><time>2026-03-23T14:43:42.352Z</time></trkpt><trkpt lat="45.3510967" lon="9.7378883"><ele>71.0</ele><time>2026-03-23T14:43:43.352Z</time></trkpt><trkpt lat="45.3511567" lon="9.7379583"><ele>71.0</ele><time>2026-03-23T14:43:44.352Z</time></trkpt><trkpt lat="45.35122" lon="9.7380233"><ele>71.0</ele><time>2026-03-23T14:43:45.352Z</time></trkpt><trkpt lat="45.3512783" lon="9.73809"><ele>71.0</ele><time>2026-03-23T14:43:46.352Z</time></trkpt><trkpt lat="45.351335" lon="9.73816"><ele>71.0</ele><time>2026-03-23T14:43:47.352Z</time></trkpt><trkpt lat="45.3513933" lon="9.7382283"><ele>70.83333333333334</ele><time>2026-03-23T14:43:48.353Z</time></trkpt><trkpt lat="45.3514567" lon="9.7382983"><ele>70.66666666666667</ele><time>2026-03-23T14:43:49.353Z</time></trkpt><trkpt lat="45.351515" lon="9.7383667"><ele>70.5</ele><time>2026-03-23T14:43:50.353Z</time></trkpt><trkpt lat="45.3515783" lon="9.7384383"><ele>70.33333333333333</ele><time>2026-03-23T14:43:51.352Z</time></trkpt><trkpt lat="45.3516367" lon="9.7385117"><ele>70.16666666666666</ele><time>2026-03-23T14:43:52.353Z</time></trkpt><trkpt lat="45.3516967" lon="9.7385833"><ele>70.0</ele><time>2026-03-23T14:43:53.352Z</time></trkpt><trkpt lat="45.3517567" lon="9.7386533"><ele>70.33333333333333</ele><time>2026-03-23T14:43:54.352Z</time></trkpt><trkpt lat="45.35182" lon="9.73872"><ele>70.66666666666666</ele><time>2026-03-23T14:43:55.353Z</time></trkpt><trkpt lat="45.3518817" lon="9.7387917"><ele>71.0</ele><time>2026-03-23T14:43:56.353Z</time></trkpt><trkpt lat="45.3519433" lon="9.7388617"><ele>71.33333333333333</ele><time>2026-03-23T14:43:57.352Z</time></trkpt><trkpt lat="45.352005" lon="9.7389333"><ele>71.66666666666667</ele><time>2026-03-23T14:43:58.352Z</time></trkpt><trkpt lat="45.3520667" lon="9.739005"><ele>72.0</ele><time>2026-03-23T14:43:59.353Z</time></trkpt><trkpt lat="45.3521283" lon="9.739075"><ele>72.0</ele><time>2026-03-23T14:44:00.353Z</time></trkpt><trkpt lat="45.3521883" lon="9.7391433"><ele>72.0</ele><time>2026-03-23T14:44:01.352Z</time></trkpt><trkpt lat="45.3522483" lon="9.7392067"><ele>72.0</ele><time>2026-03-23T14:44:02.352Z</time></trkpt><trkpt lat="45.3523083" lon="9.7392733"><ele>72.0</ele><time>2026-03-23T14:44:03.352Z</time></trkpt><trkpt lat="45.3523683" lon="9.7393433"><ele>72.0</ele><time>2026-03-23T14:44:04.352Z</time></trkpt><trkpt lat="45.352425" lon="9.7394133"><ele>72.0</ele><time>2026-03-23T14:44:05.353Z</time></trkpt><trkpt lat="45.35249" lon="9.739485"><ele>71.83333333333333</ele><time>2026-03-23T14:44:06.353Z</time></trkpt><trkpt lat="45.3525517" lon="9.7395583"><ele>71.66666666666667</ele><time>2026-03-23T14:44:07.353Z</time></trkpt><trkpt lat="45.3526133" lon="9.7396283"><ele>71.5</ele><time>2026-03-23T14:44:08.352Z</time></trkpt><trkpt lat="45.3526733" lon="9.739695"><ele>71.33333333333334</ele><time>2026-03-23T14:44:09.352Z</time></trkpt><trkpt lat="45.352735" lon="9.7397633"><ele>71.16666666666667</ele><time>2026-03-23T14:44:10.352Z</time></trkpt><trkpt lat="45.3527933" lon="9.739835"><ele>71.0</ele><time>2026-03-23T14:44:11.352Z</time></trkpt><trkpt lat="45.3528517" lon="9.7399067"><ele>71.0</ele><time>2026-03-23T14:44:12.352Z</time></trkpt><trkpt lat="45.3529067" lon="9.73998"><ele>71.0</ele><time>2026-03-23T14:44:13.352Z</time></trkpt><trkpt lat="45.3529583" lon="9.7400517"><ele>71.0</ele><time>2026-03-23T14:44:14.352Z</time></trkpt><trkpt lat="45.3530083" lon="9.7401167"><ele>71.0</ele><time>2026-03-23T14:44:15.352Z</time></trkpt><trkpt lat="45.353055" lon="9.7401817"><ele>71.0</ele><time>2026-03-23T14:44:16.352Z</time></trkpt><trkpt lat="45.3531067" lon="9.740245"><ele>71.0</ele><time>2026-03-23T14:44:17.352Z</time></trkpt><trkpt lat="45.3531583" lon="9.7403033"><ele>71.0</ele><time>2026-03-23T14:44:18.353Z</time></trkpt><trkpt lat="45.3532083" lon="9.74036"><ele>71.39999999999999</ele><time>2026-03-23T14:44:19.352Z</time></trkpt><trkpt lat="45.3532583" lon="9.7404183"><ele>71.8</ele><time>2026-03-23T14:44:20.353Z</time></trkpt><trkpt lat="45.3533433" lon="9.7405283"><ele>72.19999999999999</ele><time>2026-03-23T14:44:22.352Z</time></trkpt><trkpt lat="45.3534167" lon="9.7406167"><ele>72.6</ele><time>2026-03-23T14:44:24.352Z</time></trkpt><trkpt lat="45.3534817" lon="9.7407067"><ele>73.0</ele><time>2026-03-23T14:44:26.353Z</time></trkpt><trkpt lat="45.3535417" lon="9.74079"><ele>73.0</ele><time>2026-03-23T14:44:28.353Z</time></trkpt><trkpt lat="45.3535483" lon="9.7409017"><ele>73.0</ele><time>2026-03-23T14:44:30.352Z</time></trkpt><trkpt lat="45.3534983" lon="9.74098"><ele>73.0</ele><time>2026-03-23T14:44:32.352Z</time></trkpt><trkpt lat="45.3534317" lon="9.7410417"><ele>73.0</ele><time>2026-03-23T14:44:34.352Z</time></trkpt><trkpt lat="45.3533683" lon="9.7410967"><ele>73.0</ele><time>2026-03-23T14:44:36.352Z</time></trkpt><trkpt lat="45.3533" lon="9.74115"><ele>73.0</ele><time>2026-03-23T14:44:38.352Z</time></trkpt><trkpt lat="45.35323" lon="9.74121"><ele>72.8</ele><time>2026-03-23T14:44:40.352Z</time></trkpt><trkpt lat="45.3531517" lon="9.7412733"><ele>72.6</ele><time>2026-03-23T14:44:42.352Z</time></trkpt><trkpt lat="45.3530683" lon="9.7413317"><ele>72.4</ele><time>2026-03-23T14:44:44.352Z</time></trkpt><trkpt lat="45.3529833" lon="9.741405"><ele>72.2</ele><time>2026-03-23T14:44:46.352Z</time></trkpt><trkpt lat="45.3529033" lon="9.741475"><ele>72.0</ele><time>2026-03-23T14:44:48.352Z</time></trkpt><trkpt lat="45.3528133" lon="9.7415467"><ele>72.0</ele><time>2026-03-23T14:44:50.353Z</time></trkpt><trkpt lat="45.3527267" lon="9.7416133"><ele>72.0</ele><time>2026-03-23T14:44:52.353Z</time></trkpt><trkpt lat="45.3526433" lon="9.74168"><ele>72.0</ele><time>2026-03-23T14:44:54.352Z</time></trkpt><trkpt lat="45.3525767" lon="9.741775"><ele>72.0</ele><time>2026-03-23T14:44:56.352Z</time></trkpt><trkpt lat="45.3525517" lon="9.7419133"><ele>72.0</ele><time>2026-03-23T14:44:58.352Z</time></trkpt><trkpt lat="45.3525767" lon="9.7420617"><ele>72.0</ele><time>2026-03-23T14:45:00.353Z</time></trkpt><trkpt lat="45.3526167" lon="9.7422083"><ele>72.0</ele><time>2026-03-23T14:45:02.353Z</time></trkpt><trkpt lat="45.35265" lon="9.7423567"><ele>72.0</ele><time>2026-03-23T14:45:04.352Z</time></trkpt><trkpt lat="45.3526767" lon="9.7425083"><ele>72.0</ele><time>2026-03-23T14:45:06.352Z</time></trkpt><trkpt lat="45.3527117" lon="9.7426633"><ele>72.0</ele><time>2026-03-23T14:45:08.353Z</time></trkpt><trkpt lat="45.352745" lon="9.7428233"><ele>72.25</ele><time>2026-03-23T14:45:10.352Z</time></trkpt><trkpt lat="45.352775" lon="9.7429867"><ele>72.5</ele><time>2026-03-23T14:45:12.352Z</time></trkpt><trkpt lat="45.3528067" lon="9.7431583"><ele>72.75</ele><time>2026-03-23T14:45:14.353Z</time></trkpt><trkpt lat="45.3528333" lon="9.743325"><ele>73.0</ele><time>2026-03-23T14:45:16.352Z</time></trkpt><trkpt lat="45.3528633" lon="9.7434867"><ele>73.16666666666666</ele><time>2026-03-23T14:45:18.352Z</time></trkpt><trkpt lat="45.352895" lon="9.7436533"><ele>73.33333333333333</ele><time>2026-03-23T14:45:20.352Z</time></trkpt><trkpt lat="45.35291" lon="9.7437433"><ele>73.5</ele><time>2026-03-23T14:45:21.353Z</time></trkpt><trkpt lat="45.3529267" lon="9.7438367"><ele>73.66666666666667</ele><time>2026-03-23T14:45:22.352Z</time></trkpt><trkpt lat="45.352945" lon="9.743925"><ele>73.83333333333334</ele><time>2026-03-23T14:45:23.352Z</time></trkpt><trkpt lat="45.3529667" lon="9.7440183"><ele>74.0</ele><time>2026-03-23T14:45:24.352Z</time></trkpt><trkpt lat="45.3529883" lon="9.7441083"><ele>74.0</ele><time>2026-03-23T14:45:25.352Z</time></trkpt><trkpt lat="45.35302" lon="9.7442883"><ele>74.0</ele><time>2026-03-23T14:45:27.352Z</time></trkpt><trkpt lat="45.3530383" lon="9.7443767"><ele>74.0</ele><time>2026-03-23T14:45:28.352Z</time></trkpt><trkpt lat="45.353055" lon="9.74447"><ele>74.0</ele><time>2026-03-23T14:45:29.352Z</time></trkpt><trkpt lat="45.3530733" lon="9.7445567"><ele>74.0</ele><time>2026-03-23T14:45:30.353Z</time></trkpt><trkpt lat="45.3530917" lon="9.7446483"><ele>74.0</ele><time>2026-03-23T14:45:31.352Z</time></trkpt><trkpt lat="45.3531067" lon="9.7447367"><ele>74.0</ele><time>2026-03-23T14:45:32.352Z</time></trkpt><trkpt lat="45.3531367" lon="9.744905"><ele>74.0</ele><time>2026-03-23T14:45:34.353Z</time></trkpt><trkpt lat="45.3531533" lon="9.7449967"><ele>74.0</ele><time>2026-03-23T14:45:35.353Z</time></trkpt><trkpt lat="45.3531667" lon="9.7450883"><ele>74.0</ele><time>2026-03-23T14:45:36.352Z</time></trkpt><trkpt lat="45.3531833" lon="9.745175"><ele>74.0</ele><time>2026-03-23T14:45:37.352Z</time></trkpt><trkpt lat="45.3532" lon="9.745265"><ele>74.0</ele><time>2026-03-23T14:45:38.352Z</time></trkpt><trkpt lat="45.3532167" lon="9.7453533"><ele>74.0</ele><time>2026-03-23T14:45:39.352Z</time></trkpt><trkpt lat="45.353235" lon="9.7454417"><ele>74.0</ele><time>2026-03-23T14:45:40.352Z</time></trkpt><trkpt lat="45.353255" lon="9.745535"><ele>74.0</ele><time>2026-03-23T14:45:41.353Z</time></trkpt><trkpt lat="45.353275" lon="9.7456267"><ele>74.0</ele><time>2026-03-23T14:45:42.352Z</time></trkpt><trkpt lat="45.35329" lon="9.7457217"><ele>74.0</ele><time>2026-03-23T14:45:43.352Z</time></trkpt><trkpt lat="45.3533067" lon="9.7458133"><ele>74.0</ele><time>2026-03-23T14:45:44.352Z</time></trkpt><trkpt lat="45.353315" lon="9.745905"><ele>74.0</ele><time>2026-03-23T14:45:45.352Z</time></trkpt><trkpt lat="45.3533267" lon="9.7459967"><ele>74.0</ele><time>2026-03-23T14:45:46.352Z</time></trkpt><trkpt lat="45.35334" lon="9.7460867"><ele>74.0</ele><time>2026-03-23T14:45:47.353Z</time></trkpt><trkpt lat="45.3533517" lon="9.746175"><ele>74.0</ele><time>2026-03-23T14:45:48.352Z</time></trkpt><trkpt lat="45.3533833" lon="9.7463483"><ele>74.0</ele><time>2026-03-23T14:45:50.352Z</time></trkpt><trkpt lat="45.3534067" lon="9.7464333"><ele>74.0</ele><time>2026-03-23T14:45:51.352Z</time></trkpt><trkpt lat="45.35345" lon="9.7466"><ele>74.0</ele><time>2026-03-23T14:45:53.352Z</time></trkpt><trkpt lat="45.3534883" lon="9.746765"><ele>74.0</ele><time>2026-03-23T14:45:55.352Z</time></trkpt><trkpt lat="45.353525" lon="9.7469367"><ele>74.0</ele><time>2026-03-23T14:45:57.352Z</time></trkpt><trkpt lat="45.3535433" lon="9.7470233"><ele>74.0</ele><time>2026-03-23T14:45:58.352Z</time></trkpt><trkpt lat="45.353565" lon="9.7471133"><ele>74.0</ele><time>2026-03-23T14:45:59.352Z</time></trkpt><trkpt lat="45.3535833" lon="9.747205"><ele>74.0</ele><time>2026-03-23T14:46:00.353Z</time></trkpt><trkpt lat="45.3535983" lon="9.7472967"><ele>74.0</ele><time>2026-03-23T14:46:01.352Z</time></trkpt><trkpt lat="45.3536183" lon="9.747385"><ele>74.0</ele><time>2026-03-23T14:46:02.352Z</time></trkpt><trkpt lat="45.3536383" lon="9.74747"><ele>74.0</ele><time>2026-03-23T14:46:03.353Z</time></trkpt><trkpt lat="45.3536733" lon="9.7476333"><ele>74.0</ele><time>2026-03-23T14:46:05.352Z</time></trkpt><trkpt lat="45.3537083" lon="9.7477933"><ele>74.0</ele><time>2026-03-23T14:46:07.353Z</time></trkpt><trkpt lat="45.3537483" lon="9.7479333"><ele>74.0</ele><time>2026-03-23T14:46:09.352Z</time></trkpt><trkpt lat="45.3537617" lon="9.7480783"><ele>74.0</ele><time>2026-03-23T14:46:11.352Z</time></trkpt><trkpt lat="45.353775" lon="9.7482283"><ele>74.0</ele><time>2026-03-23T14:46:13.352Z</time></trkpt><trkpt lat="45.353805" lon="9.74838"><ele>74.0</ele><time>2026-03-23T14:46:15.352Z</time></trkpt><trkpt lat="45.353845" lon="9.7485133"><ele>74.0</ele><time>2026-03-23T14:46:17.352Z</time></trkpt><trkpt lat="45.3538717" lon="9.7486583"><ele>74.0</ele><time>2026-03-23T14:46:19.353Z</time></trkpt><trkpt lat="45.3538917" lon="9.7488"><ele>74.0</ele><time>2026-03-23T14:46:21.352Z</time></trkpt><trkpt lat="45.3539283" lon="9.748935"><ele>74.0</ele><time>2026-03-23T14:46:23.352Z</time></trkpt><trkpt lat="45.3539633" lon="9.7490583"><ele>74.0</ele><time>2026-03-23T14:46:25.352Z</time></trkpt><trkpt lat="45.3540017" lon="9.749195"><ele>74.0</ele><time>2026-03-23T14:46:27.352Z</time></trkpt><trkpt lat="45.3540467" lon="9.7493217"><ele>74.0</ele><time>2026-03-23T14:46:29.353Z</time></trkpt><trkpt lat="45.354095" lon="9.7494383"><ele>74.16666666666667</ele><time>2026-03-23T14:46:31.353Z</time></trkpt><trkpt lat="45.354135" lon="9.74955"><ele>74.33333333333334</ele><time>2026-03-23T14:46:33.352Z</time></trkpt><trkpt lat="45.3541517" lon="9.74964"><ele>74.5</ele><time>2026-03-23T14:46:37.352Z</time></trkpt><trkpt lat="45.3540667" lon="9.7496817"><ele>74.66666666666667</ele><time>2026-03-23T14:46:40.352Z</time></trkpt><trkpt lat="45.3539883" lon="9.7497167"><ele>74.83333333333333</ele><time>2026-03-23T14:46:42.352Z</time></trkpt><trkpt lat="45.35391" lon="9.7497483"><ele>75.0</ele><time>2026-03-23T14:46:44.352Z</time></trkpt><trkpt lat="45.3538217" lon="9.74979"><ele>74.6</ele><time>2026-03-23T14:46:46.352Z</time></trkpt><trkpt lat="45.353735" lon="9.7498367"><ele>74.2</ele><time>2026-03-23T14:46:48.352Z</time></trkpt><trkpt lat="45.3536417" lon="9.7498717"><ele>73.8</ele><time>2026-03-23T14:46:50.353Z</time></trkpt><trkpt lat="45.3535433" lon="9.7499167"><ele>73.4</ele><time>2026-03-23T14:46:52.352Z</time></trkpt><trkpt lat="45.3534433" lon="9.749965"><ele>73.0</ele><time>2026-03-23T14:46:54.352Z</time></trkpt><trkpt lat="45.3533383" lon="9.75001"><ele>73.0</ele><time>2026-03-23T14:46:56.352Z</time></trkpt><trkpt lat="45.3532317" lon="9.750055"><ele>73.0</ele><time>2026-03-23T14:46:58.352Z</time></trkpt><trkpt lat="45.3531233" lon="9.750095"><ele>73.0</ele><time>2026-03-23T14:47:00.352Z</time></trkpt><trkpt lat="45.3530233" lon="9.7501417"><ele>73.0</ele><time>2026-03-23T14:47:02.352Z</time></trkpt><trkpt lat="45.35292" lon="9.7501933"><ele>73.0</ele><time>2026-03-23T14:47:04.352Z</time></trkpt><trkpt lat="45.3528117" lon="9.7502433"><ele>73.25</ele><time>2026-03-23T14:47:06.353Z</time></trkpt><trkpt lat="45.35271" lon="9.750295"><ele>73.5</ele><time>2026-03-23T14:47:08.353Z</time></trkpt><trkpt lat="45.352605" lon="9.75035"><ele>73.75</ele><time>2026-03-23T14:47:10.352Z</time></trkpt><trkpt lat="45.352495" lon="9.7504133"><ele>74.0</ele><time>2026-03-23T14:47:12.352Z</time></trkpt><trkpt lat="45.3523933" lon="9.7504767"><ele>74.0</ele><time>2026-03-23T14:47:14.352Z</time></trkpt><trkpt lat="45.3522917" lon="9.7505367"><ele>74.0</ele><time>2026-03-23T14:47:16.353Z</time></trkpt><trkpt lat="45.3521867" lon="9.750595"><ele>74.0</ele><time>2026-03-23T14:47:18.352Z</time></trkpt><trkpt lat="45.3520733" lon="9.7506517"><ele>74.0</ele><time>2026-03-23T14:47:20.352Z</time></trkpt><trkpt lat="45.35197" lon="9.7507067"><ele>73.5</ele><time>2026-03-23T14:47:22.353Z</time></trkpt><trkpt lat="45.3518583" lon="9.75075"><ele>73.0</ele><time>2026-03-23T14:47:24.353Z</time></trkpt><trkpt lat="45.3517517" lon="9.7508117"><ele>72.5</ele><time>2026-03-23T14:47:26.353Z</time></trkpt><trkpt lat="45.3516417" lon="9.7508633"><ele>72.0</ele><time>2026-03-23T14:47:28.353Z</time></trkpt><trkpt lat="45.3515367" lon="9.7509317"><ele>72.0</ele><time>2026-03-23T14:47:30.352Z</time></trkpt><trkpt lat="45.3514833" lon="9.75098"><ele>72.0</ele><time>2026-03-23T14:47:31.352Z</time></trkpt><trkpt lat="45.35142" lon="9.7511183"><ele>72.0</ele><time>2026-03-23T14:47:33.352Z</time></trkpt><trkpt lat="45.351435" lon="9.75129"><ele>72.0</ele><time>2026-03-23T14:47:35.353Z</time></trkpt><trkpt lat="45.3514783" lon="9.7514483"><ele>72.0</ele><time>2026-03-23T14:47:37.352Z</time></trkpt><trkpt lat="45.3515117" lon="9.751615"><ele>72.2</ele><time>2026-03-23T14:47:39.352Z</time></trkpt><trkpt lat="45.35153" lon="9.7517017"><ele>72.4</ele><time>2026-03-23T14:47:40.353Z</time></trkpt><trkpt lat="45.351555" lon="9.7518667"><ele>72.6</ele><time>2026-03-23T14:47:42.353Z</time></trkpt><trkpt lat="45.3515933" lon="9.7520267"><ele>72.8</ele><time>2026-03-23T14:47:44.352Z</time></trkpt><trkpt lat="45.3516067" lon="9.752115"><ele>73.0</ele><time>2026-03-23T14:47:45.352Z</time></trkpt><trkpt lat="45.35164" lon="9.7522783"><ele>73.14285714285714</ele><time>2026-03-23T14:47:47.352Z</time></trkpt><trkpt lat="45.3516583" lon="9.752365"><ele>73.28571428571429</ele><time>2026-03-23T14:47:48.352Z</time></trkpt><trkpt lat="45.3516817" lon="9.7524567"><ele>73.42857142857143</ele><time>2026-03-23T14:47:49.353Z</time></trkpt><trkpt lat="45.3517" lon="9.7525433"><ele>73.57142857142857</ele><time>2026-03-23T14:47:50.352Z</time></trkpt><trkpt lat="45.3517183" lon="9.7526333"><ele>73.71428571428571</ele><time>2026-03-23T14:47:51.352Z</time></trkpt><trkpt lat="45.3517433" lon="9.752725"><ele>73.85714285714286</ele><time>2026-03-23T14:47:52.352Z</time></trkpt><trkpt lat="45.3517617" lon="9.7528217"><ele>74.0</ele><time>2026-03-23T14:47:53.352Z</time></trkpt><trkpt lat="45.3517833" lon="9.7529133"><ele>74.0</ele><time>2026-03-23T14:47:54.352Z</time></trkpt><trkpt lat="45.3518017" lon="9.753005"><ele>74.0</ele><time>2026-03-23T14:47:55.352Z</time></trkpt><trkpt lat="45.3518267" lon="9.753095"><ele>74.0</ele><time>2026-03-23T14:47:56.352Z</time></trkpt><trkpt lat="45.35185" lon="9.7531833"><ele>74.0</ele><time>2026-03-23T14:47:57.352Z</time></trkpt><trkpt lat="45.3518783" lon="9.75335"><ele>74.0</ele><time>2026-03-23T14:47:59.352Z</time></trkpt><trkpt lat="45.3519067" lon="9.753505"><ele>74.0</ele><time>2026-03-23T14:48:01.352Z</time></trkpt><trkpt lat="45.3519283" lon="9.7536583"><ele>73.75</ele><time>2026-03-23T14:48:03.352Z</time></trkpt><trkpt lat="45.3519167" lon="9.7538083"><ele>73.5</ele><time>2026-03-23T14:48:05.352Z</time></trkpt><trkpt lat="45.351905" lon="9.7539717"><ele>73.25</ele><time>2026-03-23T14:48:07.352Z</time></trkpt><trkpt lat="45.3519133" lon="9.7541467"><ele>73.0</ele><time>2026-03-23T14:48:09.352Z</time></trkpt><trkpt lat="45.3519283" lon="9.7543217"><ele>73.14285714285714</ele><time>2026-03-23T14:48:11.352Z</time></trkpt><trkpt lat="45.35194" lon="9.75441"><ele>73.28571428571429</ele><time>2026-03-23T14:48:12.352Z</time></trkpt><trkpt lat="45.35195" lon="9.7545017"><ele>73.42857142857143</ele><time>2026-03-23T14:48:13.352Z</time></trkpt><trkpt lat="45.3519633" lon="9.7545967"><ele>73.57142857142857</ele><time>2026-03-23T14:48:14.352Z</time></trkpt><trkpt lat="45.35197" lon="9.7546933"><ele>73.71428571428571</ele><time>2026-03-23T14:48:15.352Z</time></trkpt><trkpt lat="45.35197" lon="9.7547933"><ele>73.85714285714286</ele><time>2026-03-23T14:48:16.352Z</time></trkpt><trkpt lat="45.3519833" lon="9.7548867"><ele>74.0</ele><time>2026-03-23T14:48:17.352Z</time></trkpt><trkpt lat="45.35199" lon="9.7549833"><ele>74.0</ele><time>2026-03-23T14:48:18.352Z</time></trkpt><trkpt lat="45.3519967" lon="9.7550783"><ele>74.0</ele><time>2026-03-23T14:48:19.352Z</time></trkpt><trkpt lat="45.351995" lon="9.7551733"><ele>74.0</ele><time>2026-03-23T14:48:20.352Z</time></trkpt><trkpt lat="45.35199" lon="9.75527"><ele>74.0</ele><time>2026-03-23T14:48:21.352Z</time></trkpt><trkpt lat="45.3519867" lon="9.7553633"><ele>74.0</ele><time>2026-03-23T14:48:22.352Z</time></trkpt><trkpt lat="45.3519867" lon="9.7554667"><ele>74.0</ele><time>2026-03-23T14:48:23.352Z</time></trkpt><trkpt lat="45.3519867" lon="9.7555667"><ele>74.0</ele><time>2026-03-23T14:48:24.352Z</time></trkpt><trkpt lat="45.3519817" lon="9.7556633"><ele>73.85714285714286</ele><time>2026-03-23T14:48:25.352Z</time></trkpt><trkpt lat="45.3519733" lon="9.7557633"><ele>73.71428571428571</ele><time>2026-03-23T14:48:26.352Z</time></trkpt><trkpt lat="45.3519633" lon="9.7558617"><ele>73.57142857142857</ele><time>2026-03-23T14:48:27.352Z</time></trkpt><trkpt lat="45.3519583" lon="9.7559567"><ele>73.42857142857143</ele><time>2026-03-23T14:48:28.352Z</time></trkpt><trkpt lat="45.351945" lon="9.7560517"><ele>73.28571428571429</ele><time>2026-03-23T14:48:29.352Z</time></trkpt><trkpt lat="45.3519283" lon="9.75615"><ele>73.14285714285714</ele><time>2026-03-23T14:48:30.353Z</time></trkpt><trkpt lat="45.3519083" lon="9.7562417"><ele>73.0</ele><time>2026-03-23T14:48:31.353Z</time></trkpt><trkpt lat="45.3518817" lon="9.75633"><ele>72.71428571428571</ele><time>2026-03-23T14:48:32.352Z</time></trkpt><trkpt lat="45.3518517" lon="9.756415"><ele>72.42857142857143</ele><time>2026-03-23T14:48:33.352Z</time></trkpt><trkpt lat="45.35182" lon="9.7565"><ele>72.14285714285714</ele><time>2026-03-23T14:48:34.352Z</time></trkpt><trkpt lat="45.3517867" lon="9.75659"><ele>71.85714285714286</ele><time>2026-03-23T14:48:35.352Z</time></trkpt><trkpt lat="45.3517533" lon="9.7566767"><ele>71.57142857142857</ele><time>2026-03-23T14:48:36.352Z</time></trkpt><trkpt lat="45.3517183" lon="9.7567617"><ele>71.28571428571428</ele><time>2026-03-23T14:48:37.352Z</time></trkpt><trkpt lat="45.3516867" lon="9.7568467"><ele>71.0</ele><time>2026-03-23T14:48:38.352Z</time></trkpt><trkpt lat="45.35165" lon="9.7569333"><ele>71.0</ele><time>2026-03-23T14:48:39.352Z</time></trkpt><trkpt lat="45.351615" lon="9.7570183"><ele>71.0</ele><time>2026-03-23T14:48:40.352Z</time></trkpt><trkpt lat="45.3515833" lon="9.7571033"><ele>71.0</ele><time>2026-03-23T14:48:41.352Z</time></trkpt><trkpt lat="45.35155" lon="9.75719"><ele>71.0</ele><time>2026-03-23T14:48:42.352Z</time></trkpt><trkpt lat="45.3515167" lon="9.7572733"><ele>71.0</ele><time>2026-03-23T14:48:43.352Z</time></trkpt><trkpt lat="45.351485" lon="9.7573633"><ele>71.0</ele><time>2026-03-23T14:48:44.352Z</time></trkpt><trkpt lat="45.351455" lon="9.7574583"><ele>71.0</ele><time>2026-03-23T14:48:45.352Z</time></trkpt><trkpt lat="45.3514317" lon="9.7575467"><ele>71.0</ele><time>2026-03-23T14:48:46.352Z</time></trkpt><trkpt lat="45.3514033" lon="9.7576417"><ele>71.0</ele><time>2026-03-23T14:48:47.352Z</time></trkpt><trkpt lat="45.3513833" lon="9.7577383"><ele>71.0</ele><time>2026-03-23T14:48:48.352Z</time></trkpt><trkpt lat="45.351365" lon="9.7578333"><ele>71.0</ele><time>2026-03-23T14:48:49.353Z</time></trkpt><trkpt lat="45.351355" lon="9.75793"><ele>71.0</ele><time>2026-03-23T14:48:50.352Z</time></trkpt><trkpt lat="45.3513483" lon="9.7580283"><ele>71.0</ele><time>2026-03-23T14:48:51.352Z</time></trkpt><trkpt lat="45.35134" lon="9.758125"><ele>71.0</ele><time>2026-03-23T14:48:52.353Z</time></trkpt><trkpt lat="45.3513283" lon="9.75822"><ele>70.85714285714286</ele><time>2026-03-23T14:48:53.352Z</time></trkpt><trkpt lat="45.3513217" lon="9.7583183"><ele>70.71428571428571</ele><time>2026-03-23T14:48:54.352Z</time></trkpt><trkpt lat="45.3513167" lon="9.7584133"><ele>70.57142857142857</ele><time>2026-03-23T14:48:55.352Z</time></trkpt><trkpt lat="45.3513117" lon="9.75851"><ele>70.42857142857143</ele><time>2026-03-23T14:48:56.352Z</time></trkpt><trkpt lat="45.3513067" lon="9.758605"><ele>70.28571428571428</ele><time>2026-03-23T14:48:57.352Z</time></trkpt><trkpt lat="45.3512983" lon="9.7587033"><ele>70.14285714285714</ele><time>2026-03-23T14:48:58.352Z</time></trkpt><trkpt lat="45.3512883" lon="9.7587967"><ele>70.0</ele><time>2026-03-23T14:48:59.352Z</time></trkpt><trkpt lat="45.351285" lon="9.75889"><ele>70.0</ele><time>2026-03-23T14:49:00.353Z</time></trkpt><trkpt lat="45.351275" lon="9.759065"><ele>70.0</ele><time>2026-03-23T14:49:02.352Z</time></trkpt><trkpt lat="45.3512717" lon="9.7591567"><ele>70.0</ele><time>2026-03-23T14:49:03.352Z</time></trkpt><trkpt lat="45.3512667" lon="9.75933"><ele>70.0</ele><time>2026-03-23T14:49:05.352Z</time></trkpt><trkpt lat="45.351255" lon="9.7595067"><ele>70.0</ele><time>2026-03-23T14:49:07.352Z</time></trkpt><trkpt lat="45.3512517" lon="9.7596783"><ele>70.2</ele><time>2026-03-23T14:49:09.352Z</time></trkpt><trkpt lat="45.3512467" lon="9.75984"><ele>70.4</ele><time>2026-03-23T14:49:11.352Z</time></trkpt><trkpt lat="45.3512433" lon="9.7599967"><ele>70.6</ele><time>2026-03-23T14:49:13.352Z</time></trkpt><trkpt lat="45.35123" lon="9.7601567"><ele>70.8</ele><time>2026-03-23T14:49:15.352Z</time></trkpt><trkpt lat="45.3512317" lon="9.7603133"><ele>71.0</ele><time>2026-03-23T14:49:17.353Z</time></trkpt><trkpt lat="45.351235" lon="9.7604683"><ele>71.0</ele><time>2026-03-23T14:49:19.352Z</time></trkpt><trkpt lat="45.3512467" lon="9.7606283"><ele>71.0</ele><time>2026-03-23T14:49:21.353Z</time></trkpt><trkpt lat="45.3512417" lon="9.7607833"><ele>71.0</ele><time>2026-03-23T14:49:23.352Z</time></trkpt><trkpt lat="45.3512433" lon="9.7609367"><ele>71.0</ele><time>2026-03-23T14:49:25.352Z</time></trkpt><trkpt lat="45.3512533" lon="9.7610983"><ele>71.0</ele><time>2026-03-23T14:49:27.352Z</time></trkpt><trkpt lat="45.3512617" lon="9.7612617"><ele>71.0</ele><time>2026-03-23T14:49:29.352Z</time></trkpt><trkpt lat="45.3512817" lon="9.761425"><ele>71.0</ele><time>2026-03-23T14:49:31.352Z</time></trkpt><trkpt lat="45.3512983" lon="9.7615867"><ele>71.0</ele><time>2026-03-23T14:49:33.352Z</time></trkpt><trkpt lat="45.35132" lon="9.761745"><ele>71.0</ele><time>2026-03-23T14:49:35.352Z</time></trkpt><trkpt lat="45.3513383" lon="9.7619067"><ele>71.0</ele><time>2026-03-23T14:49:37.352Z</time></trkpt><trkpt lat="45.3513533" lon="9.7620717"><ele>71.0</ele><time>2026-03-23T14:49:39.352Z</time></trkpt><trkpt lat="45.3513567" lon="9.7622267"><ele>71.0</ele><time>2026-03-23T14:49:41.352Z</time></trkpt><trkpt lat="45.3513533" lon="9.7623767"><ele>71.0</ele><time>2026-03-23T14:49:43.352Z</time></trkpt><trkpt lat="45.3513583" lon="9.7625233"><ele>71.0</ele><time>2026-03-23T14:49:45.353Z</time></trkpt><trkpt lat="45.3513533" lon="9.7626783"><ele>70.6</ele><time>2026-03-23T14:49:47.353Z</time></trkpt><trkpt lat="45.3513433" lon="9.76283"><ele>70.19999999999999</ele><time>2026-03-23T14:49:49.352Z</time></trkpt><trkpt lat="45.3513417" lon="9.76298"><ele>69.80000000000001</ele><time>2026-03-23T14:49:51.351Z</time></trkpt><trkpt lat="45.35134" lon="9.7631333"><ele>69.4</ele><time>2026-03-23T14:49:53.352Z</time></trkpt><trkpt lat="45.35133" lon="9.763285"><ele>69.0</ele><time>2026-03-23T14:49:55.351Z</time></trkpt><trkpt lat="45.3513233" lon="9.7634383"><ele>69.0</ele><time>2026-03-23T14:49:57.351Z</time></trkpt><trkpt lat="45.3513183" lon="9.7635883"><ele>69.0</ele><time>2026-03-23T14:49:59.351Z</time></trkpt><trkpt lat="45.351315" lon="9.763745"><ele>69.0</ele><time>2026-03-23T14:50:01.352Z</time></trkpt><trkpt lat="45.35131" lon="9.7638917"><ele>69.0</ele><time>2026-03-23T14:50:03.351Z</time></trkpt><trkpt lat="45.3512817" lon="9.7640367"><ele>69.0</ele><time>2026-03-23T14:50:05.351Z</time></trkpt><trkpt lat="45.35121" lon="9.7641283"><ele>69.0</ele><time>2026-03-23T14:50:07.351Z</time></trkpt><trkpt lat="45.3511033" lon="9.7641467"><ele>69.0</ele><time>2026-03-23T14:50:09.351Z</time></trkpt><trkpt lat="45.351" lon="9.7641467"><ele>69.0</ele><time>2026-03-23T14:50:11.351Z</time></trkpt><trkpt lat="45.3509017" lon="9.764145"><ele>69.0</ele><time>2026-03-23T14:50:13.351Z</time></trkpt><trkpt lat="45.3507917" lon="9.76415"><ele>69.0</ele><time>2026-03-23T14:50:15.351Z</time></trkpt><trkpt lat="45.3506817" lon="9.7641533"><ele>69.0</ele><time>2026-03-23T14:50:17.351Z</time></trkpt><trkpt lat="45.3505717" lon="9.7641583"><ele>69.0</ele><time>2026-03-23T14:50:19.352Z</time></trkpt><trkpt lat="45.3504633" lon="9.7641667"><ele>69.0</ele><time>2026-03-23T14:50:21.351Z</time></trkpt><trkpt lat="45.3503483" lon="9.76418"><ele>69.0</ele><time>2026-03-23T14:50:23.351Z</time></trkpt><trkpt lat="45.3502317" lon="9.7642"><ele>69.5</ele><time>2026-03-23T14:50:25.351Z</time></trkpt><trkpt lat="45.3501183" lon="9.7642"><ele>70.0</ele><time>2026-03-23T14:50:27.351Z</time></trkpt><trkpt lat="45.349995" lon="9.764195"><ele>70.5</ele><time>2026-03-23T14:50:29.351Z</time></trkpt><trkpt lat="45.349875" lon="9.7641817"><ele>71.0</ele><time>2026-03-23T14:50:31.352Z</time></trkpt><trkpt lat="45.3497583" lon="9.764165"><ele>70.75</ele><time>2026-03-23T14:50:33.351Z</time></trkpt><trkpt lat="45.349645" lon="9.764145"><ele>70.5</ele><time>2026-03-23T14:50:35.351Z</time></trkpt><trkpt lat="45.3495283" lon="9.7641317"><ele>70.25</ele><time>2026-03-23T14:50:37.351Z</time></trkpt><trkpt lat="45.3494183" lon="9.7641083"><ele>70.0</ele><time>2026-03-23T14:50:39.351Z</time></trkpt><trkpt lat="45.3493067" lon="9.7640767"><ele>70.0</ele><time>2026-03-23T14:50:41.351Z</time></trkpt><trkpt lat="45.34919" lon="9.76404"><ele>70.0</ele><time>2026-03-23T14:50:43.351Z</time></trkpt><trkpt lat="45.3491283" lon="9.7640217"><ele>70.0</ele><time>2026-03-23T14:50:44.352Z</time></trkpt><trkpt lat="45.3490083" lon="9.763995"><ele>70.0</ele><time>2026-03-23T14:50:46.351Z</time></trkpt><trkpt lat="45.3488883" lon="9.7639667"><ele>70.0</ele><time>2026-03-23T14:50:48.352Z</time></trkpt><trkpt lat="45.3487783" lon="9.7639517"><ele>70.2</ele><time>2026-03-23T14:50:50.352Z</time></trkpt><trkpt lat="45.348665" lon="9.763935"><ele>70.4</ele><time>2026-03-23T14:50:52.351Z</time></trkpt><trkpt lat="45.3485533" lon="9.7639533"><ele>70.6</ele><time>2026-03-23T14:50:54.351Z</time></trkpt><trkpt lat="45.3484833" lon="9.764055"><ele>70.8</ele><time>2026-03-23T14:50:56.351Z</time></trkpt><trkpt lat="45.3484967" lon="9.7641883"><ele>71.0</ele><time>2026-03-23T14:50:58.351Z</time></trkpt><trkpt lat="45.3485117" lon="9.7643367"><ele>70.6</ele><time>2026-03-23T14:51:00.351Z</time></trkpt><trkpt lat="45.3485217" lon="9.76449"><ele>70.19999999999999</ele><time>2026-03-23T14:51:02.351Z</time></trkpt><trkpt lat="45.3485333" lon="9.7646417"><ele>69.80000000000001</ele><time>2026-03-23T14:51:04.352Z</time></trkpt><trkpt lat="45.3485383" lon="9.7648"><ele>69.4</ele><time>2026-03-23T14:51:06.352Z</time></trkpt><trkpt lat="45.3485417" lon="9.76496"><ele>69.0</ele><time>2026-03-23T14:51:08.351Z</time></trkpt><trkpt lat="45.34855" lon="9.7651267"><ele>69.4</ele><time>2026-03-23T14:51:10.352Z</time></trkpt><trkpt lat="45.3485583" lon="9.765295"><ele>69.80000000000001</ele><time>2026-03-23T14:51:12.351Z</time></trkpt><trkpt lat="45.3485633" lon="9.76547"><ele>70.19999999999999</ele><time>2026-03-23T14:51:14.352Z</time></trkpt><trkpt lat="45.3485717" lon="9.7656467"><ele>70.6</ele><time>2026-03-23T14:51:16.352Z</time></trkpt><trkpt lat="45.3485733" lon="9.7657367"><ele>71.0</ele><time>2026-03-23T14:51:17.352Z</time></trkpt><trkpt lat="45.34858" lon="9.7658283"><ele>71.0</ele><time>2026-03-23T14:51:18.351Z</time></trkpt><trkpt lat="45.348585" lon="9.7659217"><ele>71.0</ele><time>2026-03-23T14:51:19.351Z</time></trkpt><trkpt lat="45.3485883" lon="9.76602"><ele>71.0</ele><time>2026-03-23T14:51:20.351Z</time></trkpt><trkpt lat="45.34859" lon="9.7661167"><ele>71.0</ele><time>2026-03-23T14:51:21.351Z</time></trkpt><trkpt lat="45.348595" lon="9.7662117"><ele>71.0</ele><time>2026-03-23T14:51:22.352Z</time></trkpt><trkpt lat="45.3485967" lon="9.7663067"><ele>71.0</ele><time>2026-03-23T14:51:23.351Z</time></trkpt><trkpt lat="45.3486" lon="9.7664017"><ele>71.0</ele><time>2026-03-23T14:51:24.351Z</time></trkpt><trkpt lat="45.3486067" lon="9.7664983"><ele>70.85714285714286</ele><time>2026-03-23T14:51:25.351Z</time></trkpt><trkpt lat="45.3486067" lon="9.7666"><ele>70.71428571428571</ele><time>2026-03-23T14:51:26.351Z</time></trkpt><trkpt lat="45.348615" lon="9.766695"><ele>70.57142857142857</ele><time>2026-03-23T14:51:27.351Z</time></trkpt><trkpt lat="45.3486217" lon="9.76679"><ele>70.42857142857143</ele><time>2026-03-23T14:51:28.351Z</time></trkpt><trkpt lat="45.348625" lon="9.76689"><ele>70.28571428571428</ele><time>2026-03-23T14:51:29.351Z</time></trkpt><trkpt lat="45.348625" lon="9.7669983"><ele>70.14285714285714</ele><time>2026-03-23T14:51:30.352Z</time></trkpt><trkpt lat="45.34863" lon="9.7670983"><ele>70.0</ele><time>2026-03-23T14:51:31.352Z</time></trkpt><trkpt lat="45.3486317" lon="9.7672"><ele>69.85714285714286</ele><time>2026-03-23T14:51:32.351Z</time></trkpt><trkpt lat="45.3486383" lon="9.7673033"><ele>69.71428571428572</ele><time>2026-03-23T14:51:33.351Z</time></trkpt><trkpt lat="45.34864" lon="9.7673967"><ele>69.57142857142857</ele><time>2026-03-23T14:51:34.352Z</time></trkpt><trkpt lat="45.34864" lon="9.7674933"><ele>69.42857142857143</ele><time>2026-03-23T14:51:35.351Z</time></trkpt><trkpt lat="45.3486417" lon="9.7675883"><ele>69.28571428571429</ele><time>2026-03-23T14:51:36.351Z</time></trkpt><trkpt lat="45.3486483" lon="9.7676867"><ele>69.14285714285714</ele><time>2026-03-23T14:51:37.351Z</time></trkpt><trkpt lat="45.348655" lon="9.7677833"><ele>69.0</ele><time>2026-03-23T14:51:38.351Z</time></trkpt><trkpt lat="45.34866" lon="9.7678817"><ele>69.0</ele><time>2026-03-23T14:51:39.351Z</time></trkpt><trkpt lat="45.348665" lon="9.7679733"><ele>69.0</ele><time>2026-03-23T14:51:40.351Z</time></trkpt><trkpt lat="45.3486667" lon="9.768065"><ele>69.0</ele><time>2026-03-23T14:51:41.352Z</time></trkpt><trkpt lat="45.3486767" lon="9.7682333"><ele>69.0</ele><time>2026-03-23T14:51:43.351Z</time></trkpt><trkpt lat="45.3486767" lon="9.7683233"><ele>69.0</ele><time>2026-03-23T14:51:44.351Z</time></trkpt><trkpt lat="45.3486717" lon="9.76849"><ele>69.0</ele><time>2026-03-23T14:51:46.352Z</time></trkpt><trkpt lat="45.3486183" lon="9.7686033"><ele>69.60000000000001</ele><time>2026-03-23T14:51:48.351Z</time></trkpt><trkpt lat="45.34852" lon="9.7686433"><ele>70.2</ele><time>2026-03-23T14:51:50.351Z</time></trkpt><trkpt lat="45.34842" lon="9.768625"><ele>70.80000000000001</ele><time>2026-03-23T14:51:52.352Z</time></trkpt><trkpt lat="45.348325" lon="9.76864"><ele>71.4</ele><time>2026-03-23T14:51:54.351Z</time></trkpt><trkpt lat="45.3482717" lon="9.7687467"><ele>72.0</ele><time>2026-03-23T14:51:56.351Z</time></trkpt><trkpt lat="45.348275" lon="9.768875"><ele>72.0</ele><time>2026-03-23T14:51:58.351Z</time></trkpt><trkpt lat="45.3482917" lon="9.7690083"><ele>72.0</ele><time>2026-03-23T14:52:00.351Z</time></trkpt><trkpt lat="45.3482883" lon="9.7691367"><ele>72.0</ele><time>2026-03-23T14:52:02.351Z</time></trkpt><trkpt lat="45.348285" lon="9.7692667"><ele>72.0</ele><time>2026-03-23T14:52:04.351Z</time></trkpt><trkpt lat="45.348295" lon="9.7694083"><ele>72.0</ele><time>2026-03-23T14:52:06.351Z</time></trkpt><trkpt lat="45.348295" lon="9.769545"><ele>71.6</ele><time>2026-03-23T14:52:08.351Z</time></trkpt><trkpt lat="45.3483033" lon="9.7696817"><ele>71.2</ele><time>2026-03-23T14:52:10.352Z</time></trkpt><trkpt lat="45.34831" lon="9.76982"><ele>70.8</ele><time>2026-03-23T14:52:12.351Z</time></trkpt><trkpt lat="45.3483217" lon="9.7699683"><ele>70.4</ele><time>2026-03-23T14:52:14.351Z</time></trkpt><trkpt lat="45.3483183" lon="9.7701133"><ele>70.0</ele><time>2026-03-23T14:52:16.351Z</time></trkpt><trkpt lat="45.3483233" lon="9.7702717"><ele>69.75</ele><time>2026-03-23T14:52:18.351Z</time></trkpt><trkpt lat="45.3483333" lon="9.7704283"><ele>69.5</ele><time>2026-03-23T14:52:20.351Z</time></trkpt><trkpt lat="45.34834" lon="9.770595"><ele>69.25</ele><time>2026-03-23T14:52:22.352Z</time></trkpt><trkpt lat="45.3483633" lon="9.77076"><ele>69.0</ele><time>2026-03-23T14:52:24.351Z</time></trkpt><trkpt lat="45.34839" lon="9.7709233"><ele>69.25</ele><time>2026-03-23T14:52:26.351Z</time></trkpt><trkpt lat="45.3484217" lon="9.7710783"><ele>69.5</ele><time>2026-03-23T14:52:28.351Z</time></trkpt><trkpt lat="45.3484617" lon="9.7712333"><ele>69.75</ele><time>2026-03-23T14:52:30.351Z</time></trkpt><trkpt lat="45.3484983" lon="9.7713817"><ele>70.0</ele><time>2026-03-23T14:52:32.351Z</time></trkpt><trkpt lat="45.348535" lon="9.7715333"><ele>70.0</ele><time>2026-03-23T14:52:34.351Z</time></trkpt><trkpt lat="45.3485767" lon="9.7716883"><ele>70.0</ele><time>2026-03-23T14:52:36.351Z</time></trkpt><trkpt lat="45.3486083" lon="9.7718483"><ele>70.0</ele><time>2026-03-23T14:52:38.351Z</time></trkpt><trkpt lat="45.3486467" lon="9.7720067"><ele>70.0</ele><time>2026-03-23T14:52:40.351Z</time></trkpt><trkpt lat="45.34868" lon="9.7721617"><ele>69.8</ele><time>2026-03-23T14:52:42.351Z</time></trkpt><trkpt lat="45.3487383" lon="9.772305"><ele>69.6</ele><time>2026-03-23T14:52:44.352Z</time></trkpt><trkpt lat="45.34879" lon="9.7724417"><ele>69.4</ele><time>2026-03-23T14:52:46.352Z</time></trkpt><trkpt lat="45.3488183" lon="9.772585"><ele>69.2</ele><time>2026-03-23T14:52:48.351Z</time></trkpt><trkpt lat="45.348845" lon="9.7727367"><ele>69.0</ele><time>2026-03-23T14:52:50.351Z</time></trkpt><trkpt lat="45.3488617" lon="9.7728883"><ele>69.0</ele><time>2026-03-23T14:52:52.351Z</time></trkpt><trkpt lat="45.348885" lon="9.773045"><ele>69.0</ele><time>2026-03-23T14:52:54.352Z</time></trkpt><trkpt lat="45.3489117" lon="9.7732017"><ele>69.0</ele><time>2026-03-23T14:52:56.352Z</time></trkpt><trkpt lat="45.3489417" lon="9.773365"><ele>69.0</ele><time>2026-03-23T14:52:58.351Z</time></trkpt><trkpt lat="45.3489683" lon="9.7735267"><ele>69.0</ele><time>2026-03-23T14:53:00.351Z</time></trkpt><trkpt lat="45.349" lon="9.7736917"><ele>69.0</ele><time>2026-03-23T14:53:02.351Z</time></trkpt><trkpt lat="45.349025" lon="9.7738583"><ele>69.0</ele><time>2026-03-23T14:53:04.351Z</time></trkpt><trkpt lat="45.349055" lon="9.7740167"><ele>69.0</ele><time>2026-03-23T14:53:06.351Z</time></trkpt><trkpt lat="45.3490833" lon="9.7741767"><ele>69.0</ele><time>2026-03-23T14:53:08.351Z</time></trkpt><trkpt lat="45.349115" lon="9.7743383"><ele>69.0</ele><time>2026-03-23T14:53:10.351Z</time></trkpt><trkpt lat="45.349145" lon="9.77449"><ele>69.0</ele><time>2026-03-23T14:53:12.352Z</time></trkpt><trkpt lat="45.3491667" lon="9.7746267"><ele>69.0</ele><time>2026-03-23T14:53:14.352Z</time></trkpt><trkpt lat="45.3491883" lon="9.7747533"><ele>69.0</ele><time>2026-03-23T14:53:16.351Z</time></trkpt><trkpt lat="45.3492167" lon="9.774875"><ele>69.0</ele><time>2026-03-23T14:53:18.351Z</time></trkpt><trkpt lat="45.3492367" lon="9.774995"><ele>69.0</ele><time>2026-03-23T14:53:20.351Z</time></trkpt><trkpt lat="45.3492783" lon="9.775095"><ele>69.0</ele><time>2026-03-23T14:53:22.351Z</time></trkpt><trkpt lat="45.3493417" lon="9.7751383"><ele>69.0</ele><time>2026-03-23T14:53:24.351Z</time></trkpt><trkpt lat="45.34943" lon="9.775105"><ele>69.0</ele><time>2026-03-23T14:53:26.351Z</time></trkpt><trkpt lat="45.349515" lon="9.7750617"><ele>69.0</ele><time>2026-03-23T14:53:28.351Z</time></trkpt><trkpt lat="45.3496033" lon="9.7750117"><ele>69.0</ele><time>2026-03-23T14:53:30.351Z</time></trkpt><trkpt lat="45.3497" lon="9.77497"><ele>69.0</ele><time>2026-03-23T14:53:32.351Z</time></trkpt><trkpt lat="45.3498" lon="9.7749317"><ele>69.0</ele><time>2026-03-23T14:53:34.351Z</time></trkpt><trkpt lat="45.349895" lon="9.7748917"><ele>69.0</ele><time>2026-03-23T14:53:36.351Z</time></trkpt><trkpt lat="45.349995" lon="9.774865"><ele>69.0</ele><time>2026-03-23T14:53:38.351Z</time></trkpt><trkpt lat="45.3500983" lon="9.77484"><ele>69.5</ele><time>2026-03-23T14:53:40.351Z</time></trkpt><trkpt lat="45.3502" lon="9.77481"><ele>70.0</ele><time>2026-03-23T14:53:42.351Z</time></trkpt><trkpt lat="45.3503117" lon="9.7747833"><ele>70.5</ele><time>2026-03-23T14:53:44.352Z</time></trkpt><trkpt lat="45.3504333" lon="9.7747567"><ele>71.0</ele><time>2026-03-23T14:53:46.352Z</time></trkpt><trkpt lat="45.350545" lon="9.774725"><ele>71.0</ele><time>2026-03-23T14:53:48.351Z</time></trkpt><trkpt lat="45.350665" lon="9.774705"><ele>71.0</ele><time>2026-03-23T14:53:50.351Z</time></trkpt><trkpt lat="45.350785" lon="9.7746717"><ele>71.0</ele><time>2026-03-23T14:53:52.351Z</time></trkpt><trkpt lat="45.3509067" lon="9.774645"><ele>71.0</ele><time>2026-03-23T14:53:54.351Z</time></trkpt><trkpt lat="45.3510267" lon="9.7746167"><ele>71.0</ele><time>2026-03-23T14:53:56.352Z</time></trkpt><trkpt lat="45.3511433" lon="9.7746033"><ele>71.0</ele><time>2026-03-23T14:53:58.351Z</time></trkpt><trkpt lat="45.3512633" lon="9.77458"><ele>71.0</ele><time>2026-03-23T14:54:00.351Z</time></trkpt><trkpt lat="45.3513833" lon="9.774545"><ele>71.0</ele><time>2026-03-23T14:54:02.352Z</time></trkpt><trkpt lat="45.3514467" lon="9.77453"><ele>71.0</ele><time>2026-03-23T14:54:03.351Z</time></trkpt><trkpt lat="45.3515733" lon="9.774505"><ele>70.8</ele><time>2026-03-23T14:54:05.351Z</time></trkpt><trkpt lat="45.3516367" lon="9.7744933"><ele>70.6</ele><time>2026-03-23T14:54:06.351Z</time></trkpt><trkpt lat="45.3517617" lon="9.7744717"><ele>70.4</ele><time>2026-03-23T14:54:08.351Z</time></trkpt><trkpt lat="45.3518883" lon="9.7744417"><ele>70.2</ele><time>2026-03-23T14:54:10.351Z</time></trkpt><trkpt lat="45.3520067" lon="9.7744067"><ele>70.0</ele><time>2026-03-23T14:54:12.351Z</time></trkpt><trkpt lat="45.352125" lon="9.7743783"><ele>70.0</ele><time>2026-03-23T14:54:14.351Z</time></trkpt><trkpt lat="45.3522483" lon="9.7743517"><ele>70.0</ele><time>2026-03-23T14:54:16.351Z</time></trkpt><trkpt lat="45.3523133" lon="9.7743417"><ele>70.0</ele><time>2026-03-23T14:54:17.351Z</time></trkpt><trkpt lat="45.3524367" lon="9.7743017"><ele>70.0</ele><time>2026-03-23T14:54:19.351Z</time></trkpt><trkpt lat="45.352505" lon="9.7742933"><ele>70.0</ele><time>2026-03-23T14:54:20.351Z</time></trkpt><trkpt lat="45.3526267" lon="9.77427"><ele>70.0</ele><time>2026-03-23T14:54:22.351Z</time></trkpt><trkpt lat="45.352745" lon="9.7742533"><ele>70.0</ele><time>2026-03-23T14:54:24.351Z</time></trkpt><trkpt lat="45.3528617" lon="9.7742283"><ele>70.0</ele><time>2026-03-23T14:54:26.351Z</time></trkpt><trkpt lat="45.3529783" lon="9.774205"><ele>70.0</ele><time>2026-03-23T14:54:28.351Z</time></trkpt><trkpt lat="45.3530967" lon="9.7741933"><ele>70.2</ele><time>2026-03-23T14:54:30.351Z</time></trkpt><trkpt lat="45.353215" lon="9.7742033"><ele>70.4</ele><time>2026-03-23T14:54:32.352Z</time></trkpt><trkpt lat="45.3533167" lon="9.7743"><ele>70.6</ele><time>2026-03-23T14:54:34.351Z</time></trkpt><trkpt lat="45.3533517" lon="9.774375"><ele>70.8</ele><time>2026-03-23T14:54:35.351Z</time></trkpt><trkpt lat="45.3533833" lon="9.7745383"><ele>71.0</ele><time>2026-03-23T14:54:37.351Z</time></trkpt><trkpt lat="45.3534117" lon="9.7746867"><ele>71.0</ele><time>2026-03-23T14:54:39.351Z</time></trkpt><trkpt lat="45.3534833" lon="9.774795"><ele>71.0</ele><time>2026-03-23T14:54:41.351Z</time></trkpt><trkpt lat="45.35358" lon="9.7748083"><ele>71.0</ele><time>2026-03-23T14:54:43.351Z</time></trkpt><trkpt lat="45.353685" lon="9.774785"><ele>71.0</ele><time>2026-03-23T14:54:45.351Z</time></trkpt><trkpt lat="45.3537817" lon="9.7747617"><ele>71.0</ele><time>2026-03-23T14:54:47.351Z</time></trkpt><trkpt lat="45.3538967" lon="9.7747433"><ele>71.2</ele><time>2026-03-23T14:54:49.351Z</time></trkpt><trkpt lat="45.354" lon="9.7747233"><ele>71.39999999999999</ele><time>2026-03-23T14:54:51.351Z</time></trkpt><trkpt lat="45.354105" lon="9.7747167"><ele>71.6</ele><time>2026-03-23T14:54:53.352Z</time></trkpt><trkpt lat="45.3542117" lon="9.7747017"><ele>71.8</ele><time>2026-03-23T14:54:55.351Z</time></trkpt><trkpt lat="45.3543133" lon="9.7746983"><ele>72.0</ele><time>2026-03-23T14:54:57.351Z</time></trkpt><trkpt lat="45.354415" lon="9.7746833"><ele>72.0</ele><time>2026-03-23T14:54:59.352Z</time></trkpt><trkpt lat="45.3545233" lon="9.7746633"><ele>72.0</ele><time>2026-03-23T14:55:01.351Z</time></trkpt><trkpt lat="45.3546333" lon="9.774655"><ele>72.0</ele><time>2026-03-23T14:55:03.351Z</time></trkpt><trkpt lat="45.354745" lon="9.7746333"><ele>72.0</ele><time>2026-03-23T14:55:05.351Z</time></trkpt><trkpt lat="45.35486" lon="9.7746267"><ele>72.0</ele><time>2026-03-23T14:55:07.352Z</time></trkpt><trkpt lat="45.3549733" lon="9.77463"><ele>71.8</ele><time>2026-03-23T14:55:09.351Z</time></trkpt><trkpt lat="45.355095" lon="9.7746317"><ele>71.6</ele><time>2026-03-23T14:55:11.351Z</time></trkpt><trkpt lat="45.3551583" lon="9.7746383"><ele>71.39999999999999</ele><time>2026-03-23T14:55:12.351Z</time></trkpt><trkpt lat="45.35528" lon="9.7746383"><ele>71.2</ele><time>2026-03-23T14:55:14.352Z</time></trkpt><trkpt lat="45.3554017" lon="9.774635"><ele>71.0</ele><time>2026-03-23T14:55:16.351Z</time></trkpt><trkpt lat="45.3555133" lon="9.774645"><ele>71.6</ele><time>2026-03-23T14:55:18.351Z</time></trkpt><trkpt lat="45.3556333" lon="9.774645"><ele>72.19999999999999</ele><time>2026-03-23T14:55:20.351Z</time></trkpt><trkpt lat="45.3557433" lon="9.7746533"><ele>72.80000000000001</ele><time>2026-03-23T14:55:22.351Z</time></trkpt><trkpt lat="45.3558533" lon="9.7746583"><ele>73.4</ele><time>2026-03-23T14:55:24.352Z</time></trkpt><trkpt lat="45.3559533" lon="9.7746683"><ele>74.0</ele><time>2026-03-23T14:55:26.351Z</time></trkpt><trkpt lat="45.3560617" lon="9.7746583"><ele>74.0</ele><time>2026-03-23T14:55:28.351Z</time></trkpt><trkpt lat="45.35618" lon="9.77466"><ele>74.0</ele><time>2026-03-23T14:55:30.351Z</time></trkpt><trkpt lat="45.356295" lon="9.774655"><ele>74.0</ele><time>2026-03-23T14:55:32.351Z</time></trkpt><trkpt lat="45.3564017" lon="9.774655"><ele>74.0</ele><time>2026-03-23T14:55:34.351Z</time></trkpt><trkpt lat="45.3564967" lon="9.7746833"><ele>74.0</ele><time>2026-03-23T14:55:36.351Z</time></trkpt><trkpt lat="45.3565433" lon="9.7748033"><ele>74.16666666666667</ele><time>2026-03-23T14:55:38.351Z</time></trkpt><trkpt lat="45.3565317" lon="9.7749067"><ele>74.33333333333334</ele><time>2026-03-23T14:55:40.352Z</time></trkpt><trkpt lat="45.356525" lon="9.7750033"><ele>74.5</ele><time>2026-03-23T14:56:29.352Z</time></trkpt><trkpt lat="45.35654" lon="9.7751017"><ele>74.66666666666667</ele><time>2026-03-23T14:56:32.351Z</time></trkpt><trkpt lat="45.35654" lon="9.775235"><ele>74.83333333333333</ele><time>2026-03-23T14:56:35.352Z</time></trkpt><trkpt lat="45.3565217" lon="9.7753317"><ele>75.0</ele><time>2026-03-23T14:56:37.351Z</time></trkpt><trkpt lat="45.356505" lon="9.7754533"><ele>74.83333333333333</ele><time>2026-03-23T14:56:39.351Z</time></trkpt><trkpt lat="45.3564867" lon="9.775575"><ele>74.66666666666667</ele><time>2026-03-23T14:56:41.351Z</time></trkpt><trkpt lat="45.3564333" lon="9.7756817"><ele>74.5</ele><time>2026-03-23T14:56:43.351Z</time></trkpt><trkpt lat="45.3563817" lon="9.7757917"><ele>74.33333333333334</ele><time>2026-03-23T14:56:45.351Z</time></trkpt><trkpt lat="45.3563633" lon="9.7759"><ele>74.16666666666667</ele><time>2026-03-23T14:56:47.351Z</time></trkpt><trkpt lat="45.35639" lon="9.7759967"><ele>74.0</ele><time>2026-03-23T14:56:49.351Z</time></trkpt><trkpt lat="45.35638" lon="9.7760983"><ele>73.8</ele><time>2026-03-23T14:56:51.351Z</time></trkpt><trkpt lat="45.356335" lon="9.7761917"><ele>73.60000000000001</ele><time>2026-03-23T14:56:53.351Z</time></trkpt><trkpt lat="45.3562833" lon="9.7762983"><ele>73.4</ele><time>2026-03-23T14:56:55.352Z</time></trkpt><trkpt lat="45.3562267" lon="9.7764067"><ele>73.2</ele><time>2026-03-23T14:56:57.351Z</time></trkpt><trkpt lat="45.3561733" lon="9.7765233"><ele>73.0</ele><time>2026-03-23T14:56:59.351Z</time></trkpt><trkpt lat="45.3561083" lon="9.77665"><ele>73.0</ele><time>2026-03-23T14:57:01.351Z</time></trkpt><trkpt lat="45.35604" lon="9.776775"><ele>73.0</ele><time>2026-03-23T14:57:03.351Z</time></trkpt><trkpt lat="45.3559783" lon="9.7768983"><ele>73.0</ele><time>2026-03-23T14:57:05.351Z</time></trkpt><trkpt lat="45.3559117" lon="9.77702"><ele>73.0</ele><time>2026-03-23T14:57:07.351Z</time></trkpt><trkpt lat="45.355845" lon="9.7771283"><ele>73.0</ele><time>2026-03-23T14:57:09.351Z</time></trkpt><trkpt lat="45.35579" lon="9.77725"><ele>73.0</ele><time>2026-03-23T14:57:11.352Z</time></trkpt><trkpt lat="45.355725" lon="9.777385"><ele>73.0</ele><time>2026-03-23T14:57:13.351Z</time></trkpt><trkpt lat="45.3556533" lon="9.77752"><ele>73.0</ele><time>2026-03-23T14:57:15.352Z</time></trkpt><trkpt lat="45.3555533" lon="9.777605"><ele>73.0</ele><time>2026-03-23T14:57:17.351Z</time></trkpt><trkpt lat="45.35545" lon="9.7776617"><ele>73.0</ele><time>2026-03-23T14:57:19.351Z</time></trkpt><trkpt lat="45.3553567" lon="9.777755"><ele>73.0</ele><time>2026-03-23T14:57:21.351Z</time></trkpt><trkpt lat="45.3553333" lon="9.7779133"><ele>73.0</ele><time>2026-03-23T14:57:23.351Z</time></trkpt><trkpt lat="45.3553633" lon="9.77808"><ele>73.0</ele><time>2026-03-23T14:57:25.351Z</time></trkpt><trkpt lat="45.3553717" lon="9.7782517"><ele>73.0</ele><time>2026-03-23T14:57:27.351Z</time></trkpt><trkpt lat="45.3553683" lon="9.7784317"><ele>73.0</ele><time>2026-03-23T14:57:29.351Z</time></trkpt><trkpt lat="45.3553567" lon="9.778605"><ele>73.0</ele><time>2026-03-23T14:57:31.351Z</time></trkpt><trkpt lat="45.3553533" lon="9.778775"><ele>73.0</ele><time>2026-03-23T14:57:33.351Z</time></trkpt><trkpt lat="45.355365" lon="9.77895"><ele>73.0</ele><time>2026-03-23T14:57:35.351Z</time></trkpt><trkpt lat="45.35539" lon="9.7791233"><ele>73.0</ele><time>2026-03-23T14:57:37.352Z</time></trkpt><trkpt lat="45.355415" lon="9.7792067"><ele>73.0</ele><time>2026-03-23T14:57:38.351Z</time></trkpt><trkpt lat="45.3554367" lon="9.7792933"><ele>73.0</ele><time>2026-03-23T14:57:39.351Z</time></trkpt><trkpt lat="45.3554717" lon="9.7794617"><ele>73.0</ele><time>2026-03-23T14:57:41.351Z</time></trkpt><trkpt lat="45.35549" lon="9.77956"><ele>73.0</ele><time>2026-03-23T14:57:42.351Z</time></trkpt><trkpt lat="45.3555017" lon="9.7796567"><ele>73.0</ele><time>2026-03-23T14:57:43.352Z</time></trkpt><trkpt lat="45.3555183" lon="9.7797483"><ele>73.0</ele><time>2026-03-23T14:57:44.351Z</time></trkpt><trkpt lat="45.35553" lon="9.7798417"><ele>73.0</ele><time>2026-03-23T14:57:45.351Z</time></trkpt><trkpt lat="45.3555467" lon="9.7800133"><ele>73.0</ele><time>2026-03-23T14:57:47.351Z</time></trkpt><trkpt lat="45.355575" lon="9.7801567"><ele>73.0</ele><time>2026-03-23T14:57:49.351Z</time></trkpt><trkpt lat="45.35559" lon="9.780255"><ele>73.0</ele><time>2026-03-23T14:57:53.35Z</time></trkpt><trkpt lat="45.3556133" lon="9.7803467"><ele>73.0</ele><time>2026-03-23T14:57:56.35Z</time></trkpt><trkpt lat="45.3556367" lon="9.78044"><ele>73.0</ele><time>2026-03-23T14:57:58.35Z</time></trkpt><trkpt lat="45.3556567" lon="9.780555"><ele>73.0</ele><time>2026-03-23T14:58:00.35Z</time></trkpt><trkpt lat="45.3556717" lon="9.780685"><ele>73.0</ele><time>2026-03-23T14:58:02.351Z</time></trkpt><trkpt lat="45.3556833" lon="9.7808183"><ele>73.0</ele><time>2026-03-23T14:58:04.351Z</time></trkpt><trkpt lat="45.35571" lon="9.7809533"><ele>73.0</ele><time>2026-03-23T14:58:06.35Z</time></trkpt><trkpt lat="45.3557233" lon="9.78109"><ele>73.0</ele><time>2026-03-23T14:58:08.35Z</time></trkpt><trkpt lat="45.3557383" lon="9.781235"><ele>73.0</ele><time>2026-03-23T14:58:10.351Z</time></trkpt><trkpt lat="45.3557583" lon="9.7813867"><ele>73.0</ele><time>2026-03-23T14:58:12.35Z</time></trkpt><trkpt lat="45.3557867" lon="9.7815417"><ele>73.0</ele><time>2026-03-23T14:58:14.35Z</time></trkpt><trkpt lat="45.3558183" lon="9.781705"><ele>73.0</ele><time>2026-03-23T14:58:16.35Z</time></trkpt><trkpt lat="45.3558383" lon="9.7818733"><ele>73.0</ele><time>2026-03-23T14:58:18.35Z</time></trkpt><trkpt lat="45.3558617" lon="9.7820333"><ele>73.0</ele><time>2026-03-23T14:58:20.35Z</time></trkpt><trkpt lat="45.355885" lon="9.7822033"><ele>73.0</ele><time>2026-03-23T14:58:22.35Z</time></trkpt><trkpt lat="45.3559083" lon="9.78237"><ele>73.0</ele><time>2026-03-23T14:58:24.351Z</time></trkpt><trkpt lat="45.3559333" lon="9.7825333"><ele>73.0</ele><time>2026-03-23T14:58:26.35Z</time></trkpt><trkpt lat="45.355955" lon="9.782705"><ele>73.0</ele><time>2026-03-23T14:58:28.35Z</time></trkpt><trkpt lat="45.3559733" lon="9.7828667"><ele>73.0</ele><time>2026-03-23T14:58:30.351Z</time></trkpt><trkpt lat="45.355995" lon="9.7830083"><ele>73.0</ele><time>2026-03-23T14:58:32.35Z</time></trkpt><trkpt lat="45.3560433" lon="9.7831317"><ele>73.0</ele><time>2026-03-23T14:58:34.35Z</time></trkpt><trkpt lat="45.3561267" lon="9.7831667"><ele>73.0</ele><time>2026-03-23T14:58:36.351Z</time></trkpt><trkpt lat="45.3562233" lon="9.7831317"><ele>73.0</ele><time>2026-03-23T14:58:38.351Z</time></trkpt><trkpt lat="45.356335" lon="9.78311"><ele>73.0</ele><time>2026-03-23T14:58:40.351Z</time></trkpt><trkpt lat="45.356455" lon="9.783085"><ele>73.0</ele><time>2026-03-23T14:58:42.35Z</time></trkpt><trkpt lat="45.35652" lon="9.7830783"><ele>73.0</ele><time>2026-03-23T14:58:43.35Z</time></trkpt><trkpt lat="45.356645" lon="9.783055"><ele>73.0</ele><time>2026-03-23T14:58:45.35Z</time></trkpt><trkpt lat="45.35677" lon="9.7830333"><ele>73.0</ele><time>2026-03-23T14:58:47.35Z</time></trkpt><trkpt lat="45.3568867" lon="9.7830117"><ele>73.0</ele><time>2026-03-23T14:58:49.351Z</time></trkpt><trkpt lat="45.3570117" lon="9.7829883"><ele>73.0</ele><time>2026-03-23T14:58:51.351Z</time></trkpt><trkpt lat="45.357075" lon="9.78298"><ele>73.0</ele><time>2026-03-23T14:58:52.35Z</time></trkpt><trkpt lat="45.3571883" lon="9.7829667"><ele>73.0</ele><time>2026-03-23T14:58:54.35Z</time></trkpt><trkpt lat="45.3572933" lon="9.782945"><ele>74.0</ele><time>2026-03-23T14:58:56.35Z</time></trkpt><trkpt lat="45.3573917" lon="9.78293"><ele>74.0</ele><time>2026-03-23T14:58:58.35Z</time></trkpt><trkpt lat="45.3574833" lon="9.782955"><ele>74.0</ele><time>2026-03-23T14:59:00.35Z</time></trkpt></trkseg></trk></gpx>